<?xml version='1.0' encoding='UTF-8'?>
<gpx version="1.1" creator="https://www.komoot.de" xmlns="http://www.topografix.com/GPX/1/1" xmlns:xsi="http://www.w3.org/2001/XMLSchema-instance" xsi:schemaLocation="http://www.topografix.com/GPX/1/1 http://www.topografix.com/GPX/1/1/gpx.xsd">
  <metadata>
    <name>57_500WiesletSchlaechStei</name>
    <author>
      <link href="https://www.komoot.de">
        <text>komoot</text>
        <type>text/html</type>
      </link>
    </author>
  </metadata>
  <trk>
    <name>57_500WiesletSchlaechStei</name>
    <trkseg>
      <trkpt lat="47.541443" lon="7.870766">
        <ele>339.090100</ele>
        <time>2021-11-14T18:36:48.473Z</time>
      </trkpt>
      <trkpt lat="47.541576" lon="7.870664">
        <ele>339.090100</ele>
        <time>2021-11-14T18:36:50.435Z</time>
      </trkpt>
      <trkpt lat="47.541550" lon="7.870601">
        <ele>339.090100</ele>
        <time>2021-11-14T18:36:51.246Z</time>
      </trkpt>
      <trkpt lat="47.541521" lon="7.870517">
        <ele>339.090100</ele>
        <time>2021-11-14T18:36:52.303Z</time>
      </trkpt>
      <trkpt lat="47.541606" lon="7.870424">
        <ele>339.090100</ele>
        <time>2021-11-14T18:36:54.034Z</time>
      </trkpt>
      <trkpt lat="47.541910" lon="7.870106">
        <ele>339.090100</ele>
        <time>2021-11-14T18:36:59.874Z</time>
      </trkpt>
      <trkpt lat="47.542014" lon="7.870126">
        <ele>339.090100</ele>
        <time>2021-11-14T18:37:01.388Z</time>
      </trkpt>
      <trkpt lat="47.542118" lon="7.870135">
        <ele>339.038988</ele>
        <time>2021-11-14T18:37:03.141Z</time>
      </trkpt>
      <trkpt lat="47.542181" lon="7.870131">
        <ele>338.975612</ele>
        <time>2021-11-14T18:37:04.029Z</time>
      </trkpt>
      <trkpt lat="47.542317" lon="7.870012">
        <ele>338.816863</ele>
        <time>2021-11-14T18:37:06.221Z</time>
      </trkpt>
      <trkpt lat="47.542348" lon="7.869983">
        <ele>338.780014</ele>
        <time>2021-11-14T18:37:06.667Z</time>
      </trkpt>
      <trkpt lat="47.542329" lon="7.869820">
        <ele>338.667790</ele>
        <time>2021-11-14T18:37:08.462Z</time>
      </trkpt>
      <trkpt lat="47.542372" lon="7.869746">
        <ele>338.601546</ele>
        <time>2021-11-14T18:37:09.287Z</time>
      </trkpt>
      <trkpt lat="47.542657" lon="7.869354">
        <ele>338.210680</ele>
        <time>2021-11-14T18:37:14.146Z</time>
      </trkpt>
      <trkpt lat="47.542696" lon="7.869257">
        <ele>338.134082</ele>
        <time>2021-11-14T18:37:15.081Z</time>
      </trkpt>
      <trkpt lat="47.542722" lon="7.869201">
        <ele>338.087970</ele>
        <time>2021-11-14T18:37:15.672Z</time>
      </trkpt>
      <trkpt lat="47.543049" lon="7.868759">
        <ele>337.643074</ele>
        <time>2021-11-14T18:37:20.585Z</time>
      </trkpt>
      <trkpt lat="47.543105" lon="7.868711">
        <ele>337.578049</ele>
        <time>2021-11-14T18:37:21.323Z</time>
      </trkpt>
      <trkpt lat="47.543201" lon="7.868657">
        <ele>337.474844</ele>
        <time>2021-11-14T18:37:22.402Z</time>
      </trkpt>
      <trkpt lat="47.543657" lon="7.868359">
        <ele>336.901211</ele>
        <time>2021-11-14T18:37:28.197Z</time>
      </trkpt>
      <trkpt lat="47.543801" lon="7.868269">
        <ele>336.707100</ele>
        <time>2021-11-14T18:37:30.676Z</time>
      </trkpt>
      <trkpt lat="47.544214" lon="7.867988">
        <ele>336.142646</ele>
        <time>2021-11-14T18:37:38.293Z</time>
      </trkpt>
      <trkpt lat="47.544246" lon="7.867967">
        <ele>336.099177</ele>
        <time>2021-11-14T18:37:38.890Z</time>
      </trkpt>
      <trkpt lat="47.544410" lon="7.867825">
        <ele>335.863253</ele>
        <time>2021-11-14T18:37:42.143Z</time>
      </trkpt>
      <trkpt lat="47.544469" lon="7.867776">
        <ele>335.779246</ele>
        <time>2021-11-14T18:37:43.165Z</time>
      </trkpt>
      <trkpt lat="47.544568" lon="7.867693">
        <ele>335.637965</ele>
        <time>2021-11-14T18:37:45.092Z</time>
      </trkpt>
      <trkpt lat="47.545003" lon="7.867278">
        <ele>335.077935</ele>
        <time>2021-11-14T18:37:53.940Z</time>
      </trkpt>
      <trkpt lat="47.545160" lon="7.866985">
        <ele>335.251759</ele>
        <time>2021-11-14T18:37:58.590Z</time>
      </trkpt>
      <trkpt lat="47.545240" lon="7.866887">
        <ele>335.323215</ele>
        <time>2021-11-14T18:38:00.864Z</time>
      </trkpt>
      <trkpt lat="47.546096" lon="7.866147">
        <ele>336.005436</ele>
        <time>2021-11-14T18:38:25.934Z</time>
      </trkpt>
      <trkpt lat="47.546327" lon="7.865959">
        <ele>336.186861</ele>
        <time>2021-11-14T18:38:32.355Z</time>
      </trkpt>
      <trkpt lat="47.546510" lon="7.865766">
        <ele>336.289386</ele>
        <time>2021-11-14T18:38:38.741Z</time>
      </trkpt>
      <trkpt lat="47.546819" lon="7.865489">
        <ele>336.301974</ele>
        <time>2021-11-14T18:38:46.894Z</time>
      </trkpt>
      <trkpt lat="47.546889" lon="7.865225">
        <ele>336.308647</ele>
        <time>2021-11-14T18:38:50.681Z</time>
      </trkpt>
      <trkpt lat="47.546894" lon="7.864837">
        <ele>336.317777</ele>
        <time>2021-11-14T18:38:55.858Z</time>
      </trkpt>
      <trkpt lat="47.546885" lon="7.864500">
        <ele>336.325711</ele>
        <time>2021-11-14T18:39:01.497Z</time>
      </trkpt>
      <trkpt lat="47.546974" lon="7.864423">
        <ele>336.329303</ele>
        <time>2021-11-14T18:39:03.085Z</time>
      </trkpt>
      <trkpt lat="47.547320" lon="7.863864">
        <ele>336.347147</ele>
        <time>2021-11-14T18:39:13.010Z</time>
      </trkpt>
      <trkpt lat="47.547568" lon="7.863151">
        <ele>335.574489</ele>
        <time>2021-11-14T18:39:22.023Z</time>
      </trkpt>
      <trkpt lat="47.547930" lon="7.861711">
        <ele>333.899231</ele>
        <time>2021-11-14T18:39:38.397Z</time>
      </trkpt>
      <trkpt lat="47.548049" lon="7.860929">
        <ele>333.139874</ele>
        <time>2021-11-14T18:39:47.096Z</time>
      </trkpt>
      <trkpt lat="47.548334" lon="7.859801">
        <ele>332.186006</ele>
        <time>2021-11-14T18:40:00.578Z</time>
      </trkpt>
      <trkpt lat="47.548611" lon="7.858381">
        <ele>331.295273</ele>
        <time>2021-11-14T18:40:18.534Z</time>
      </trkpt>
      <trkpt lat="47.548686" lon="7.857973">
        <ele>331.254801</ele>
        <time>2021-11-14T18:40:23.923Z</time>
      </trkpt>
      <trkpt lat="47.548701" lon="7.857893">
        <ele>331.246855</ele>
        <time>2021-11-14T18:40:25.044Z</time>
      </trkpt>
      <trkpt lat="47.548743" lon="7.857692">
        <ele>331.226716</ele>
        <time>2021-11-14T18:40:27.818Z</time>
      </trkpt>
      <trkpt lat="47.548887" lon="7.857308">
        <ele>331.184672</ele>
        <time>2021-11-14T18:40:33.851Z</time>
      </trkpt>
      <trkpt lat="47.549362" lon="7.855774">
        <ele>330.883889</ele>
        <time>2021-11-14T18:40:57.896Z</time>
      </trkpt>
      <trkpt lat="47.549566" lon="7.855225">
        <ele>330.673567</ele>
        <time>2021-11-14T18:41:06.514Z</time>
      </trkpt>
      <trkpt lat="47.549883" lon="7.854434">
        <ele>330.364839</ele>
        <time>2021-11-14T18:41:17.967Z</time>
      </trkpt>
      <trkpt lat="47.550221" lon="7.853833">
        <ele>329.760142</ele>
        <time>2021-11-14T18:41:24.361Z</time>
      </trkpt>
      <trkpt lat="47.551516" lon="7.851950">
        <ele>324.976787</ele>
        <time>2021-11-14T18:41:43.157Z</time>
      </trkpt>
      <trkpt lat="47.551660" lon="7.851725">
        <ele>324.300281</ele>
        <time>2021-11-14T18:41:45.189Z</time>
      </trkpt>
      <trkpt lat="47.551830" lon="7.851603">
        <ele>323.689674</ele>
        <time>2021-11-14T18:41:47.110Z</time>
      </trkpt>
      <trkpt lat="47.551925" lon="7.851845">
        <ele>323.078877</ele>
        <time>2021-11-14T18:41:48.954Z</time>
      </trkpt>
      <trkpt lat="47.551938" lon="7.851863">
        <ele>323.021360</ele>
        <time>2021-11-14T18:41:49.135Z</time>
      </trkpt>
      <trkpt lat="47.552042" lon="7.852007">
        <ele>322.561223</ele>
        <time>2021-11-14T18:41:50.600Z</time>
      </trkpt>
      <trkpt lat="47.552097" lon="7.852063">
        <ele>322.345498</ele>
        <time>2021-11-14T18:41:51.231Z</time>
      </trkpt>
      <trkpt lat="47.552272" lon="7.852167">
        <ele>321.735988</ele>
        <time>2021-11-14T18:41:53.135Z</time>
      </trkpt>
      <trkpt lat="47.552449" lon="7.852231">
        <ele>321.147030</ele>
        <time>2021-11-14T18:41:54.937Z</time>
      </trkpt>
      <trkpt lat="47.552678" lon="7.851709">
        <ele>319.788730</ele>
        <time>2021-11-14T18:41:59.239Z</time>
      </trkpt>
      <trkpt lat="47.552876" lon="7.851300">
        <ele>319.084573</ele>
        <time>2021-11-14T18:42:02.784Z</time>
      </trkpt>
      <trkpt lat="47.553283" lon="7.850634">
        <ele>317.855329</ele>
        <time>2021-11-14T18:42:09.449Z</time>
      </trkpt>
      <trkpt lat="47.553344" lon="7.850525">
        <ele>317.661598</ele>
        <time>2021-11-14T18:42:10.530Z</time>
      </trkpt>
      <trkpt lat="47.553380" lon="7.850453">
        <ele>317.539002</ele>
        <time>2021-11-14T18:42:11.228Z</time>
      </trkpt>
      <trkpt lat="47.553537" lon="7.849904">
        <ele>316.723230</ele>
        <time>2021-11-14T18:42:15.726Z</time>
      </trkpt>
      <trkpt lat="47.553605" lon="7.849629">
        <ele>316.322527</ele>
        <time>2021-11-14T18:42:17.979Z</time>
      </trkpt>
      <trkpt lat="47.553725" lon="7.849291">
        <ele>315.889282</ele>
        <time>2021-11-14T18:42:20.920Z</time>
      </trkpt>
      <trkpt lat="47.554055" lon="7.848586">
        <ele>315.063675</ele>
        <time>2021-11-14T18:42:27.820Z</time>
      </trkpt>
      <trkpt lat="47.554209" lon="7.848300">
        <ele>314.711603</ele>
        <time>2021-11-14T18:42:30.758Z</time>
      </trkpt>
      <trkpt lat="47.554269" lon="7.848188">
        <ele>314.574002</ele>
        <time>2021-11-14T18:42:31.853Z</time>
      </trkpt>
      <trkpt lat="47.554351" lon="7.848049">
        <ele>314.396349</ele>
        <time>2021-11-14T18:42:33.298Z</time>
      </trkpt>
      <trkpt lat="47.554465" lon="7.847858">
        <ele>314.150991</ele>
        <time>2021-11-14T18:42:35.319Z</time>
      </trkpt>
      <trkpt lat="47.554618" lon="7.847626">
        <ele>313.838856</ele>
        <time>2021-11-14T18:42:37.818Z</time>
      </trkpt>
      <trkpt lat="47.554759" lon="7.847388">
        <ele>313.534407</ele>
        <time>2021-11-14T18:42:40.235Z</time>
      </trkpt>
      <trkpt lat="47.554892" lon="7.847148">
        <ele>313.273797</ele>
        <time>2021-11-14T18:42:42.666Z</time>
      </trkpt>
      <trkpt lat="47.554995" lon="7.846915">
        <ele>313.040049</ele>
        <time>2021-11-14T18:42:44.823Z</time>
      </trkpt>
      <trkpt lat="47.555068" lon="7.846672">
        <ele>312.816832</ele>
        <time>2021-11-14T18:42:46.883Z</time>
      </trkpt>
      <trkpt lat="47.555199" lon="7.846687">
        <ele>312.653450</ele>
        <time>2021-11-14T18:42:48.365Z</time>
      </trkpt>
      <trkpt lat="47.555727" lon="7.846715">
        <ele>311.996470</ele>
        <time>2021-11-14T18:42:54.822Z</time>
      </trkpt>
      <trkpt lat="47.555855" lon="7.846815">
        <ele>311.816536</ele>
        <time>2021-11-14T18:42:56.485Z</time>
      </trkpt>
      <trkpt lat="47.555892" lon="7.846856">
        <ele>311.759085</ele>
        <time>2021-11-14T18:42:57.042Z</time>
      </trkpt>
      <trkpt lat="47.555966" lon="7.846932">
        <ele>311.647125</ele>
        <time>2021-11-14T18:42:58.192Z</time>
      </trkpt>
      <trkpt lat="47.555990" lon="7.846965">
        <ele>311.606412</ele>
        <time>2021-11-14T18:42:58.623Z</time>
      </trkpt>
      <trkpt lat="47.556060" lon="7.846859">
        <ele>311.481956</ele>
        <time>2021-11-14T18:42:59.818Z</time>
      </trkpt>
      <trkpt lat="47.556636" lon="7.845928">
        <ele>310.789972</ele>
        <time>2021-11-14T18:43:10.204Z</time>
      </trkpt>
      <trkpt lat="47.557134" lon="7.845095">
        <ele>310.247540</ele>
        <time>2021-11-14T18:43:20.022Z</time>
      </trkpt>
      <trkpt lat="47.557282" lon="7.844832">
        <ele>310.080627</ele>
        <time>2021-11-14T18:43:23.162Z</time>
      </trkpt>
      <trkpt lat="47.557560" lon="7.844433">
        <ele>309.981019</ele>
        <time>2021-11-14T18:43:28.338Z</time>
      </trkpt>
      <trkpt lat="47.557715" lon="7.843940">
        <ele>309.954859</ele>
        <time>2021-11-14T18:43:33.343Z</time>
      </trkpt>
      <trkpt lat="47.557759" lon="7.843839">
        <ele>309.949077</ele>
        <time>2021-11-14T18:43:34.523Z</time>
      </trkpt>
      <trkpt lat="47.557846" lon="7.843756">
        <ele>309.941702</ele>
        <time>2021-11-14T18:43:35.871Z</time>
      </trkpt>
      <trkpt lat="47.557967" lon="7.843683">
        <ele>309.932390</ele>
        <time>2021-11-14T18:43:37.904Z</time>
      </trkpt>
      <trkpt lat="47.558136" lon="7.843582">
        <ele>309.919402</ele>
        <time>2021-11-14T18:43:40.592Z</time>
      </trkpt>
      <trkpt lat="47.558405" lon="7.843371">
        <ele>309.897709</ele>
        <time>2021-11-14T18:43:45.458Z</time>
      </trkpt>
      <trkpt lat="47.558471" lon="7.843365">
        <ele>309.892996</ele>
        <time>2021-11-14T18:43:46.308Z</time>
      </trkpt>
      <trkpt lat="47.558555" lon="7.843392">
        <ele>309.886869</ele>
        <time>2021-11-14T18:43:47.590Z</time>
      </trkpt>
      <trkpt lat="47.558688" lon="7.843571">
        <ele>309.874063</ele>
        <time>2021-11-14T18:43:50.707Z</time>
      </trkpt>
      <trkpt lat="47.558884" lon="7.843836">
        <ele>309.884454</ele>
        <time>2021-11-14T18:43:54.869Z</time>
      </trkpt>
      <trkpt lat="47.559060" lon="7.844197">
        <ele>309.899172</ele>
        <time>2021-11-14T18:43:59.695Z</time>
      </trkpt>
      <trkpt lat="47.559109" lon="7.844229">
        <ele>309.901794</ele>
        <time>2021-11-14T18:44:00.742Z</time>
      </trkpt>
      <trkpt lat="47.559158" lon="7.844233">
        <ele>309.904198</ele>
        <time>2021-11-14T18:44:01.690Z</time>
      </trkpt>
      <trkpt lat="47.559583" lon="7.843813">
        <ele>309.929214</ele>
        <time>2021-11-14T18:44:09.671Z</time>
      </trkpt>
      <trkpt lat="47.559847" lon="7.843604">
        <ele>309.943872</ele>
        <time>2021-11-14T18:44:14.069Z</time>
      </trkpt>
      <trkpt lat="47.560139" lon="7.843433">
        <ele>309.959247</ele>
        <time>2021-11-14T18:44:18.298Z</time>
      </trkpt>
      <trkpt lat="47.560209" lon="7.843393">
        <ele>309.912336</ele>
        <time>2021-11-14T18:44:19.250Z</time>
      </trkpt>
      <trkpt lat="47.560338" lon="7.843341">
        <ele>309.776056</ele>
        <time>2021-11-14T18:44:20.916Z</time>
      </trkpt>
      <trkpt lat="47.560430" lon="7.843341">
        <ele>309.682272</ele>
        <time>2021-11-14T18:44:22.458Z</time>
      </trkpt>
      <trkpt lat="47.560515" lon="7.843379">
        <ele>309.591766</ele>
        <time>2021-11-14T18:44:23.492Z</time>
      </trkpt>
      <trkpt lat="47.560812" lon="7.843560">
        <ele>309.264403</ele>
        <time>2021-11-14T18:44:27.551Z</time>
      </trkpt>
      <trkpt lat="47.560934" lon="7.843550">
        <ele>309.139846</ele>
        <time>2021-11-14T18:44:29.074Z</time>
      </trkpt>
      <trkpt lat="47.561038" lon="7.843502">
        <ele>309.028806</ele>
        <time>2021-11-14T18:44:30.362Z</time>
      </trkpt>
      <trkpt lat="47.561434" lon="7.843181">
        <ele>308.568680</ele>
        <time>2021-11-14T18:44:35.803Z</time>
      </trkpt>
      <trkpt lat="47.561498" lon="7.843130">
        <ele>308.494604</ele>
        <time>2021-11-14T18:44:36.567Z</time>
      </trkpt>
      <trkpt lat="47.562179" lon="7.842500">
        <ele>307.590163</ele>
        <time>2021-11-14T18:44:45.824Z</time>
      </trkpt>
      <trkpt lat="47.562300" lon="7.842326">
        <ele>307.385478</ele>
        <time>2021-11-14T18:44:47.774Z</time>
      </trkpt>
      <trkpt lat="47.562385" lon="7.842183">
        <ele>307.229364</ele>
        <time>2021-11-14T18:44:49.187Z</time>
      </trkpt>
      <trkpt lat="47.562440" lon="7.842083">
        <ele>307.123680</ele>
        <time>2021-11-14T18:44:50.301Z</time>
      </trkpt>
      <trkpt lat="47.562574" lon="7.841873">
        <ele>306.886913</ele>
        <time>2021-11-14T18:44:52.696Z</time>
      </trkpt>
      <trkpt lat="47.562904" lon="7.841632">
        <ele>306.440286</ele>
        <time>2021-11-14T18:44:57.185Z</time>
      </trkpt>
      <trkpt lat="47.562965" lon="7.841597">
        <ele>306.360875</ele>
        <time>2021-11-14T18:44:57.977Z</time>
      </trkpt>
      <trkpt lat="47.563016" lon="7.841568">
        <ele>306.294560</ele>
        <time>2021-11-14T18:44:58.678Z</time>
      </trkpt>
      <trkpt lat="47.563300" lon="7.841391">
        <ele>305.923230</ele>
        <time>2021-11-14T18:45:02.416Z</time>
      </trkpt>
      <trkpt lat="47.563483" lon="7.841269">
        <ele>305.708220</ele>
        <time>2021-11-14T18:45:04.970Z</time>
      </trkpt>
      <trkpt lat="47.563659" lon="7.841150">
        <ele>305.500937</ele>
        <time>2021-11-14T18:45:07.300Z</time>
      </trkpt>
      <trkpt lat="47.563805" lon="7.841046">
        <ele>305.327366</ele>
        <time>2021-11-14T18:45:09.359Z</time>
      </trkpt>
      <trkpt lat="47.563941" lon="7.840948">
        <ele>305.165330</ele>
        <time>2021-11-14T18:45:11.213Z</time>
      </trkpt>
      <trkpt lat="47.563986" lon="7.840916">
        <ele>305.111850</ele>
        <time>2021-11-14T18:45:11.834Z</time>
      </trkpt>
      <trkpt lat="47.564094" lon="7.840838">
        <ele>304.983118</ele>
        <time>2021-11-14T18:45:13.301Z</time>
      </trkpt>
      <trkpt lat="47.564463" lon="7.840580">
        <ele>304.545944</ele>
        <time>2021-11-14T18:45:18.292Z</time>
      </trkpt>
      <trkpt lat="47.564534" lon="7.840532">
        <ele>304.462326</ele>
        <time>2021-11-14T18:45:19.199Z</time>
      </trkpt>
      <trkpt lat="47.564558" lon="7.840516">
        <ele>304.434128</ele>
        <time>2021-11-14T18:45:19.523Z</time>
      </trkpt>
      <trkpt lat="47.564936" lon="7.840261">
        <ele>303.987568</ele>
        <time>2021-11-14T18:45:24.424Z</time>
      </trkpt>
      <trkpt lat="47.565057" lon="7.840213">
        <ele>303.845694</ele>
        <time>2021-11-14T18:45:25.838Z</time>
      </trkpt>
      <trkpt lat="47.565168" lon="7.840179">
        <ele>303.717315</ele>
        <time>2021-11-14T18:45:27.179Z</time>
      </trkpt>
      <trkpt lat="47.565233" lon="7.840176">
        <ele>303.643658</ele>
        <time>2021-11-14T18:45:27.915Z</time>
      </trkpt>
      <trkpt lat="47.565343" lon="7.840185">
        <ele>303.518878</ele>
        <time>2021-11-14T18:45:29.175Z</time>
      </trkpt>
      <trkpt lat="47.565906" lon="7.840272">
        <ele>302.877748</ele>
        <time>2021-11-14T18:45:35.841Z</time>
      </trkpt>
      <trkpt lat="47.566081" lon="7.840309">
        <ele>302.677530</ele>
        <time>2021-11-14T18:45:37.956Z</time>
      </trkpt>
      <trkpt lat="47.566142" lon="7.840322">
        <ele>302.607728</ele>
        <time>2021-11-14T18:45:38.691Z</time>
      </trkpt>
      <trkpt lat="47.566221" lon="7.840340">
        <ele>302.517199</ele>
        <time>2021-11-14T18:45:39.831Z</time>
      </trkpt>
      <trkpt lat="47.566350" lon="7.840350">
        <ele>302.370889</ele>
        <time>2021-11-14T18:45:41.445Z</time>
      </trkpt>
      <trkpt lat="47.566450" lon="7.840326">
        <ele>302.256150</ele>
        <time>2021-11-14T18:45:42.696Z</time>
      </trkpt>
      <trkpt lat="47.566515" lon="7.840312">
        <ele>302.181756</ele>
        <time>2021-11-14T18:45:43.492Z</time>
      </trkpt>
      <trkpt lat="47.566592" lon="7.840279">
        <ele>302.090970</ele>
        <time>2021-11-14T18:45:44.606Z</time>
      </trkpt>
      <trkpt lat="47.566826" lon="7.840179">
        <ele>301.871323</ele>
        <time>2021-11-14T18:45:47.556Z</time>
      </trkpt>
      <trkpt lat="47.567111" lon="7.839998">
        <ele>301.640508</ele>
        <time>2021-11-14T18:45:51.487Z</time>
      </trkpt>
      <trkpt lat="47.567406" lon="7.839778">
        <ele>301.394672</ele>
        <time>2021-11-14T18:45:55.646Z</time>
      </trkpt>
      <trkpt lat="47.567481" lon="7.839664">
        <ele>301.314699</ele>
        <time>2021-11-14T18:45:56.941Z</time>
      </trkpt>
      <trkpt lat="47.567510" lon="7.839548">
        <ele>301.252565</ele>
        <time>2021-11-14T18:45:58.097Z</time>
      </trkpt>
      <trkpt lat="47.567530" lon="7.839459">
        <ele>301.205449</ele>
        <time>2021-11-14T18:45:58.903Z</time>
      </trkpt>
      <trkpt lat="47.567564" lon="7.839283">
        <ele>301.113497</ele>
        <time>2021-11-14T18:46:00.468Z</time>
      </trkpt>
      <trkpt lat="47.567626" lon="7.839064">
        <ele>300.994210</ele>
        <time>2021-11-14T18:46:02.582Z</time>
      </trkpt>
      <trkpt lat="47.567634" lon="7.839037">
        <ele>300.979399</ele>
        <time>2021-11-14T18:46:02.810Z</time>
      </trkpt>
      <trkpt lat="47.567823" lon="7.838648">
        <ele>300.738631</ele>
        <time>2021-11-14T18:46:07.117Z</time>
      </trkpt>
      <trkpt lat="47.567846" lon="7.838609">
        <ele>300.712615</ele>
        <time>2021-11-14T18:46:07.541Z</time>
      </trkpt>
      <trkpt lat="47.567936" lon="7.838380">
        <ele>300.542838</ele>
        <time>2021-11-14T18:46:09.897Z</time>
      </trkpt>
      <trkpt lat="47.568042" lon="7.838436">
        <ele>300.408401</ele>
        <time>2021-11-14T18:46:11.986Z</time>
      </trkpt>
      <trkpt lat="47.568160" lon="7.838415">
        <ele>300.266421</ele>
        <time>2021-11-14T18:46:14.131Z</time>
      </trkpt>
      <trkpt lat="47.568420" lon="7.838300">
        <ele>299.942277</ele>
        <time>2021-11-14T18:46:18.920Z</time>
      </trkpt>
      <trkpt lat="47.568988" lon="7.838054">
        <ele>299.235343</ele>
        <time>2021-11-14T18:46:28.743Z</time>
      </trkpt>
      <trkpt lat="47.569310" lon="7.837922">
        <ele>298.836225</ele>
        <time>2021-11-14T18:46:34.250Z</time>
      </trkpt>
      <trkpt lat="47.569522" lon="7.837844">
        <ele>298.575275</ele>
        <time>2021-11-14T18:46:37.842Z</time>
      </trkpt>
      <trkpt lat="47.569665" lon="7.837789">
        <ele>298.390317</ele>
        <time>2021-11-14T18:46:40.280Z</time>
      </trkpt>
      <trkpt lat="47.569814" lon="7.837733">
        <ele>298.189896</ele>
        <time>2021-11-14T18:46:42.816Z</time>
      </trkpt>
      <trkpt lat="47.569907" lon="7.837696">
        <ele>298.064347</ele>
        <time>2021-11-14T18:46:44.392Z</time>
      </trkpt>
      <trkpt lat="47.570038" lon="7.837643">
        <ele>297.887295</ele>
        <time>2021-11-14T18:46:46.644Z</time>
      </trkpt>
      <trkpt lat="47.570298" lon="7.837528">
        <ele>297.533524</ele>
        <time>2021-11-14T18:46:51.095Z</time>
      </trkpt>
      <trkpt lat="47.570872" lon="7.837307">
        <ele>296.760282</ele>
        <time>2021-11-14T18:47:00.958Z</time>
      </trkpt>
      <trkpt lat="47.570985" lon="7.837265">
        <ele>296.608387</ele>
        <time>2021-11-14T18:47:02.885Z</time>
      </trkpt>
      <trkpt lat="47.571254" lon="7.837161">
        <ele>296.245919</ele>
        <time>2021-11-14T18:47:07.598Z</time>
      </trkpt>
      <trkpt lat="47.571771" lon="7.836971">
        <ele>295.877931</ele>
        <time>2021-11-14T18:47:17.104Z</time>
      </trkpt>
      <trkpt lat="47.571871" lon="7.836932">
        <ele>295.817114</ele>
        <time>2021-11-14T18:47:19.040Z</time>
      </trkpt>
      <trkpt lat="47.572139" lon="7.836834">
        <ele>295.654764</ele>
        <time>2021-11-14T18:47:24.236Z</time>
      </trkpt>
      <trkpt lat="47.572296" lon="7.836777">
        <ele>295.559695</ele>
        <time>2021-11-14T18:47:27.314Z</time>
      </trkpt>
      <trkpt lat="47.572760" lon="7.836606">
        <ele>295.278484</ele>
        <time>2021-11-14T18:47:36.331Z</time>
      </trkpt>
      <trkpt lat="47.573348" lon="7.836386">
        <ele>294.993961</ele>
        <time>2021-11-14T18:47:47.486Z</time>
      </trkpt>
      <trkpt lat="47.573815" lon="7.836215">
        <ele>294.833593</ele>
        <time>2021-11-14T18:47:56.297Z</time>
      </trkpt>
      <trkpt lat="47.574158" lon="7.836106">
        <ele>294.716646</ele>
        <time>2021-11-14T18:48:02.869Z</time>
      </trkpt>
      <trkpt lat="47.574568" lon="7.836025">
        <ele>294.578752</ele>
        <time>2021-11-14T18:48:08.560Z</time>
      </trkpt>
      <trkpt lat="47.575033" lon="7.835907">
        <ele>294.622366</ele>
        <time>2021-11-14T18:48:15.565Z</time>
      </trkpt>
      <trkpt lat="47.575959" lon="7.835718">
        <ele>295.241260</ele>
        <time>2021-11-14T18:48:31.182Z</time>
      </trkpt>
      <trkpt lat="47.576219" lon="7.835650">
        <ele>295.416066</ele>
        <time>2021-11-14T18:48:36.339Z</time>
      </trkpt>
      <trkpt lat="47.579073" lon="7.834987">
        <ele>298.489714</ele>
        <time>2021-11-14T18:49:35.176Z</time>
      </trkpt>
      <trkpt lat="47.580667" lon="7.834627">
        <ele>298.544204</ele>
        <time>2021-11-14T18:49:59.025Z</time>
      </trkpt>
      <trkpt lat="47.580816" lon="7.834599">
        <ele>298.387330</ele>
        <time>2021-11-14T18:50:01.122Z</time>
      </trkpt>
      <trkpt lat="47.582828" lon="7.834117">
        <ele>295.016439</ele>
        <time>2021-11-14T18:50:24.169Z</time>
      </trkpt>
      <trkpt lat="47.583163" lon="7.833942">
        <ele>294.152779</ele>
        <time>2021-11-14T18:50:27.998Z</time>
      </trkpt>
      <trkpt lat="47.583327" lon="7.833750">
        <ele>293.644659</ele>
        <time>2021-11-14T18:50:30.156Z</time>
      </trkpt>
      <trkpt lat="47.583401" lon="7.833658">
        <ele>293.409830</ele>
        <time>2021-11-14T18:50:31.088Z</time>
      </trkpt>
      <trkpt lat="47.583523" lon="7.833509">
        <ele>293.025484</ele>
        <time>2021-11-14T18:50:32.763Z</time>
      </trkpt>
      <trkpt lat="47.583696" lon="7.833171">
        <ele>291.959207</ele>
        <time>2021-11-14T18:50:35.601Z</time>
      </trkpt>
      <trkpt lat="47.583849" lon="7.832883">
        <ele>290.904198</ele>
        <time>2021-11-14T18:50:37.922Z</time>
      </trkpt>
      <trkpt lat="47.584029" lon="7.832543">
        <ele>289.660352</ele>
        <time>2021-11-14T18:50:40.656Z</time>
      </trkpt>
      <trkpt lat="47.584156" lon="7.832334">
        <ele>288.850815</ele>
        <time>2021-11-14T18:50:42.436Z</time>
      </trkpt>
      <trkpt lat="47.584367" lon="7.832247">
        <ele>287.916413</ele>
        <time>2021-11-14T18:50:44.495Z</time>
      </trkpt>
      <trkpt lat="47.584717" lon="7.832264">
        <ele>286.422332</ele>
        <time>2021-11-14T18:50:47.884Z</time>
      </trkpt>
      <trkpt lat="47.585027" lon="7.832425">
        <ele>285.068137</ele>
        <time>2021-11-14T18:50:51.148Z</time>
      </trkpt>
      <trkpt lat="47.585195" lon="7.832588">
        <ele>284.533757</ele>
        <time>2021-11-14T18:50:53.203Z</time>
      </trkpt>
      <trkpt lat="47.585247" lon="7.832651">
        <ele>284.355023</ele>
        <time>2021-11-14T18:50:53.851Z</time>
      </trkpt>
      <trkpt lat="47.585278" lon="7.832688">
        <ele>284.249100</ele>
        <time>2021-11-14T18:50:54.233Z</time>
      </trkpt>
      <trkpt lat="47.586276" lon="7.833601">
        <ele>281.127892</ele>
        <time>2021-11-14T18:51:06.250Z</time>
      </trkpt>
      <trkpt lat="47.586496" lon="7.833050">
        <ele>280.371524</ele>
        <time>2021-11-14T18:51:11.487Z</time>
      </trkpt>
      <trkpt lat="47.587848" lon="7.834235">
        <ele>280.506179</ele>
        <time>2021-11-14T18:51:35.472Z</time>
      </trkpt>
      <trkpt lat="47.587687" lon="7.835486">
        <ele>282.546094</ele>
        <time>2021-11-14T18:51:55.101Z</time>
      </trkpt>
      <trkpt lat="47.587641" lon="7.835841">
        <ele>283.186392</ele>
        <time>2021-11-14T18:52:01.295Z</time>
      </trkpt>
      <trkpt lat="47.587628" lon="7.835942">
        <ele>283.368519</ele>
        <time>2021-11-14T18:52:03.470Z</time>
      </trkpt>
      <trkpt lat="47.587903" lon="7.836007">
        <ele>284.099841</ele>
        <time>2021-11-14T18:52:11.010Z</time>
      </trkpt>
      <trkpt lat="47.588272" lon="7.836090">
        <ele>285.079993</ele>
        <time>2021-11-14T18:52:21.996Z</time>
      </trkpt>
      <trkpt lat="47.589181" lon="7.835983">
        <ele>288.143821</ele>
        <time>2021-11-14T18:52:50.457Z</time>
      </trkpt>
      <trkpt lat="47.590263" lon="7.835856">
        <ele>291.568003</ele>
        <time>2021-11-14T18:53:20.439Z</time>
      </trkpt>
      <trkpt lat="47.590317" lon="7.835591">
        <ele>291.830205</ele>
        <time>2021-11-14T18:53:24.626Z</time>
      </trkpt>
      <trkpt lat="47.590327" lon="7.835507">
        <ele>291.910996</ele>
        <time>2021-11-14T18:53:25.868Z</time>
      </trkpt>
      <trkpt lat="47.590421" lon="7.834731">
        <ele>292.657747</ele>
        <time>2021-11-14T18:53:36.485Z</time>
      </trkpt>
      <trkpt lat="47.590501" lon="7.833517">
        <ele>293.813064</ele>
        <time>2021-11-14T18:53:51.416Z</time>
      </trkpt>
      <trkpt lat="47.590514" lon="7.833031">
        <ele>294.252017</ele>
        <time>2021-11-14T18:53:56.883Z</time>
      </trkpt>
      <trkpt lat="47.590585" lon="7.832798">
        <ele>294.480143</ele>
        <time>2021-11-14T18:53:59.850Z</time>
      </trkpt>
      <trkpt lat="47.590805" lon="7.830509">
        <ele>296.553742</ele>
        <time>2021-11-14T18:54:32.504Z</time>
      </trkpt>
      <trkpt lat="47.590807" lon="7.830492">
        <ele>296.569759</ele>
        <time>2021-11-14T18:54:33.267Z</time>
      </trkpt>
      <trkpt lat="47.590905" lon="7.829431">
        <ele>297.563703</ele>
        <time>2021-11-14T18:54:49.074Z</time>
      </trkpt>
      <trkpt lat="47.590942" lon="7.829014">
        <ele>297.954070</ele>
        <time>2021-11-14T18:54:54.652Z</time>
      </trkpt>
      <trkpt lat="47.590997" lon="7.828435">
        <ele>298.496764</ele>
        <time>2021-11-14T18:55:02.382Z</time>
      </trkpt>
      <trkpt lat="47.591088" lon="7.827507">
        <ele>298.670903</ele>
        <time>2021-11-14T18:55:13.737Z</time>
      </trkpt>
      <trkpt lat="47.591121" lon="7.827210">
        <ele>298.633104</ele>
        <time>2021-11-14T18:55:16.668Z</time>
      </trkpt>
      <trkpt lat="47.591206" lon="7.826325">
        <ele>298.520848</ele>
        <time>2021-11-14T18:55:24.865Z</time>
      </trkpt>
      <trkpt lat="47.591232" lon="7.825464">
        <ele>298.406452</ele>
        <time>2021-11-14T18:55:31.965Z</time>
      </trkpt>
      <trkpt lat="47.591145" lon="7.824128">
        <ele>298.074231</ele>
        <time>2021-11-14T18:55:42.960Z</time>
      </trkpt>
      <trkpt lat="47.591059" lon="7.823571">
        <ele>297.932797</ele>
        <time>2021-11-14T18:55:47.783Z</time>
      </trkpt>
      <trkpt lat="47.591023" lon="7.823436">
        <ele>297.896864</ele>
        <time>2021-11-14T18:55:49.020Z</time>
      </trkpt>
      <trkpt lat="47.590993" lon="7.823343">
        <ele>297.871348</ele>
        <time>2021-11-14T18:55:49.925Z</time>
      </trkpt>
      <trkpt lat="47.590966" lon="7.823273">
        <ele>297.851388</ele>
        <time>2021-11-14T18:55:50.615Z</time>
      </trkpt>
      <trkpt lat="47.590938" lon="7.823202">
        <ele>297.831030</ele>
        <time>2021-11-14T18:55:51.358Z</time>
      </trkpt>
      <trkpt lat="47.590876" lon="7.823017">
        <ele>297.779897</ele>
        <time>2021-11-14T18:55:53.216Z</time>
      </trkpt>
      <trkpt lat="47.590820" lon="7.822776">
        <ele>298.368626</ele>
        <time>2021-11-14T18:55:58.314Z</time>
      </trkpt>
      <trkpt lat="47.590742" lon="7.822297">
        <ele>300.137499</ele>
        <time>2021-11-14T18:56:05.523Z</time>
      </trkpt>
      <trkpt lat="47.590684" lon="7.821940">
        <ele>301.455679</ele>
        <time>2021-11-14T18:56:12.799Z</time>
      </trkpt>
      <trkpt lat="47.590673" lon="7.821142">
        <ele>304.320856</ele>
        <time>2021-11-14T18:56:34.033Z</time>
      </trkpt>
      <trkpt lat="47.590665" lon="7.821069">
        <ele>304.586341</ele>
        <time>2021-11-14T18:56:35.930Z</time>
      </trkpt>
      <trkpt lat="47.590651" lon="7.821006">
        <ele>304.824453</ele>
        <time>2021-11-14T18:56:37.495Z</time>
      </trkpt>
      <trkpt lat="47.590626" lon="7.820946">
        <ele>305.077624</ele>
        <time>2021-11-14T18:56:39.160Z</time>
      </trkpt>
      <trkpt lat="47.590586" lon="7.820883">
        <ele>305.388225</ele>
        <time>2021-11-14T18:56:41.151Z</time>
      </trkpt>
      <trkpt lat="47.590612" lon="7.820777">
        <ele>305.793118</ele>
        <time>2021-11-14T18:56:44.178Z</time>
      </trkpt>
      <trkpt lat="47.590614" lon="7.820708">
        <ele>306.041036</ele>
        <time>2021-11-14T18:56:48.801Z</time>
      </trkpt>
      <trkpt lat="47.590554" lon="7.820052">
        <ele>309.656672</ele>
        <time>2021-11-14T18:57:11.594Z</time>
      </trkpt>
      <trkpt lat="47.590624" lon="7.819732">
        <ele>312.243461</ele>
        <time>2021-11-14T18:57:22.861Z</time>
      </trkpt>
      <trkpt lat="47.591075" lon="7.819121">
        <ele>319.208603</ele>
        <time>2021-11-14T18:58:03.108Z</time>
      </trkpt>
      <trkpt lat="47.591246" lon="7.818566">
        <ele>323.900407</ele>
        <time>2021-11-14T18:58:31.341Z</time>
      </trkpt>
      <trkpt lat="47.591346" lon="7.817303">
        <ele>332.806886</ele>
        <time>2021-11-14T18:59:23.528Z</time>
      </trkpt>
      <trkpt lat="47.591551" lon="7.815659">
        <ele>343.743068</ele>
        <time>2021-11-14T19:00:21.976Z</time>
      </trkpt>
      <trkpt lat="47.591546" lon="7.815266">
        <ele>345.979002</ele>
        <time>2021-11-14T19:00:34.265Z</time>
      </trkpt>
      <trkpt lat="47.591438" lon="7.814076">
        <ele>351.275306</ele>
        <time>2021-11-14T19:01:08.972Z</time>
      </trkpt>
      <trkpt lat="47.591515" lon="7.812852">
        <ele>356.697706</ele>
        <time>2021-11-14T19:01:41.500Z</time>
      </trkpt>
      <trkpt lat="47.591613" lon="7.812338">
        <ele>357.834796</ele>
        <time>2021-11-14T19:01:53.578Z</time>
      </trkpt>
      <trkpt lat="47.591696" lon="7.811913">
        <ele>358.599950</ele>
        <time>2021-11-14T19:02:02.462Z</time>
      </trkpt>
      <trkpt lat="47.591858" lon="7.811405">
        <ele>359.571703</ele>
        <time>2021-11-14T19:02:12.587Z</time>
      </trkpt>
      <trkpt lat="47.591916" lon="7.811092">
        <ele>360.133037</ele>
        <time>2021-11-14T19:02:17.535Z</time>
      </trkpt>
      <trkpt lat="47.591991" lon="7.810188">
        <ele>361.634877</ele>
        <time>2021-11-14T19:02:28.710Z</time>
      </trkpt>
      <trkpt lat="47.591999" lon="7.810096">
        <ele>361.547194</ele>
        <time>2021-11-14T19:02:29.582Z</time>
      </trkpt>
      <trkpt lat="47.592047" lon="7.809389">
        <ele>360.875523</ele>
        <time>2021-11-14T19:02:35.782Z</time>
      </trkpt>
      <trkpt lat="47.592088" lon="7.808946">
        <ele>360.452852</ele>
        <time>2021-11-14T19:02:39.221Z</time>
      </trkpt>
      <trkpt lat="47.592168" lon="7.807575">
        <ele>359.152073</ele>
        <time>2021-11-14T19:02:49.037Z</time>
      </trkpt>
      <trkpt lat="47.592169" lon="7.806682">
        <ele>358.408751</ele>
        <time>2021-11-14T19:02:55.766Z</time>
      </trkpt>
      <trkpt lat="47.592150" lon="7.806138">
        <ele>357.956236</ele>
        <time>2021-11-14T19:03:00.055Z</time>
      </trkpt>
      <trkpt lat="47.592165" lon="7.805229">
        <ele>357.200889</ele>
        <time>2021-11-14T19:03:07.606Z</time>
      </trkpt>
      <trkpt lat="47.591909" lon="7.803595">
        <ele>357.183623</ele>
        <time>2021-11-14T19:03:24.530Z</time>
      </trkpt>
      <trkpt lat="47.591811" lon="7.803249">
        <ele>357.256024</ele>
        <time>2021-11-14T19:03:28.757Z</time>
      </trkpt>
      <trkpt lat="47.591721" lon="7.802939">
        <ele>357.321138</ele>
        <time>2021-11-14T19:03:33.181Z</time>
      </trkpt>
      <trkpt lat="47.591292" lon="7.802648">
        <ele>357.494897</ele>
        <time>2021-11-14T19:03:41.092Z</time>
      </trkpt>
      <trkpt lat="47.591109" lon="7.802361">
        <ele>357.741809</ele>
        <time>2021-11-14T19:03:45.986Z</time>
      </trkpt>
      <trkpt lat="47.590927" lon="7.801871">
        <ele>358.091516</ele>
        <time>2021-11-14T19:03:52.817Z</time>
      </trkpt>
      <trkpt lat="47.590854" lon="7.801694">
        <ele>358.221218</ele>
        <time>2021-11-14T19:03:55.507Z</time>
      </trkpt>
      <trkpt lat="47.590431" lon="7.801257">
        <ele>358.699104</ele>
        <time>2021-11-14T19:04:04.377Z</time>
      </trkpt>
      <trkpt lat="47.590019" lon="7.800882">
        <ele>359.186791</ele>
        <time>2021-11-14T19:04:13.759Z</time>
      </trkpt>
      <trkpt lat="47.589959" lon="7.800811">
        <ele>359.326288</ele>
        <time>2021-11-14T19:04:15.866Z</time>
      </trkpt>
      <trkpt lat="47.589545" lon="7.800321">
        <ele>360.288894</ele>
        <time>2021-11-14T19:04:27.153Z</time>
      </trkpt>
      <trkpt lat="47.589168" lon="7.799966">
        <ele>361.100452</ele>
        <time>2021-11-14T19:04:36.749Z</time>
      </trkpt>
      <trkpt lat="47.589236" lon="7.799724">
        <ele>361.421755</ele>
        <time>2021-11-14T19:04:42.125Z</time>
      </trkpt>
      <trkpt lat="47.589230" lon="7.799281">
        <ele>361.964797</ele>
        <time>2021-11-14T19:04:50.779Z</time>
      </trkpt>
      <trkpt lat="47.589167" lon="7.798816">
        <ele>362.530472</ele>
        <time>2021-11-14T19:04:59.767Z</time>
      </trkpt>
      <trkpt lat="47.589153" lon="7.798651">
        <ele>362.715751</ele>
        <time>2021-11-14T19:05:03.103Z</time>
      </trkpt>
      <trkpt lat="47.589272" lon="7.798569">
        <ele>362.932521</ele>
        <time>2021-11-14T19:05:06.053Z</time>
      </trkpt>
      <trkpt lat="47.589486" lon="7.798387">
        <ele>363.340056</ele>
        <time>2021-11-14T19:05:11.876Z</time>
      </trkpt>
      <trkpt lat="47.589692" lon="7.798248">
        <ele>363.713930</ele>
        <time>2021-11-14T19:05:17.016Z</time>
      </trkpt>
      <trkpt lat="47.589924" lon="7.798072">
        <ele>364.144424</ele>
        <time>2021-11-14T19:05:23.194Z</time>
      </trkpt>
      <trkpt lat="47.590924" lon="7.797504">
        <ele>364.965221</ele>
        <time>2021-11-14T19:05:43.840Z</time>
      </trkpt>
      <trkpt lat="47.591349" lon="7.797193">
        <ele>364.440535</ele>
        <time>2021-11-14T19:05:50.551Z</time>
      </trkpt>
      <trkpt lat="47.591728" lon="7.796915">
        <ele>363.972422</ele>
        <time>2021-11-14T19:05:55.476Z</time>
      </trkpt>
      <trkpt lat="47.592114" lon="7.796545">
        <ele>363.463575</ele>
        <time>2021-11-14T19:06:00.328Z</time>
      </trkpt>
      <trkpt lat="47.592429" lon="7.796406">
        <ele>362.086559</ele>
        <time>2021-11-14T19:06:03.655Z</time>
      </trkpt>
      <trkpt lat="47.592802" lon="7.796368">
        <ele>360.026281</ele>
        <time>2021-11-14T19:06:07.245Z</time>
      </trkpt>
      <trkpt lat="47.593608" lon="7.796793">
        <ele>355.312322</ele>
        <time>2021-11-14T19:06:15.029Z</time>
      </trkpt>
      <trkpt lat="47.594060" lon="7.796856">
        <ele>352.761298</ele>
        <time>2021-11-14T19:06:19.115Z</time>
      </trkpt>
      <trkpt lat="47.594601" lon="7.796746">
        <ele>349.517706</ele>
        <time>2021-11-14T19:06:24.005Z</time>
      </trkpt>
      <trkpt lat="47.594592" lon="7.795962">
        <ele>346.376743</ele>
        <time>2021-11-14T19:06:28.826Z</time>
      </trkpt>
      <trkpt lat="47.594615" lon="7.795353">
        <ele>343.933419</ele>
        <time>2021-11-14T19:06:32.658Z</time>
      </trkpt>
      <trkpt lat="47.595084" lon="7.795012">
        <ele>342.147985</ele>
        <time>2021-11-14T19:06:39.954Z</time>
      </trkpt>
      <trkpt lat="47.595097" lon="7.795003">
        <ele>342.120979</ele>
        <time>2021-11-14T19:06:40.153Z</time>
      </trkpt>
      <trkpt lat="47.595192" lon="7.794875">
        <ele>341.879365</ele>
        <time>2021-11-14T19:06:42.091Z</time>
      </trkpt>
      <trkpt lat="47.595266" lon="7.794775">
        <ele>341.690908</ele>
        <time>2021-11-14T19:06:43.634Z</time>
      </trkpt>
      <trkpt lat="47.595406" lon="7.794597">
        <ele>341.343776</ele>
        <time>2021-11-14T19:06:46.422Z</time>
      </trkpt>
      <trkpt lat="47.595474" lon="7.794536">
        <ele>341.194178</ele>
        <time>2021-11-14T19:06:47.721Z</time>
      </trkpt>
      <trkpt lat="47.595643" lon="7.794443">
        <ele>340.854864</ele>
        <time>2021-11-14T19:06:50.647Z</time>
      </trkpt>
      <trkpt lat="47.595967" lon="7.794367">
        <ele>340.237402</ele>
        <time>2021-11-14T19:06:56.292Z</time>
      </trkpt>
      <trkpt lat="47.596077" lon="7.794429">
        <ele>340.015892</ele>
        <time>2021-11-14T19:06:58.432Z</time>
      </trkpt>
      <trkpt lat="47.596163" lon="7.794498">
        <ele>339.831835</ele>
        <time>2021-11-14T19:07:00.572Z</time>
      </trkpt>
      <trkpt lat="47.596235" lon="7.794562">
        <ele>339.673823</ele>
        <time>2021-11-14T19:07:02.423Z</time>
      </trkpt>
      <trkpt lat="47.596346" lon="7.794636">
        <ele>339.444740</ele>
        <time>2021-11-14T19:07:04.629Z</time>
      </trkpt>
      <trkpt lat="47.596534" lon="7.794652">
        <ele>339.550258</ele>
        <time>2021-11-14T19:07:09.013Z</time>
      </trkpt>
      <trkpt lat="47.596690" lon="7.794484">
        <ele>339.776942</ele>
        <time>2021-11-14T19:07:13.038Z</time>
      </trkpt>
      <trkpt lat="47.596960" lon="7.794194">
        <ele>340.168921</ele>
        <time>2021-11-14T19:07:20.950Z</time>
      </trkpt>
      <trkpt lat="47.597144" lon="7.793996">
        <ele>340.436219</ele>
        <time>2021-11-14T19:07:27.040Z</time>
      </trkpt>
      <trkpt lat="47.597274" lon="7.793915">
        <ele>340.602012</ele>
        <time>2021-11-14T19:07:30.287Z</time>
      </trkpt>
      <trkpt lat="47.597463" lon="7.793850">
        <ele>340.830129</ele>
        <time>2021-11-14T19:07:35.764Z</time>
      </trkpt>
      <trkpt lat="47.597814" lon="7.793727">
        <ele>341.254188</ele>
        <time>2021-11-14T19:07:45.350Z</time>
      </trkpt>
      <trkpt lat="47.597954" lon="7.793533">
        <ele>341.479475</ele>
        <time>2021-11-14T19:07:50.398Z</time>
      </trkpt>
      <trkpt lat="47.597960" lon="7.793371">
        <ele>341.765848</ele>
        <time>2021-11-14T19:07:53.639Z</time>
      </trkpt>
      <trkpt lat="47.597950" lon="7.793239">
        <ele>342.009687</ele>
        <time>2021-11-14T19:07:56.382Z</time>
      </trkpt>
      <trkpt lat="47.597944" lon="7.793222">
        <ele>342.044910</ele>
        <time>2021-11-14T19:07:56.706Z</time>
      </trkpt>
      <trkpt lat="47.597897" lon="7.793092">
        <ele>342.315689</ele>
        <time>2021-11-14T19:07:59.263Z</time>
      </trkpt>
      <trkpt lat="47.597646" lon="7.792396">
        <ele>343.764587</ele>
        <time>2021-11-14T19:08:15.489Z</time>
      </trkpt>
      <trkpt lat="47.597848" lon="7.792115">
        <ele>344.518563</ele>
        <time>2021-11-14T19:08:22.954Z</time>
      </trkpt>
      <trkpt lat="47.598017" lon="7.791913">
        <ele>345.109464</ele>
        <time>2021-11-14T19:08:28.894Z</time>
      </trkpt>
      <trkpt lat="47.598252" lon="7.791731">
        <ele>345.831187</ele>
        <time>2021-11-14T19:08:36.582Z</time>
      </trkpt>
      <trkpt lat="47.598592" lon="7.791580">
        <ele>346.759989</ele>
        <time>2021-11-14T19:08:46.845Z</time>
      </trkpt>
      <trkpt lat="47.599667" lon="7.791105">
        <ele>349.536987</ele>
        <time>2021-11-14T19:09:15.755Z</time>
      </trkpt>
      <trkpt lat="47.600151" lon="7.790895">
        <ele>350.785455</ele>
        <time>2021-11-14T19:09:26.591Z</time>
      </trkpt>
      <trkpt lat="47.600211" lon="7.790869">
        <ele>350.884851</ele>
        <time>2021-11-14T19:09:27.889Z</time>
      </trkpt>
      <trkpt lat="47.600304" lon="7.790832">
        <ele>350.994747</ele>
        <time>2021-11-14T19:09:29.883Z</time>
      </trkpt>
      <trkpt lat="47.601073" lon="7.790573">
        <ele>351.894769</ele>
        <time>2021-11-14T19:09:45.339Z</time>
      </trkpt>
      <trkpt lat="47.601359" lon="7.790478">
        <ele>352.229273</ele>
        <time>2021-11-14T19:09:50.753Z</time>
      </trkpt>
      <trkpt lat="47.601768" lon="7.790511">
        <ele>352.696762</ele>
        <time>2021-11-14T19:09:58.218Z</time>
      </trkpt>
      <trkpt lat="47.601954" lon="7.790533">
        <ele>352.910825</ele>
        <time>2021-11-14T19:10:01.543Z</time>
      </trkpt>
      <trkpt lat="47.602292" lon="7.790564">
        <ele>353.319313</ele>
        <time>2021-11-14T19:10:07.751Z</time>
      </trkpt>
      <trkpt lat="47.603218" lon="7.790665">
        <ele>354.439310</ele>
        <time>2021-11-14T19:10:25.413Z</time>
      </trkpt>
      <trkpt lat="47.603379" lon="7.790683">
        <ele>354.634066</ele>
        <time>2021-11-14T19:10:28.810Z</time>
      </trkpt>
      <trkpt lat="47.603500" lon="7.790696">
        <ele>354.780404</ele>
        <time>2021-11-14T19:10:31.494Z</time>
      </trkpt>
      <trkpt lat="47.604020" lon="7.790669">
        <ele>355.767831</ele>
        <time>2021-11-14T19:10:42.876Z</time>
      </trkpt>
      <trkpt lat="47.604312" lon="7.790667">
        <ele>356.484109</ele>
        <time>2021-11-14T19:10:49.377Z</time>
      </trkpt>
      <trkpt lat="47.604673" lon="7.790747">
        <ele>357.379466</ele>
        <time>2021-11-14T19:10:57.837Z</time>
      </trkpt>
      <trkpt lat="47.604776" lon="7.790738">
        <ele>357.632562</ele>
        <time>2021-11-14T19:11:00.391Z</time>
      </trkpt>
      <trkpt lat="47.604861" lon="7.790465">
        <ele>358.129894</ele>
        <time>2021-11-14T19:11:05.494Z</time>
      </trkpt>
      <trkpt lat="47.604933" lon="7.789879">
        <ele>359.115038</ele>
        <time>2021-11-14T19:11:16.232Z</time>
      </trkpt>
      <trkpt lat="47.605245" lon="7.789093">
        <ele>361.276650</ele>
        <time>2021-11-14T19:11:34.270Z</time>
      </trkpt>
      <trkpt lat="47.606058" lon="7.787870">
        <ele>365.728057</ele>
        <time>2021-11-14T19:12:11.608Z</time>
      </trkpt>
      <trkpt lat="47.606236" lon="7.787573">
        <ele>366.591477</ele>
        <time>2021-11-14T19:12:19.044Z</time>
      </trkpt>
      <trkpt lat="47.606482" lon="7.786756">
        <ele>367.871973</ele>
        <time>2021-11-14T19:12:34.905Z</time>
      </trkpt>
      <trkpt lat="47.606894" lon="7.785802">
        <ele>369.493286</ele>
        <time>2021-11-14T19:12:51.122Z</time>
      </trkpt>
      <trkpt lat="47.607090" lon="7.785536">
        <ele>370.057185</ele>
        <time>2021-11-14T19:12:56.551Z</time>
      </trkpt>
      <trkpt lat="47.607244" lon="7.785405">
        <ele>370.383001</ele>
        <time>2021-11-14T19:12:59.741Z</time>
      </trkpt>
      <trkpt lat="47.607357" lon="7.785276">
        <ele>370.618566</ele>
        <time>2021-11-14T19:13:02.694Z</time>
      </trkpt>
      <trkpt lat="47.607784" lon="7.784501">
        <ele>371.733318</ele>
        <time>2021-11-14T19:13:14.220Z</time>
      </trkpt>
      <trkpt lat="47.607811" lon="7.784422">
        <ele>371.831966</ele>
        <time>2021-11-14T19:13:15.527Z</time>
      </trkpt>
      <trkpt lat="47.608000" lon="7.783873">
        <ele>372.518531</ele>
        <time>2021-11-14T19:13:24.279Z</time>
      </trkpt>
      <trkpt lat="47.608067" lon="7.783679">
        <ele>372.761302</ele>
        <time>2021-11-14T19:13:27.924Z</time>
      </trkpt>
      <trkpt lat="47.608293" lon="7.782840">
        <ele>374.946017</ele>
        <time>2021-11-14T19:13:44.738Z</time>
      </trkpt>
      <trkpt lat="47.608319" lon="7.782746">
        <ele>375.284333</ele>
        <time>2021-11-14T19:13:46.932Z</time>
      </trkpt>
      <trkpt lat="47.608448" lon="7.782041">
        <ele>377.716744</ele>
        <time>2021-11-14T19:14:02.847Z</time>
      </trkpt>
      <trkpt lat="47.608437" lon="7.781938">
        <ele>378.063986</ele>
        <time>2021-11-14T19:14:05.222Z</time>
      </trkpt>
      <trkpt lat="47.608309" lon="7.781587">
        <ele>379.392755</ele>
        <time>2021-11-14T19:14:15.134Z</time>
      </trkpt>
      <trkpt lat="47.608295" lon="7.781364">
        <ele>380.138507</ele>
        <time>2021-11-14T19:14:20.682Z</time>
      </trkpt>
      <trkpt lat="47.608399" lon="7.780950">
        <ele>381.609618</ele>
        <time>2021-11-14T19:14:32.706Z</time>
      </trkpt>
      <trkpt lat="47.608573" lon="7.780374">
        <ele>384.698598</ele>
        <time>2021-11-14T19:14:51.897Z</time>
      </trkpt>
      <trkpt lat="47.608894" lon="7.779407">
        <ele>390.431658</ele>
        <time>2021-11-14T19:15:26.511Z</time>
      </trkpt>
      <trkpt lat="47.609368" lon="7.778574">
        <ele>396.229477</ele>
        <time>2021-11-14T19:16:01.954Z</time>
      </trkpt>
      <trkpt lat="47.610133" lon="7.777501">
        <ele>403.944618</ele>
        <time>2021-11-14T19:16:50.815Z</time>
      </trkpt>
      <trkpt lat="47.610341" lon="7.777059">
        <ele>406.607041</ele>
        <time>2021-11-14T19:17:06.563Z</time>
      </trkpt>
      <trkpt lat="47.610448" lon="7.776605">
        <ele>408.982550</ele>
        <time>2021-11-14T19:17:19.775Z</time>
      </trkpt>
      <trkpt lat="47.610502" lon="7.776042">
        <ele>410.801019</ele>
        <time>2021-11-14T19:17:34.486Z</time>
      </trkpt>
      <trkpt lat="47.610473" lon="7.775477">
        <ele>412.427769</ele>
        <time>2021-11-14T19:17:47.936Z</time>
      </trkpt>
      <trkpt lat="47.610312" lon="7.774653">
        <ele>414.890740</ele>
        <time>2021-11-14T19:18:05.172Z</time>
      </trkpt>
      <trkpt lat="47.610139" lon="7.773592">
        <ele>417.637476</ele>
        <time>2021-11-14T19:18:24.369Z</time>
      </trkpt>
      <trkpt lat="47.610132" lon="7.773138">
        <ele>418.403587</ele>
        <time>2021-11-14T19:18:32.119Z</time>
      </trkpt>
      <trkpt lat="47.610187" lon="7.772679">
        <ele>419.190069</ele>
        <time>2021-11-14T19:18:39.815Z</time>
      </trkpt>
      <trkpt lat="47.610258" lon="7.772352">
        <ele>419.769631</ele>
        <time>2021-11-14T19:18:44.892Z</time>
      </trkpt>
      <trkpt lat="47.610490" lon="7.771899">
        <ele>420.729357</ele>
        <time>2021-11-14T19:18:54.006Z</time>
      </trkpt>
      <trkpt lat="47.611349" lon="7.770818">
        <ele>423.897575</ele>
        <time>2021-11-14T19:19:23.011Z</time>
      </trkpt>
      <trkpt lat="47.611495" lon="7.770538">
        <ele>424.601076</ele>
        <time>2021-11-14T19:19:30.303Z</time>
      </trkpt>
      <trkpt lat="47.611735" lon="7.769126">
        <ele>427.488615</ele>
        <time>2021-11-14T19:19:56.306Z</time>
      </trkpt>
      <trkpt lat="47.611843" lon="7.768871">
        <ele>428.080706</ele>
        <time>2021-11-14T19:20:01.865Z</time>
      </trkpt>
      <trkpt lat="47.611960" lon="7.768717">
        <ele>428.536897</ele>
        <time>2021-11-14T19:20:06.092Z</time>
      </trkpt>
      <trkpt lat="47.612502" lon="7.768119">
        <ele>430.506918</ele>
        <time>2021-11-14T19:20:23.525Z</time>
      </trkpt>
      <trkpt lat="47.612771" lon="7.767909">
        <ele>431.393453</ele>
        <time>2021-11-14T19:20:31.560Z</time>
      </trkpt>
      <trkpt lat="47.613003" lon="7.767758">
        <ele>432.132332</ele>
        <time>2021-11-14T19:20:38.353Z</time>
      </trkpt>
      <trkpt lat="47.613205" lon="7.767665">
        <ele>432.848867</ele>
        <time>2021-11-14T19:20:44.369Z</time>
      </trkpt>
      <trkpt lat="47.613763" lon="7.767578">
        <ele>434.750694</ele>
        <time>2021-11-14T19:20:59.367Z</time>
      </trkpt>
      <trkpt lat="47.614123" lon="7.767665">
        <ele>435.987045</ele>
        <time>2021-11-14T19:21:09.963Z</time>
      </trkpt>
      <trkpt lat="47.614663" lon="7.767520">
        <ele>437.847185</ele>
        <time>2021-11-14T19:21:26.886Z</time>
      </trkpt>
      <trkpt lat="47.614847" lon="7.767530">
        <ele>438.414567</ele>
        <time>2021-11-14T19:21:32.060Z</time>
      </trkpt>
      <trkpt lat="47.615034" lon="7.767629">
        <ele>438.928403</ele>
        <time>2021-11-14T19:21:37.810Z</time>
      </trkpt>
      <trkpt lat="47.615686" lon="7.768286">
        <ele>440.968190</ele>
        <time>2021-11-14T19:21:58.963Z</time>
      </trkpt>
      <trkpt lat="47.615847" lon="7.768379">
        <ele>441.415318</ele>
        <time>2021-11-14T19:22:03.001Z</time>
      </trkpt>
      <trkpt lat="47.616270" lon="7.768392">
        <ele>442.510243</ele>
        <time>2021-11-14T19:22:12.464Z</time>
      </trkpt>
      <trkpt lat="47.616428" lon="7.768317">
        <ele>442.911751</ele>
        <time>2021-11-14T19:22:16.267Z</time>
      </trkpt>
      <trkpt lat="47.616591" lon="7.768154">
        <ele>443.155389</ele>
        <time>2021-11-14T19:22:19.912Z</time>
      </trkpt>
      <trkpt lat="47.617229" lon="7.767356">
        <ele>444.189686</ele>
        <time>2021-11-14T19:22:36.122Z</time>
      </trkpt>
      <trkpt lat="47.617431" lon="7.767002">
        <ele>444.577179</ele>
        <time>2021-11-14T19:22:41.917Z</time>
      </trkpt>
      <trkpt lat="47.617587" lon="7.766558">
        <ele>444.995489</ele>
        <time>2021-11-14T19:22:48.264Z</time>
      </trkpt>
      <trkpt lat="47.617756" lon="7.765839">
        <ele>445.574288</ele>
        <time>2021-11-14T19:22:58.535Z</time>
      </trkpt>
      <trkpt lat="47.617927" lon="7.765048">
        <ele>446.191161</ele>
        <time>2021-11-14T19:23:09.951Z</time>
      </trkpt>
      <trkpt lat="47.618136" lon="7.764529">
        <ele>446.640113</ele>
        <time>2021-11-14T19:23:18.346Z</time>
      </trkpt>
      <trkpt lat="47.618356" lon="7.764125">
        <ele>447.025793</ele>
        <time>2021-11-14T19:23:25.078Z</time>
      </trkpt>
      <trkpt lat="47.618514" lon="7.763900">
        <ele>446.876184</ele>
        <time>2021-11-14T19:23:28.804Z</time>
      </trkpt>
      <trkpt lat="47.618753" lon="7.763750">
        <ele>446.505092</ele>
        <time>2021-11-14T19:23:32.737Z</time>
      </trkpt>
      <trkpt lat="47.619022" lon="7.763758">
        <ele>446.120348</ele>
        <time>2021-11-14T19:23:36.194Z</time>
      </trkpt>
      <trkpt lat="47.619329" lon="7.764008">
        <ele>445.619554</ele>
        <time>2021-11-14T19:23:40.244Z</time>
      </trkpt>
      <trkpt lat="47.619502" lon="7.764194">
        <ele>445.314033</ele>
        <time>2021-11-14T19:23:42.559Z</time>
      </trkpt>
      <trkpt lat="47.619627" lon="7.764641">
        <ele>444.847570</ele>
        <time>2021-11-14T19:23:45.978Z</time>
      </trkpt>
      <trkpt lat="47.619705" lon="7.765107">
        <ele>444.134237</ele>
        <time>2021-11-14T19:23:49.264Z</time>
      </trkpt>
      <trkpt lat="47.619832" lon="7.765722">
        <ele>442.406233</ele>
        <time>2021-11-14T19:23:53.539Z</time>
      </trkpt>
      <trkpt lat="47.620092" lon="7.767207">
        <ele>438.284388</ele>
        <time>2021-11-14T19:24:03.472Z</time>
      </trkpt>
      <trkpt lat="47.620307" lon="7.767734">
        <ele>436.717224</ele>
        <time>2021-11-14T19:24:07.493Z</time>
      </trkpt>
      <trkpt lat="47.620543" lon="7.768057">
        <ele>435.592018</ele>
        <time>2021-11-14T19:24:10.663Z</time>
      </trkpt>
      <trkpt lat="47.621839" lon="7.768898">
        <ele>430.795178</ele>
        <time>2021-11-14T19:24:24.876Z</time>
      </trkpt>
      <trkpt lat="47.622371" lon="7.769061">
        <ele>429.621196</ele>
        <time>2021-11-14T19:24:30.635Z</time>
      </trkpt>
      <trkpt lat="47.623349" lon="7.769241">
        <ele>427.491409</ele>
        <time>2021-11-14T19:24:41.432Z</time>
      </trkpt>
      <trkpt lat="47.624248" lon="7.769501">
        <ele>426.302373</ele>
        <time>2021-11-14T19:24:52.520Z</time>
      </trkpt>
      <trkpt lat="47.624611" lon="7.769610">
        <ele>425.884467</ele>
        <time>2021-11-14T19:24:57.128Z</time>
      </trkpt>
      <trkpt lat="47.624769" lon="7.769638">
        <ele>425.704915</ele>
        <time>2021-11-14T19:24:59.197Z</time>
      </trkpt>
      <trkpt lat="47.625096" lon="7.769705">
        <ele>425.332434</ele>
        <time>2021-11-14T19:25:03.215Z</time>
      </trkpt>
      <trkpt lat="47.625380" lon="7.769739">
        <ele>424.937276</ele>
        <time>2021-11-14T19:25:06.639Z</time>
      </trkpt>
      <trkpt lat="47.625663" lon="7.769773">
        <ele>424.428810</ele>
        <time>2021-11-14T19:25:09.950Z</time>
      </trkpt>
      <trkpt lat="47.626274" lon="7.769785">
        <ele>423.334512</ele>
        <time>2021-11-14T19:25:17.153Z</time>
      </trkpt>
      <trkpt lat="47.626675" lon="7.769973">
        <ele>422.581390</ele>
        <time>2021-11-14T19:25:21.803Z</time>
      </trkpt>
      <trkpt lat="47.627069" lon="7.770397">
        <ele>421.657959</ele>
        <time>2021-11-14T19:25:26.788Z</time>
      </trkpt>
      <trkpt lat="47.627589" lon="7.771292">
        <ele>419.872358</ele>
        <time>2021-11-14T19:25:35.065Z</time>
      </trkpt>
      <trkpt lat="47.627790" lon="7.771752">
        <ele>419.043953</ele>
        <time>2021-11-14T19:25:38.976Z</time>
      </trkpt>
      <trkpt lat="47.627843" lon="7.771878">
        <ele>418.819518</ele>
        <time>2021-11-14T19:25:39.995Z</time>
      </trkpt>
      <trkpt lat="47.628071" lon="7.772437">
        <ele>417.886347</ele>
        <time>2021-11-14T19:25:44.897Z</time>
      </trkpt>
      <trkpt lat="47.628459" lon="7.773585">
        <ele>418.033591</ele>
        <time>2021-11-14T19:25:57.680Z</time>
      </trkpt>
      <trkpt lat="47.628757" lon="7.774190">
        <ele>418.119507</ele>
        <time>2021-11-14T19:26:07.571Z</time>
      </trkpt>
      <trkpt lat="47.628835" lon="7.774386">
        <ele>418.145604</ele>
        <time>2021-11-14T19:26:10.176Z</time>
      </trkpt>
      <trkpt lat="47.628913" lon="7.774584">
        <ele>418.171899</ele>
        <time>2021-11-14T19:26:14.066Z</time>
      </trkpt>
      <trkpt lat="47.629477" lon="7.776561">
        <ele>416.704462</ele>
        <time>2021-11-14T19:26:34.871Z</time>
      </trkpt>
      <trkpt lat="47.629739" lon="7.777102">
        <ele>416.210594</ele>
        <time>2021-11-14T19:26:39.328Z</time>
      </trkpt>
      <trkpt lat="47.630120" lon="7.777463">
        <ele>413.771780</ele>
        <time>2021-11-14T19:26:43.641Z</time>
      </trkpt>
      <trkpt lat="47.630423" lon="7.777640">
        <ele>412.013269</ele>
        <time>2021-11-14T19:26:46.672Z</time>
      </trkpt>
      <trkpt lat="47.631619" lon="7.778161">
        <ele>405.101959</ele>
        <time>2021-11-14T19:26:58.071Z</time>
      </trkpt>
      <trkpt lat="47.631946" lon="7.778226">
        <ele>403.056270</ele>
        <time>2021-11-14T19:27:01.077Z</time>
      </trkpt>
      <trkpt lat="47.632866" lon="7.778126">
        <ele>397.336483</ele>
        <time>2021-11-14T19:27:09.507Z</time>
      </trkpt>
      <trkpt lat="47.633379" lon="7.777778">
        <ele>393.798211</ele>
        <time>2021-11-14T19:27:14.661Z</time>
      </trkpt>
      <trkpt lat="47.633928" lon="7.777200">
        <ele>389.511305</ele>
        <time>2021-11-14T19:27:20.799Z</time>
      </trkpt>
      <trkpt lat="47.634334" lon="7.777067">
        <ele>386.863409</ele>
        <time>2021-11-14T19:27:24.565Z</time>
      </trkpt>
      <trkpt lat="47.635865" lon="7.777362">
        <ele>377.524933</ele>
        <time>2021-11-14T19:27:38.625Z</time>
      </trkpt>
      <trkpt lat="47.636624" lon="7.777638">
        <ele>372.912469</ele>
        <time>2021-11-14T19:27:45.936Z</time>
      </trkpt>
      <trkpt lat="47.637701" lon="7.777589">
        <ele>366.653359</ele>
        <time>2021-11-14T19:27:55.933Z</time>
      </trkpt>
      <trkpt lat="47.638130" lon="7.777591">
        <ele>364.161334</ele>
        <time>2021-11-14T19:27:59.827Z</time>
      </trkpt>
      <trkpt lat="47.638523" lon="7.777631">
        <ele>361.997234</ele>
        <time>2021-11-14T19:28:03.417Z</time>
      </trkpt>
      <trkpt lat="47.638601" lon="7.777645">
        <ele>361.601248</ele>
        <time>2021-11-14T19:28:04.126Z</time>
      </trkpt>
      <trkpt lat="47.638857" lon="7.777693">
        <ele>360.300750</ele>
        <time>2021-11-14T19:28:06.520Z</time>
      </trkpt>
      <trkpt lat="47.639092" lon="7.777737">
        <ele>359.106960</ele>
        <time>2021-11-14T19:28:08.714Z</time>
      </trkpt>
      <trkpt lat="47.639551" lon="7.777821">
        <ele>356.776075</ele>
        <time>2021-11-14T19:28:13.019Z</time>
      </trkpt>
      <trkpt lat="47.639581" lon="7.777832">
        <ele>356.620329</ele>
        <time>2021-11-14T19:28:13.305Z</time>
      </trkpt>
      <trkpt lat="47.639647" lon="7.777857">
        <ele>356.277025</ele>
        <time>2021-11-14T19:28:13.946Z</time>
      </trkpt>
      <trkpt lat="47.639952" lon="7.778026">
        <ele>354.636183</ele>
        <time>2021-11-14T19:28:17.081Z</time>
      </trkpt>
      <trkpt lat="47.640214" lon="7.778094">
        <ele>353.631507</ele>
        <time>2021-11-14T19:28:19.748Z</time>
      </trkpt>
      <trkpt lat="47.640603" lon="7.778070">
        <ele>353.132997</ele>
        <time>2021-11-14T19:28:23.829Z</time>
      </trkpt>
      <trkpt lat="47.640774" lon="7.778034">
        <ele>352.911855</ele>
        <time>2021-11-14T19:28:25.777Z</time>
      </trkpt>
      <trkpt lat="47.640847" lon="7.778085">
        <ele>352.808548</ele>
        <time>2021-11-14T19:28:26.708Z</time>
      </trkpt>
      <trkpt lat="47.641101" lon="7.778647">
        <ele>352.224731</ele>
        <time>2021-11-14T19:28:32.739Z</time>
      </trkpt>
      <trkpt lat="47.641206" lon="7.778877">
        <ele>351.985051</ele>
        <time>2021-11-14T19:28:35.429Z</time>
      </trkpt>
      <trkpt lat="47.641301" lon="7.779088">
        <ele>351.766119</ele>
        <time>2021-11-14T19:28:38.060Z</time>
      </trkpt>
      <trkpt lat="47.641383" lon="7.779295">
        <ele>351.558962</ele>
        <time>2021-11-14T19:28:40.469Z</time>
      </trkpt>
      <trkpt lat="47.641504" lon="7.779524">
        <ele>351.461676</ele>
        <time>2021-11-14T19:28:43.530Z</time>
      </trkpt>
      <trkpt lat="47.641685" lon="7.779623">
        <ele>351.496059</ele>
        <time>2021-11-14T19:28:46.442Z</time>
      </trkpt>
      <trkpt lat="47.642281" lon="7.779841">
        <ele>351.605472</ele>
        <time>2021-11-14T19:28:56.308Z</time>
      </trkpt>
      <trkpt lat="47.642518" lon="7.779960">
        <ele>351.650068</ele>
        <time>2021-11-14T19:29:00.370Z</time>
      </trkpt>
      <trkpt lat="47.642942" lon="7.780152">
        <ele>351.729084</ele>
        <time>2021-11-14T19:29:07.193Z</time>
      </trkpt>
      <trkpt lat="47.643119" lon="7.780225">
        <ele>351.761829</ele>
        <time>2021-11-14T19:29:09.927Z</time>
      </trkpt>
      <trkpt lat="47.643396" lon="7.780339">
        <ele>351.741884</ele>
        <time>2021-11-14T19:29:14.223Z</time>
      </trkpt>
      <trkpt lat="47.643746" lon="7.780507">
        <ele>351.713318</ele>
        <time>2021-11-14T19:29:19.633Z</time>
      </trkpt>
      <trkpt lat="47.643785" lon="7.780623">
        <ele>351.706535</ele>
        <time>2021-11-14T19:29:20.865Z</time>
      </trkpt>
      <trkpt lat="47.643778" lon="7.781224">
        <ele>351.675086</ele>
        <time>2021-11-14T19:29:26.591Z</time>
      </trkpt>
      <trkpt lat="47.643834" lon="7.781566">
        <ele>351.656671</ele>
        <time>2021-11-14T19:29:29.948Z</time>
      </trkpt>
      <trkpt lat="47.643928" lon="7.781772">
        <ele>351.643654</ele>
        <time>2021-11-14T19:29:32.290Z</time>
      </trkpt>
      <trkpt lat="47.644146" lon="7.782149">
        <ele>351.627148</ele>
        <time>2021-11-14T19:29:37.106Z</time>
      </trkpt>
      <trkpt lat="47.644444" lon="7.782671">
        <ele>351.646602</ele>
        <time>2021-11-14T19:29:43.948Z</time>
      </trkpt>
      <trkpt lat="47.644569" lon="7.782891">
        <ele>351.654785</ele>
        <time>2021-11-14T19:29:46.793Z</time>
      </trkpt>
      <trkpt lat="47.644732" lon="7.783167">
        <ele>351.665221</ele>
        <time>2021-11-14T19:29:50.507Z</time>
      </trkpt>
      <trkpt lat="47.645408" lon="7.784254">
        <ele>351.756913</ele>
        <time>2021-11-14T19:30:05.801Z</time>
      </trkpt>
      <trkpt lat="47.645495" lon="7.784387">
        <ele>351.796758</ele>
        <time>2021-11-14T19:30:07.730Z</time>
      </trkpt>
      <trkpt lat="47.645924" lon="7.785043">
        <ele>351.993256</ele>
        <time>2021-11-14T19:30:17.647Z</time>
      </trkpt>
      <trkpt lat="47.646218" lon="7.785414">
        <ele>352.116366</ele>
        <time>2021-11-14T19:30:23.881Z</time>
      </trkpt>
      <trkpt lat="47.646561" lon="7.785746">
        <ele>352.247003</ele>
        <time>2021-11-14T19:30:30.585Z</time>
      </trkpt>
      <trkpt lat="47.647121" lon="7.786115">
        <ele>352.661341</ele>
        <time>2021-11-14T19:30:40.916Z</time>
      </trkpt>
      <trkpt lat="47.647217" lon="7.786135">
        <ele>352.732336</ele>
        <time>2021-11-14T19:30:42.824Z</time>
      </trkpt>
      <trkpt lat="47.647216" lon="7.786198">
        <ele>352.763428</ele>
        <time>2021-11-14T19:30:43.539Z</time>
      </trkpt>
      <trkpt lat="47.647326" lon="7.786370">
        <ele>352.880437</ele>
        <time>2021-11-14T19:30:46.315Z</time>
      </trkpt>
      <trkpt lat="47.647369" lon="7.786370">
        <ele>352.911928</ele>
        <time>2021-11-14T19:30:47.100Z</time>
      </trkpt>
      <trkpt lat="47.647379" lon="7.786512">
        <ele>352.982370</ele>
        <time>2021-11-14T19:30:49.177Z</time>
      </trkpt>
      <trkpt lat="47.647413" lon="7.786947">
        <ele>353.198430</ele>
        <time>2021-11-14T19:30:54.361Z</time>
      </trkpt>
      <trkpt lat="47.647437" lon="7.787254">
        <ele>353.350914</ele>
        <time>2021-11-14T19:30:58.067Z</time>
      </trkpt>
      <trkpt lat="47.647501" lon="7.788090">
        <ele>353.770300</ele>
        <time>2021-11-14T19:31:08.240Z</time>
      </trkpt>
      <trkpt lat="47.647498" lon="7.788274">
        <ele>353.863319</ele>
        <time>2021-11-14T19:31:10.403Z</time>
      </trkpt>
      <trkpt lat="47.647488" lon="7.788411">
        <ele>353.932963</ele>
        <time>2021-11-14T19:31:11.946Z</time>
      </trkpt>
      <trkpt lat="47.647471" lon="7.788455">
        <ele>353.958598</ele>
        <time>2021-11-14T19:31:12.604Z</time>
      </trkpt>
      <trkpt lat="47.647432" lon="7.788504">
        <ele>353.996928</ele>
        <time>2021-11-14T19:31:13.552Z</time>
      </trkpt>
      <trkpt lat="47.647405" lon="7.788568">
        <ele>354.035092</ele>
        <time>2021-11-14T19:31:14.710Z</time>
      </trkpt>
      <trkpt lat="47.647398" lon="7.788718">
        <ele>354.111082</ele>
        <time>2021-11-14T19:31:16.519Z</time>
      </trkpt>
      <trkpt lat="47.647419" lon="7.788788">
        <ele>354.149809</ele>
        <time>2021-11-14T19:31:17.507Z</time>
      </trkpt>
      <trkpt lat="47.647454" lon="7.788845">
        <ele>354.188786</ele>
        <time>2021-11-14T19:31:18.350Z</time>
      </trkpt>
      <trkpt lat="47.647500" lon="7.788882">
        <ele>354.228036</ele>
        <time>2021-11-14T19:31:19.356Z</time>
      </trkpt>
      <trkpt lat="47.647551" lon="7.788896">
        <ele>354.266944</ele>
        <time>2021-11-14T19:31:20.244Z</time>
      </trkpt>
      <trkpt lat="47.647612" lon="7.788984">
        <ele>354.330756</ele>
        <time>2021-11-14T19:31:21.832Z</time>
      </trkpt>
      <trkpt lat="47.647624" lon="7.789001">
        <ele>354.343200</ele>
        <time>2021-11-14T19:31:22.051Z</time>
      </trkpt>
      <trkpt lat="47.647704" lon="7.789138">
        <ele>354.434828</ele>
        <time>2021-11-14T19:31:24.330Z</time>
      </trkpt>
      <trkpt lat="47.647772" lon="7.789319">
        <ele>354.539566</ele>
        <time>2021-11-14T19:31:26.836Z</time>
      </trkpt>
      <trkpt lat="47.647846" lon="7.789831">
        <ele>354.804212</ele>
        <time>2021-11-14T19:31:33.090Z</time>
      </trkpt>
      <trkpt lat="47.647864" lon="7.790654">
        <ele>355.049425</ele>
        <time>2021-11-14T19:31:42.492Z</time>
      </trkpt>
      <trkpt lat="47.647873" lon="7.791582">
        <ele>355.232403</ele>
        <time>2021-11-14T19:31:52.607Z</time>
      </trkpt>
      <trkpt lat="47.647903" lon="7.793030">
        <ele>355.484551</ele>
        <time>2021-11-14T19:32:07.794Z</time>
      </trkpt>
      <trkpt lat="47.647916" lon="7.793798">
        <ele>355.537696</ele>
        <time>2021-11-14T19:32:15.363Z</time>
      </trkpt>
      <trkpt lat="47.647936" lon="7.794393">
        <ele>355.578907</ele>
        <time>2021-11-14T19:32:21.125Z</time>
      </trkpt>
      <trkpt lat="47.647966" lon="7.794923">
        <ele>355.615700</ele>
        <time>2021-11-14T19:32:26.570Z</time>
      </trkpt>
      <trkpt lat="47.647978" lon="7.795111">
        <ele>355.628763</ele>
        <time>2021-11-14T19:32:28.607Z</time>
      </trkpt>
      <trkpt lat="47.648078" lon="7.795921">
        <ele>355.884987</ele>
        <time>2021-11-14T19:32:37.620Z</time>
      </trkpt>
      <trkpt lat="47.648174" lon="7.796377">
        <ele>356.108492</ele>
        <time>2021-11-14T19:32:43.026Z</time>
      </trkpt>
      <trkpt lat="47.648315" lon="7.796884">
        <ele>356.365098</ele>
        <time>2021-11-14T19:32:49.686Z</time>
      </trkpt>
      <trkpt lat="47.648466" lon="7.797372">
        <ele>356.616329</ele>
        <time>2021-11-14T19:32:56.394Z</time>
      </trkpt>
      <trkpt lat="47.648660" lon="7.798005">
        <ele>356.912559</ele>
        <time>2021-11-14T19:33:05.325Z</time>
      </trkpt>
      <trkpt lat="47.648795" lon="7.798707">
        <ele>357.014329</ele>
        <time>2021-11-14T19:33:14.298Z</time>
      </trkpt>
      <trkpt lat="47.648796" lon="7.798736">
        <ele>357.018377</ele>
        <time>2021-11-14T19:33:14.703Z</time>
      </trkpt>
      <trkpt lat="47.648812" lon="7.799448">
        <ele>357.117686</ele>
        <time>2021-11-14T19:33:22.196Z</time>
      </trkpt>
      <trkpt lat="47.648778" lon="7.799781">
        <ele>357.164638</ele>
        <time>2021-11-14T19:33:25.436Z</time>
      </trkpt>
      <trkpt lat="47.648762" lon="7.799984">
        <ele>357.193129</ele>
        <time>2021-11-14T19:33:27.295Z</time>
      </trkpt>
      <trkpt lat="47.648758" lon="7.800042">
        <ele>357.201257</ele>
        <time>2021-11-14T19:33:27.823Z</time>
      </trkpt>
      <trkpt lat="47.648756" lon="7.800183">
        <ele>357.220917</ele>
        <time>2021-11-14T19:33:29.095Z</time>
      </trkpt>
      <trkpt lat="47.648756" lon="7.800267">
        <ele>357.232627</ele>
        <time>2021-11-14T19:33:29.884Z</time>
      </trkpt>
      <trkpt lat="47.648750" lon="7.800358">
        <ele>357.245373</ele>
        <time>2021-11-14T19:33:30.760Z</time>
      </trkpt>
      <trkpt lat="47.648725" lon="7.800411">
        <ele>357.254392</ele>
        <time>2021-11-14T19:33:31.320Z</time>
      </trkpt>
      <trkpt lat="47.648716" lon="7.800474">
        <ele>357.263370</ele>
        <time>2021-11-14T19:33:31.880Z</time>
      </trkpt>
      <trkpt lat="47.648718" lon="7.800486">
        <ele>357.265093</ele>
        <time>2021-11-14T19:33:31.985Z</time>
      </trkpt>
      <trkpt lat="47.648722" lon="7.800528">
        <ele>357.271006</ele>
        <time>2021-11-14T19:33:32.362Z</time>
      </trkpt>
      <trkpt lat="47.648751" lon="7.800596">
        <ele>357.262505</ele>
        <time>2021-11-14T19:33:33.064Z</time>
      </trkpt>
      <trkpt lat="47.648773" lon="7.800620">
        <ele>357.256821</ele>
        <time>2021-11-14T19:33:33.412Z</time>
      </trkpt>
      <trkpt lat="47.648813" lon="7.800640">
        <ele>357.248035</ele>
        <time>2021-11-14T19:33:33.982Z</time>
      </trkpt>
      <trkpt lat="47.648842" lon="7.800639">
        <ele>357.241997</ele>
        <time>2021-11-14T19:33:34.372Z</time>
      </trkpt>
      <trkpt lat="47.648906" lon="7.800592">
        <ele>357.227133</ele>
        <time>2021-11-14T19:33:35.411Z</time>
      </trkpt>
      <trkpt lat="47.648922" lon="7.800561">
        <ele>357.221657</ele>
        <time>2021-11-14T19:33:35.740Z</time>
      </trkpt>
      <trkpt lat="47.649025" lon="7.800505">
        <ele>357.198823</ele>
        <time>2021-11-14T19:33:37.148Z</time>
      </trkpt>
      <trkpt lat="47.649108" lon="7.800464">
        <ele>357.180614</ele>
        <time>2021-11-14T19:33:38.253Z</time>
      </trkpt>
      <trkpt lat="47.649238" lon="7.800402">
        <ele>357.152191</ele>
        <time>2021-11-14T19:33:40.106Z</time>
      </trkpt>
      <trkpt lat="47.649415" lon="7.800336">
        <ele>357.114202</ele>
        <time>2021-11-14T19:33:42.413Z</time>
      </trkpt>
      <trkpt lat="47.649440" lon="7.800327">
        <ele>357.108847</ele>
        <time>2021-11-14T19:33:42.721Z</time>
      </trkpt>
      <trkpt lat="47.649707" lon="7.800227">
        <ele>357.051526</ele>
        <time>2021-11-14T19:33:46.363Z</time>
      </trkpt>
      <trkpt lat="47.650046" lon="7.800072">
        <ele>356.977687</ele>
        <time>2021-11-14T19:33:51.392Z</time>
      </trkpt>
      <trkpt lat="47.650174" lon="7.800012">
        <ele>356.949746</ele>
        <time>2021-11-14T19:33:53.680Z</time>
      </trkpt>
      <trkpt lat="47.650489" lon="7.799868">
        <ele>356.950260</ele>
        <time>2021-11-14T19:33:59.100Z</time>
      </trkpt>
      <trkpt lat="47.650602" lon="7.799816">
        <ele>357.026660</ele>
        <time>2021-11-14T19:34:01.040Z</time>
      </trkpt>
      <trkpt lat="47.650784" lon="7.799732">
        <ele>357.149744</ele>
        <time>2021-11-14T19:34:04.536Z</time>
      </trkpt>
      <trkpt lat="47.650980" lon="7.799643">
        <ele>357.282109</ele>
        <time>2021-11-14T19:34:08.276Z</time>
      </trkpt>
      <trkpt lat="47.651021" lon="7.799621">
        <ele>357.310263</ele>
        <time>2021-11-14T19:34:09.038Z</time>
      </trkpt>
      <trkpt lat="47.651021" lon="7.799621">
        <ele>357.310263</ele>
        <time>2021-11-14T19:34:09.038Z</time>
      </trkpt>
      <trkpt lat="47.651225" lon="7.799526">
        <ele>357.448335</ele>
        <time>2021-11-14T19:34:13.166Z</time>
      </trkpt>
      <trkpt lat="47.651401" lon="7.799445">
        <ele>357.567331</ele>
        <time>2021-11-14T19:34:16.368Z</time>
      </trkpt>
      <trkpt lat="47.651510" lon="7.799390">
        <ele>357.641678</ele>
        <time>2021-11-14T19:34:19.474Z</time>
      </trkpt>
      <trkpt lat="47.651610" lon="7.799288">
        <ele>357.720032</ele>
        <time>2021-11-14T19:34:21.827Z</time>
      </trkpt>
      <trkpt lat="47.651827" lon="7.799068">
        <ele>357.889732</ele>
        <time>2021-11-14T19:34:28.254Z</time>
      </trkpt>
      <trkpt lat="47.652373" lon="7.798474">
        <ele>357.990032</ele>
        <time>2021-11-14T19:34:42.822Z</time>
      </trkpt>
      <trkpt lat="47.652486" lon="7.798377">
        <ele>357.968117</ele>
        <time>2021-11-14T19:34:45.178Z</time>
      </trkpt>
      <trkpt lat="47.652785" lon="7.798170">
        <ele>357.912728</ele>
        <time>2021-11-14T19:34:52.062Z</time>
      </trkpt>
      <trkpt lat="47.652811" lon="7.798152">
        <ele>357.907911</ele>
        <time>2021-11-14T19:34:52.520Z</time>
      </trkpt>
      <trkpt lat="47.653088" lon="7.798043">
        <ele>357.859800</ele>
        <time>2021-11-14T19:34:58.001Z</time>
      </trkpt>
      <trkpt lat="47.653274" lon="7.797996">
        <ele>357.828123</ele>
        <time>2021-11-14T19:35:01.306Z</time>
      </trkpt>
      <trkpt lat="47.653601" lon="7.798001">
        <ele>357.773221</ele>
        <time>2021-11-14T19:35:07.321Z</time>
      </trkpt>
      <trkpt lat="47.653659" lon="7.798008">
        <ele>357.763451</ele>
        <time>2021-11-14T19:35:08.460Z</time>
      </trkpt>
      <trkpt lat="47.653906" lon="7.798052">
        <ele>357.756497</ele>
        <time>2021-11-14T19:35:12.936Z</time>
      </trkpt>
      <trkpt lat="47.654555" lon="7.798218">
        <ele>357.753213</ele>
        <time>2021-11-14T19:35:25.928Z</time>
      </trkpt>
      <trkpt lat="47.654972" lon="7.798325">
        <ele>357.751103</ele>
        <time>2021-11-14T19:35:34.727Z</time>
      </trkpt>
      <trkpt lat="47.655261" lon="7.798389">
        <ele>357.749646</ele>
        <time>2021-11-14T19:35:41.115Z</time>
      </trkpt>
      <trkpt lat="47.655461" lon="7.798439">
        <ele>357.748634</ele>
        <time>2021-11-14T19:35:45.591Z</time>
      </trkpt>
      <trkpt lat="47.656074" lon="7.798592">
        <ele>358.061749</ele>
        <time>2021-11-14T19:35:59.329Z</time>
      </trkpt>
      <trkpt lat="47.656097" lon="7.798598">
        <ele>358.073671</ele>
        <time>2021-11-14T19:35:59.868Z</time>
      </trkpt>
      <trkpt lat="47.656579" lon="7.798702">
        <ele>358.322322</ele>
        <time>2021-11-14T19:36:10.749Z</time>
      </trkpt>
      <trkpt lat="47.656780" lon="7.798744">
        <ele>358.425945</ele>
        <time>2021-11-14T19:36:15.282Z</time>
      </trkpt>
      <trkpt lat="47.656989" lon="7.798756">
        <ele>358.532721</ele>
        <time>2021-11-14T19:36:19.930Z</time>
      </trkpt>
      <trkpt lat="47.657806" lon="7.798860">
        <ele>358.940543</ele>
        <time>2021-11-14T19:36:38.307Z</time>
      </trkpt>
      <trkpt lat="47.658094" lon="7.798895">
        <ele>359.082464</ele>
        <time>2021-11-14T19:36:44.627Z</time>
      </trkpt>
      <trkpt lat="47.658412" lon="7.798888">
        <ele>359.238664</ele>
        <time>2021-11-14T19:36:51.560Z</time>
      </trkpt>
      <trkpt lat="47.658617" lon="7.798885">
        <ele>359.339353</ele>
        <time>2021-11-14T19:36:56.200Z</time>
      </trkpt>
      <trkpt lat="47.658702" lon="7.798884">
        <ele>359.381101</ele>
        <time>2021-11-14T19:36:58.080Z</time>
      </trkpt>
      <trkpt lat="47.658990" lon="7.798898">
        <ele>359.522625</ele>
        <time>2021-11-14T19:37:04.542Z</time>
      </trkpt>
      <trkpt lat="47.659142" lon="7.798947">
        <ele>359.598197</ele>
        <time>2021-11-14T19:37:07.942Z</time>
      </trkpt>
      <trkpt lat="47.659353" lon="7.799038">
        <ele>359.704296</ele>
        <time>2021-11-14T19:37:12.876Z</time>
      </trkpt>
      <trkpt lat="47.659617" lon="7.799151">
        <ele>359.836967</ele>
        <time>2021-11-14T19:37:18.945Z</time>
      </trkpt>
      <trkpt lat="47.659695" lon="7.799185">
        <ele>359.876222</ele>
        <time>2021-11-14T19:37:20.767Z</time>
      </trkpt>
      <trkpt lat="47.659866" lon="7.799258">
        <ele>359.962139</ele>
        <time>2021-11-14T19:37:24.762Z</time>
      </trkpt>
      <trkpt lat="47.660413" lon="7.799490">
        <ele>360.236839</ele>
        <time>2021-11-14T19:37:37.182Z</time>
      </trkpt>
      <trkpt lat="47.660755" lon="7.799654">
        <ele>360.410383</ele>
        <time>2021-11-14T19:37:45.026Z</time>
      </trkpt>
      <trkpt lat="47.660793" lon="7.799673">
        <ele>360.434465</ele>
        <time>2021-11-14T19:37:45.942Z</time>
      </trkpt>
      <trkpt lat="47.661187" lon="7.799870">
        <ele>360.721235</ele>
        <time>2021-11-14T19:37:55.249Z</time>
      </trkpt>
      <trkpt lat="47.661224" lon="7.799885">
        <ele>360.747691</ele>
        <time>2021-11-14T19:37:56.210Z</time>
      </trkpt>
      <trkpt lat="47.661603" lon="7.800090">
        <ele>361.025924</ele>
        <time>2021-11-14T19:38:05.464Z</time>
      </trkpt>
      <trkpt lat="47.662007" lon="7.800299">
        <ele>361.321025</ele>
        <time>2021-11-14T19:38:15.249Z</time>
      </trkpt>
      <trkpt lat="47.662416" lon="7.800534">
        <ele>361.623532</ele>
        <time>2021-11-14T19:38:25.866Z</time>
      </trkpt>
      <trkpt lat="47.663470" lon="7.800659">
        <ele>362.252114</ele>
        <time>2021-11-14T19:38:50.058Z</time>
      </trkpt>
      <trkpt lat="47.663623" lon="7.800669">
        <ele>362.342403</ele>
        <time>2021-11-14T19:38:53.643Z</time>
      </trkpt>
      <trkpt lat="47.663648" lon="7.800671">
        <ele>362.357164</ele>
        <time>2021-11-14T19:38:54.198Z</time>
      </trkpt>
      <trkpt lat="47.663842" lon="7.800716">
        <ele>362.472925</ele>
        <time>2021-11-14T19:38:58.449Z</time>
      </trkpt>
      <trkpt lat="47.664106" lon="7.800746">
        <ele>362.629023</ele>
        <time>2021-11-14T19:39:04.261Z</time>
      </trkpt>
      <trkpt lat="47.664689" lon="7.800933">
        <ele>362.760240</ele>
        <time>2021-11-14T19:39:17.105Z</time>
      </trkpt>
      <trkpt lat="47.664798" lon="7.800967">
        <ele>362.770421</ele>
        <time>2021-11-14T19:39:19.384Z</time>
      </trkpt>
      <trkpt lat="47.664905" lon="7.801009">
        <ele>362.780537</ele>
        <time>2021-11-14T19:39:21.052Z</time>
      </trkpt>
      <trkpt lat="47.664978" lon="7.801054">
        <ele>362.787761</ele>
        <time>2021-11-14T19:39:22.367Z</time>
      </trkpt>
      <trkpt lat="47.665172" lon="7.801118">
        <ele>362.805926</ele>
        <time>2021-11-14T19:39:25.393Z</time>
      </trkpt>
      <trkpt lat="47.665245" lon="7.801124">
        <ele>362.812609</ele>
        <time>2021-11-14T19:39:26.456Z</time>
      </trkpt>
      <trkpt lat="47.665316" lon="7.801149">
        <ele>362.819279</ele>
        <time>2021-11-14T19:39:27.484Z</time>
      </trkpt>
      <trkpt lat="47.665387" lon="7.801168">
        <ele>362.825873</ele>
        <time>2021-11-14T19:39:28.491Z</time>
      </trkpt>
      <trkpt lat="47.665445" lon="7.801185">
        <ele>362.831277</ele>
        <time>2021-11-14T19:39:29.319Z</time>
      </trkpt>
      <trkpt lat="47.665568" lon="7.801222">
        <ele>362.842748</ele>
        <time>2021-11-14T19:39:31.047Z</time>
      </trkpt>
      <trkpt lat="47.665926" lon="7.801299">
        <ele>362.875812</ele>
        <time>2021-11-14T19:39:36.213Z</time>
      </trkpt>
      <trkpt lat="47.667243" lon="7.801551">
        <ele>363.032220</ele>
        <time>2021-11-14T19:39:56.458Z</time>
      </trkpt>
      <trkpt lat="47.667457" lon="7.801591">
        <ele>363.058047</ele>
        <time>2021-11-14T19:39:59.807Z</time>
      </trkpt>
      <trkpt lat="47.667683" lon="7.801634">
        <ele>363.085331</ele>
        <time>2021-11-14T19:40:03.417Z</time>
      </trkpt>
      <trkpt lat="47.668510" lon="7.801819">
        <ele>363.390493</ele>
        <time>2021-11-14T19:40:16.720Z</time>
      </trkpt>
      <trkpt lat="47.669789" lon="7.802222">
        <ele>363.968838</ele>
        <time>2021-11-14T19:40:38.663Z</time>
      </trkpt>
      <trkpt lat="47.670454" lon="7.802523">
        <ele>364.398648</ele>
        <time>2021-11-14T19:40:50.758Z</time>
      </trkpt>
      <trkpt lat="47.671700" lon="7.803208">
        <ele>365.252509</ele>
        <time>2021-11-14T19:41:13.989Z</time>
      </trkpt>
      <trkpt lat="47.671719" lon="7.803219">
        <ele>365.266581</ele>
        <time>2021-11-14T19:41:14.539Z</time>
      </trkpt>
      <trkpt lat="47.672584" lon="7.803691">
        <ele>365.902530</ele>
        <time>2021-11-14T19:41:29.756Z</time>
      </trkpt>
      <trkpt lat="47.672895" lon="7.803860">
        <ele>366.131065</ele>
        <time>2021-11-14T19:41:35.875Z</time>
      </trkpt>
      <trkpt lat="47.672961" lon="7.803675">
        <ele>366.286914</ele>
        <time>2021-11-14T19:41:38.376Z</time>
      </trkpt>
      <trkpt lat="47.673185" lon="7.803242">
        <ele>366.862871</ele>
        <time>2021-11-14T19:41:45.864Z</time>
      </trkpt>
      <trkpt lat="47.673416" lon="7.802881">
        <ele>367.388166</ele>
        <time>2021-11-14T19:41:52.963Z</time>
      </trkpt>
      <trkpt lat="47.673666" lon="7.802454">
        <ele>367.985011</ele>
        <time>2021-11-14T19:42:01.259Z</time>
      </trkpt>
      <trkpt lat="47.673827" lon="7.802204">
        <ele>368.349898</ele>
        <time>2021-11-14T19:42:06.440Z</time>
      </trkpt>
      <trkpt lat="47.673974" lon="7.801975">
        <ele>368.683619</ele>
        <time>2021-11-14T19:42:11.061Z</time>
      </trkpt>
      <trkpt lat="47.674327" lon="7.801371">
        <ele>369.639626</ele>
        <time>2021-11-14T19:42:23.126Z</time>
      </trkpt>
      <trkpt lat="47.674474" lon="7.801183">
        <ele>370.008280</ele>
        <time>2021-11-14T19:42:27.687Z</time>
      </trkpt>
      <trkpt lat="47.674792" lon="7.800871">
        <ele>370.732551</ele>
        <time>2021-11-14T19:42:36.445Z</time>
      </trkpt>
      <trkpt lat="47.675532" lon="7.800539">
        <ele>372.201564</ele>
        <time>2021-11-14T19:42:53.869Z</time>
      </trkpt>
      <trkpt lat="47.675630" lon="7.800465">
        <ele>372.410486</ele>
        <time>2021-11-14T19:42:56.534Z</time>
      </trkpt>
      <trkpt lat="47.675794" lon="7.800362">
        <ele>372.653438</ele>
        <time>2021-11-14T19:43:17.103Z</time>
      </trkpt>
      <trkpt lat="47.675950" lon="7.800234">
        <ele>372.894504</ele>
        <time>2021-11-14T19:43:38.113Z</time>
      </trkpt>
      <trkpt lat="47.675978" lon="7.800212">
        <ele>372.937350</ele>
        <time>2021-11-14T19:43:41.755Z</time>
      </trkpt>
      <trkpt lat="47.676167" lon="7.800066">
        <ele>373.225503</ele>
        <time>2021-11-14T19:44:06.066Z</time>
      </trkpt>
      <trkpt lat="47.676231" lon="7.800074">
        <ele>373.312376</ele>
        <time>2021-11-14T19:44:14.023Z</time>
      </trkpt>
      <trkpt lat="47.678027" lon="7.799442">
        <ele>375.465211</ele>
        <time>2021-11-14T19:47:48.185Z</time>
      </trkpt>
      <trkpt lat="47.679151" lon="7.799219">
        <ele>376.418075</ele>
        <time>2021-11-14T19:49:57.468Z</time>
      </trkpt>
      <trkpt lat="47.679352" lon="7.799059">
        <ele>376.455304</ele>
        <time>2021-11-14T19:50:23.312Z</time>
      </trkpt>
      <trkpt lat="47.679706" lon="7.798620">
        <ele>376.530590</ele>
        <time>2021-11-14T19:51:15.349Z</time>
      </trkpt>
      <trkpt lat="47.680009" lon="7.798422">
        <ele>376.584630</ele>
        <time>2021-11-14T19:51:52.386Z</time>
      </trkpt>
      <trkpt lat="47.681013" lon="7.798798">
        <ele>376.641113</ele>
        <time>2021-11-14T19:53:46.952Z</time>
      </trkpt>
      <trkpt lat="47.681280" lon="7.798801">
        <ele>376.584805</ele>
        <time>2021-11-14T19:54:16.232Z</time>
      </trkpt>
      <trkpt lat="47.682090" lon="7.798811">
        <ele>376.413981</ele>
        <time>2021-11-14T19:55:45.432Z</time>
      </trkpt>
      <trkpt lat="47.682143" lon="7.798819">
        <ele>376.402746</ele>
        <time>2021-11-14T19:55:51.134Z</time>
      </trkpt>
      <trkpt lat="47.682432" lon="7.798569">
        <ele>376.332217</ele>
        <time>2021-11-14T19:56:28.020Z</time>
      </trkpt>
      <trkpt lat="47.683513" lon="7.798053">
        <ele>376.796663</ele>
        <time>2021-11-14T19:58:34.735Z</time>
      </trkpt>
      <trkpt lat="47.683994" lon="7.798044">
        <ele>377.002375</ele>
        <time>2021-11-14T19:59:30.049Z</time>
      </trkpt>
      <trkpt lat="47.684400" lon="7.797862">
        <ele>377.346128</ele>
        <time>2021-11-14T20:00:19.095Z</time>
      </trkpt>
      <trkpt lat="47.684465" lon="7.797824">
        <ele>377.430315</ele>
        <time>2021-11-14T20:00:27.242Z</time>
      </trkpt>
      <trkpt lat="47.684548" lon="7.797775">
        <ele>377.537958</ele>
        <time>2021-11-14T20:00:37.691Z</time>
      </trkpt>
      <trkpt lat="47.684907" lon="7.797433">
        <ele>378.051960</ele>
        <time>2021-11-14T20:01:26.850Z</time>
      </trkpt>
      <trkpt lat="47.684934" lon="7.797356">
        <ele>378.122400</ele>
        <time>2021-11-14T20:01:33.785Z</time>
      </trkpt>
      <trkpt lat="47.685144" lon="7.797223">
        <ele>378.397537</ele>
        <time>2021-11-14T20:01:39.500Z</time>
      </trkpt>
      <trkpt lat="47.685475" lon="7.797037">
        <ele>378.824049</ele>
        <time>2021-11-14T20:01:48.280Z</time>
      </trkpt>
      <trkpt lat="47.685759" lon="7.796930">
        <ele>379.177164</ele>
        <time>2021-11-14T20:01:55.650Z</time>
      </trkpt>
      <trkpt lat="47.686089" lon="7.796835">
        <ele>379.692600</ele>
        <time>2021-11-14T20:02:04.437Z</time>
      </trkpt>
      <trkpt lat="47.686357" lon="7.796753">
        <ele>380.136015</ele>
        <time>2021-11-14T20:02:12.056Z</time>
      </trkpt>
      <trkpt lat="47.686604" lon="7.796684">
        <ele>380.543298</ele>
        <time>2021-11-14T20:02:18.471Z</time>
      </trkpt>
      <trkpt lat="47.686833" lon="7.796632">
        <ele>380.918707</ele>
        <time>2021-11-14T20:02:24.677Z</time>
      </trkpt>
      <trkpt lat="47.687014" lon="7.796595">
        <ele>381.214784</ele>
        <time>2021-11-14T20:02:29.935Z</time>
      </trkpt>
      <trkpt lat="47.687125" lon="7.796572">
        <ele>381.396403</ele>
        <time>2021-11-14T20:02:32.915Z</time>
      </trkpt>
      <trkpt lat="47.687299" lon="7.796542">
        <ele>381.680265</ele>
        <time>2021-11-14T20:02:37.371Z</time>
      </trkpt>
      <trkpt lat="47.687343" lon="7.796539">
        <ele>381.751643</ele>
        <time>2021-11-14T20:02:38.691Z</time>
      </trkpt>
      <trkpt lat="47.687384" lon="7.796535">
        <ele>381.818227</ele>
        <time>2021-11-14T20:02:40.046Z</time>
      </trkpt>
      <trkpt lat="47.687595" lon="7.796515">
        <ele>382.160851</ele>
        <time>2021-11-14T20:02:45.274Z</time>
      </trkpt>
      <trkpt lat="47.687607" lon="7.796514">
        <ele>382.180637</ele>
        <time>2021-11-14T20:02:45.609Z</time>
      </trkpt>
      <trkpt lat="47.687671" lon="7.796516">
        <ele>382.293671</ele>
        <time>2021-11-14T20:02:47.391Z</time>
      </trkpt>
      <trkpt lat="47.687769" lon="7.796519">
        <ele>382.466752</ele>
        <time>2021-11-14T20:02:50.505Z</time>
      </trkpt>
      <trkpt lat="47.688322" lon="7.796634">
        <ele>383.452739</ele>
        <time>2021-11-14T20:03:05.528Z</time>
      </trkpt>
      <trkpt lat="47.688430" lon="7.796592">
        <ele>383.649867</ele>
        <time>2021-11-14T20:03:08.978Z</time>
      </trkpt>
      <trkpt lat="47.688376" lon="7.796471">
        <ele>383.822429</ele>
        <time>2021-11-14T20:03:11.205Z</time>
      </trkpt>
      <trkpt lat="47.688243" lon="7.796236">
        <ele>384.187366</ele>
        <time>2021-11-14T20:03:15.606Z</time>
      </trkpt>
      <trkpt lat="47.688225" lon="7.796220">
        <ele>384.224405</ele>
        <time>2021-11-14T20:03:16.158Z</time>
      </trkpt>
      <trkpt lat="47.688100" lon="7.796113">
        <ele>384.479147</ele>
        <time>2021-11-14T20:03:19.579Z</time>
      </trkpt>
      <trkpt lat="47.687750" lon="7.795967">
        <ele>385.121067</ele>
        <time>2021-11-14T20:03:27.415Z</time>
      </trkpt>
      <trkpt lat="47.687733" lon="7.795960">
        <ele>385.152217</ele>
        <time>2021-11-14T20:03:27.869Z</time>
      </trkpt>
      <trkpt lat="47.687589" lon="7.795875">
        <ele>385.413382</ele>
        <time>2021-11-14T20:03:30.801Z</time>
      </trkpt>
      <trkpt lat="47.687244" lon="7.795566">
        <ele>386.003448</ele>
        <time>2021-11-14T20:03:39.026Z</time>
      </trkpt>
      <trkpt lat="47.686773" lon="7.795244">
        <ele>386.762876</ele>
        <time>2021-11-14T20:03:49.160Z</time>
      </trkpt>
      <trkpt lat="47.686447" lon="7.795085">
        <ele>387.265448</ele>
        <time>2021-11-14T20:03:55.833Z</time>
      </trkpt>
      <trkpt lat="47.685757" lon="7.794995">
        <ele>388.452677</ele>
        <time>2021-11-14T20:04:10.788Z</time>
      </trkpt>
      <trkpt lat="47.685630" lon="7.794901">
        <ele>388.783146</ele>
        <time>2021-11-14T20:04:14.271Z</time>
      </trkpt>
      <trkpt lat="47.685562" lon="7.794813">
        <ele>388.993191</ele>
        <time>2021-11-14T20:04:16.400Z</time>
      </trkpt>
      <trkpt lat="47.685487" lon="7.794521">
        <ele>389.483206</ele>
        <time>2021-11-14T20:04:21.631Z</time>
      </trkpt>
      <trkpt lat="47.685483" lon="7.793624">
        <ele>390.889635</ele>
        <time>2021-11-14T20:04:36.643Z</time>
      </trkpt>
      <trkpt lat="47.685522" lon="7.793290">
        <ele>391.421129</ele>
        <time>2021-11-14T20:04:42.434Z</time>
      </trkpt>
      <trkpt lat="47.685569" lon="7.792956">
        <ele>391.956123</ele>
        <time>2021-11-14T20:04:48.152Z</time>
      </trkpt>
      <trkpt lat="47.685693" lon="7.792135">
        <ele>393.194324</ele>
        <time>2021-11-14T20:05:01.969Z</time>
      </trkpt>
      <trkpt lat="47.685714" lon="7.791960">
        <ele>393.452478</ele>
        <time>2021-11-14T20:05:04.980Z</time>
      </trkpt>
      <trkpt lat="47.685709" lon="7.791561">
        <ele>394.032036</ele>
        <time>2021-11-14T20:05:11.412Z</time>
      </trkpt>
      <trkpt lat="47.685466" lon="7.790442">
        <ele>395.739595</ele>
        <time>2021-11-14T20:05:29.771Z</time>
      </trkpt>
      <trkpt lat="47.685435" lon="7.790058">
        <ele>396.280940</ele>
        <time>2021-11-14T20:05:35.247Z</time>
      </trkpt>
      <trkpt lat="47.685451" lon="7.789951">
        <ele>396.426899</ele>
        <time>2021-11-14T20:05:36.673Z</time>
      </trkpt>
      <trkpt lat="47.685517" lon="7.789491">
        <ele>397.053212</ele>
        <time>2021-11-14T20:05:43.399Z</time>
      </trkpt>
      <trkpt lat="47.685712" lon="7.788776">
        <ele>398.080500</ele>
        <time>2021-11-14T20:05:54.519Z</time>
      </trkpt>
      <trkpt lat="47.685727" lon="7.788724">
        <ele>398.155834</ele>
        <time>2021-11-14T20:05:55.777Z</time>
      </trkpt>
      <trkpt lat="47.685949" lon="7.787951">
        <ele>399.274943</ele>
        <time>2021-11-14T20:06:08.516Z</time>
      </trkpt>
      <trkpt lat="47.686130" lon="7.787340">
        <ele>400.562982</ele>
        <time>2021-11-14T20:06:19.848Z</time>
      </trkpt>
      <trkpt lat="47.686302" lon="7.786331">
        <ele>402.955834</ele>
        <time>2021-11-14T20:06:39.169Z</time>
      </trkpt>
      <trkpt lat="47.686331" lon="7.786036">
        <ele>403.641215</ele>
        <time>2021-11-14T20:06:44.877Z</time>
      </trkpt>
      <trkpt lat="47.686340" lon="7.785785">
        <ele>404.219068</ele>
        <time>2021-11-14T20:06:49.892Z</time>
      </trkpt>
      <trkpt lat="47.686341" lon="7.785005">
        <ele>406.095275</ele>
        <time>2021-11-14T20:07:05.928Z</time>
      </trkpt>
      <trkpt lat="47.686252" lon="7.784253">
        <ele>408.421134</ele>
        <time>2021-11-14T20:07:24.226Z</time>
      </trkpt>
      <trkpt lat="47.685935" lon="7.782954">
        <ele>412.630107</ele>
        <time>2021-11-14T20:07:56.446Z</time>
      </trkpt>
      <trkpt lat="47.685771" lon="7.782429">
        <ele>414.002484</ele>
        <time>2021-11-14T20:08:08.768Z</time>
      </trkpt>
      <trkpt lat="47.685457" lon="7.781526">
        <ele>414.667293</ele>
        <time>2021-11-14T20:08:26.190Z</time>
      </trkpt>
      <trkpt lat="47.685192" lon="7.780420">
        <ele>415.435203</ele>
        <time>2021-11-14T20:08:38.439Z</time>
      </trkpt>
      <trkpt lat="47.685111" lon="7.779800">
        <ele>414.891604</ele>
        <time>2021-11-14T20:08:42.930Z</time>
      </trkpt>
      <trkpt lat="47.685066" lon="7.779203">
        <ele>413.450796</ele>
        <time>2021-11-14T20:08:47.011Z</time>
      </trkpt>
      <trkpt lat="47.685010" lon="7.778565">
        <ele>411.907647</ele>
        <time>2021-11-14T20:08:51.263Z</time>
      </trkpt>
      <trkpt lat="47.684693" lon="7.776536">
        <ele>406.558120</ele>
        <time>2021-11-14T20:09:04.729Z</time>
      </trkpt>
      <trkpt lat="47.684265" lon="7.774268">
        <ele>400.884738</ele>
        <time>2021-11-14T20:09:20.234Z</time>
      </trkpt>
      <trkpt lat="47.683952" lon="7.772543">
        <ele>398.237126</ele>
        <time>2021-11-14T20:09:33.278Z</time>
      </trkpt>
      <trkpt lat="47.683943" lon="7.772495">
        <ele>398.163284</ele>
        <time>2021-11-14T20:09:33.879Z</time>
      </trkpt>
      <trkpt lat="47.683865" lon="7.772140">
        <ele>398.217543</ele>
        <time>2021-11-14T20:09:37.180Z</time>
      </trkpt>
      <trkpt lat="47.683939" lon="7.772096">
        <ele>398.419762</ele>
        <time>2021-11-14T20:09:39.097Z</time>
      </trkpt>
      <trkpt lat="47.684232" lon="7.771967">
        <ele>399.195065</ele>
        <time>2021-11-14T20:09:44.144Z</time>
      </trkpt>
      <trkpt lat="47.684739" lon="7.772255">
        <ele>400.572163</ele>
        <time>2021-11-14T20:09:56.592Z</time>
      </trkpt>
      <trkpt lat="47.684917" lon="7.772270">
        <ele>401.024474</ele>
        <time>2021-11-14T20:10:01.498Z</time>
      </trkpt>
      <trkpt lat="47.684977" lon="7.772227">
        <ele>401.193483</ele>
        <time>2021-11-14T20:10:03.950Z</time>
      </trkpt>
      <trkpt lat="47.685027" lon="7.772173">
        <ele>401.350317</ele>
        <time>2021-11-14T20:10:06.315Z</time>
      </trkpt>
      <trkpt lat="47.685447" lon="7.771027">
        <ele>404.392520</ele>
        <time>2021-11-14T20:10:38.130Z</time>
      </trkpt>
      <trkpt lat="47.685515" lon="7.770589">
        <ele>405.716218</ele>
        <time>2021-11-14T20:10:49.711Z</time>
      </trkpt>
      <trkpt lat="47.685533" lon="7.770503">
        <ele>405.981433</ele>
        <time>2021-11-14T20:10:52.596Z</time>
      </trkpt>
      <trkpt lat="47.685643" lon="7.769940">
        <ele>407.707794</ele>
        <time>2021-11-14T20:11:06.881Z</time>
      </trkpt>
      <trkpt lat="47.685741" lon="7.769237">
        <ele>409.821933</ele>
        <time>2021-11-14T20:11:19.149Z</time>
      </trkpt>
      <trkpt lat="47.685748" lon="7.769161">
        <ele>410.047825</ele>
        <time>2021-11-14T20:11:21.259Z</time>
      </trkpt>
      <trkpt lat="47.685755" lon="7.769075">
        <ele>410.302925</ele>
        <time>2021-11-14T20:11:22.151Z</time>
      </trkpt>
      <trkpt lat="47.685752" lon="7.768907">
        <ele>410.163339</ele>
        <time>2021-11-14T20:11:25.053Z</time>
      </trkpt>
      <trkpt lat="47.685747" lon="7.768784">
        <ele>410.041004</ele>
        <time>2021-11-14T20:11:26.396Z</time>
      </trkpt>
      <trkpt lat="47.685700" lon="7.768415">
        <ele>409.668167</ele>
        <time>2021-11-14T20:11:31.801Z</time>
      </trkpt>
      <trkpt lat="47.685661" lon="7.768142">
        <ele>409.391102</ele>
        <time>2021-11-14T20:11:34.741Z</time>
      </trkpt>
      <trkpt lat="47.685555" lon="7.767618">
        <ele>408.847903</ele>
        <time>2021-11-14T20:11:39.051Z</time>
      </trkpt>
      <trkpt lat="47.685320" lon="7.766645">
        <ele>407.821633</ele>
        <time>2021-11-14T20:11:45.987Z</time>
      </trkpt>
      <trkpt lat="47.685077" lon="7.765153">
        <ele>403.933578</ele>
        <time>2021-11-14T20:11:55.660Z</time>
      </trkpt>
      <trkpt lat="47.685026" lon="7.765037">
        <ele>403.559219</ele>
        <time>2021-11-14T20:11:56.635Z</time>
      </trkpt>
      <trkpt lat="47.684595" lon="7.764607">
        <ele>401.475343</ele>
        <time>2021-11-14T20:12:01.851Z</time>
      </trkpt>
      <trkpt lat="47.684505" lon="7.764394">
        <ele>400.795831</ele>
        <time>2021-11-14T20:12:03.557Z</time>
      </trkpt>
      <trkpt lat="47.684509" lon="7.763428">
        <ele>398.904054</ele>
        <time>2021-11-14T20:12:10.291Z</time>
      </trkpt>
      <trkpt lat="47.684506" lon="7.763162">
        <ele>398.413125</ele>
        <time>2021-11-14T20:12:12.347Z</time>
      </trkpt>
      <trkpt lat="47.684511" lon="7.762841">
        <ele>397.820613</ele>
        <time>2021-11-14T20:12:14.555Z</time>
      </trkpt>
      <trkpt lat="47.684654" lon="7.761861">
        <ele>395.970191</ele>
        <time>2021-11-14T20:12:21.689Z</time>
      </trkpt>
      <trkpt lat="47.684665" lon="7.760823">
        <ele>394.130415</ele>
        <time>2021-11-14T20:12:28.867Z</time>
      </trkpt>
      <trkpt lat="47.684876" lon="7.759819">
        <ele>392.289977</ele>
        <time>2021-11-14T20:12:35.931Z</time>
      </trkpt>
      <trkpt lat="47.685017" lon="7.759418">
        <ele>391.498355</ele>
        <time>2021-11-14T20:12:39.171Z</time>
      </trkpt>
      <trkpt lat="47.685263" lon="7.758966">
        <ele>390.982163</ele>
        <time>2021-11-14T20:12:43.696Z</time>
      </trkpt>
      <trkpt lat="47.685241" lon="7.758656">
        <ele>391.185284</ele>
        <time>2021-11-14T20:12:46.696Z</time>
      </trkpt>
      <trkpt lat="47.685154" lon="7.758467">
        <ele>391.334478</ele>
        <time>2021-11-14T20:12:48.793Z</time>
      </trkpt>
      <trkpt lat="47.685573" lon="7.757979">
        <ele>391.849843</ele>
        <time>2021-11-14T20:12:58.580Z</time>
      </trkpt>
      <trkpt lat="47.685687" lon="7.757729">
        <ele>392.046600</ele>
        <time>2021-11-14T20:13:02.768Z</time>
      </trkpt>
      <trkpt lat="47.685831" lon="7.757444">
        <ele>392.278798</ele>
        <time>2021-11-14T20:13:08.693Z</time>
      </trkpt>
      <trkpt lat="47.685859" lon="7.757372">
        <ele>392.332979</ele>
        <time>2021-11-14T20:13:09.963Z</time>
      </trkpt>
      <trkpt lat="47.685982" lon="7.757084">
        <ele>392.555223</ele>
        <time>2021-11-14T20:13:15.826Z</time>
      </trkpt>
      <trkpt lat="47.686067" lon="7.756879">
        <ele>393.054602</ele>
        <time>2021-11-14T20:13:20.208Z</time>
      </trkpt>
      <trkpt lat="47.687429" lon="7.753576">
        <ele>403.360732</ele>
        <time>2021-11-14T20:14:38.568Z</time>
      </trkpt>
      <trkpt lat="47.688799" lon="7.751864">
        <ele>412.172072</ele>
        <time>2021-11-14T20:15:43.282Z</time>
      </trkpt>
      <trkpt lat="47.688927" lon="7.751630">
        <ele>413.242883</ele>
        <time>2021-11-14T20:15:50.912Z</time>
      </trkpt>
      <trkpt lat="47.689065" lon="7.751268">
        <ele>414.720330</ele>
        <time>2021-11-14T20:16:02.249Z</time>
      </trkpt>
      <trkpt lat="47.689162" lon="7.750758">
        <ele>416.602448</ele>
        <time>2021-11-14T20:16:15.273Z</time>
      </trkpt>
      <trkpt lat="47.689265" lon="7.749474">
        <ele>418.735894</ele>
        <time>2021-11-14T20:16:40.961Z</time>
      </trkpt>
      <trkpt lat="47.689288" lon="7.749330">
        <ele>418.970244</ele>
        <time>2021-11-14T20:16:44.184Z</time>
      </trkpt>
      <trkpt lat="47.689310" lon="7.749200">
        <ele>419.182500</ele>
        <time>2021-11-14T20:16:46.216Z</time>
      </trkpt>
      <trkpt lat="47.689421" lon="7.748621">
        <ele>420.135784</ele>
        <time>2021-11-14T20:16:54.360Z</time>
      </trkpt>
      <trkpt lat="47.689456" lon="7.748313">
        <ele>420.630391</ele>
        <time>2021-11-14T20:16:58.044Z</time>
      </trkpt>
      <trkpt lat="47.689387" lon="7.746843">
        <ele>418.928081</ele>
        <time>2021-11-14T20:17:09.673Z</time>
      </trkpt>
      <trkpt lat="47.689598" lon="7.745786">
        <ele>417.107161</ele>
        <time>2021-11-14T20:17:17.122Z</time>
      </trkpt>
      <trkpt lat="47.689494" lon="7.744812">
        <ele>413.962770</ele>
        <time>2021-11-14T20:17:23.547Z</time>
      </trkpt>
      <trkpt lat="47.689696" lon="7.743353">
        <ele>408.103468</ele>
        <time>2021-11-14T20:17:32.756Z</time>
      </trkpt>
      <trkpt lat="47.689694" lon="7.743050">
        <ele>406.911523</ele>
        <time>2021-11-14T20:17:34.554Z</time>
      </trkpt>
      <trkpt lat="47.689689" lon="7.742165">
        <ele>402.749880</ele>
        <time>2021-11-14T20:17:39.857Z</time>
      </trkpt>
      <trkpt lat="47.689662" lon="7.741645">
        <ele>400.168581</ele>
        <time>2021-11-14T20:17:42.980Z</time>
      </trkpt>
      <trkpt lat="47.689593" lon="7.741255">
        <ele>398.172782</ele>
        <time>2021-11-14T20:17:45.382Z</time>
      </trkpt>
      <trkpt lat="47.689525" lon="7.740902">
        <ele>396.355532</ele>
        <time>2021-11-14T20:17:47.555Z</time>
      </trkpt>
      <trkpt lat="47.689508" lon="7.740589">
        <ele>394.801352</ele>
        <time>2021-11-14T20:17:49.447Z</time>
      </trkpt>
      <trkpt lat="47.689522" lon="7.740506">
        <ele>394.377855</ele>
        <time>2021-11-14T20:17:49.958Z</time>
      </trkpt>
      <trkpt lat="47.689552" lon="7.740318">
        <ele>393.421591</ele>
        <time>2021-11-14T20:17:51.107Z</time>
      </trkpt>
      <trkpt lat="47.689653" lon="7.740135">
        <ele>392.495011</ele>
        <time>2021-11-14T20:17:52.577Z</time>
      </trkpt>
      <trkpt lat="47.689975" lon="7.739810">
        <ele>390.820276</ele>
        <time>2021-11-14T20:17:56.148Z</time>
      </trkpt>
      <trkpt lat="47.690181" lon="7.739276">
        <ele>389.037933</ele>
        <time>2021-11-14T20:18:00.022Z</time>
      </trkpt>
      <trkpt lat="47.690269" lon="7.739099">
        <ele>388.400712</ele>
        <time>2021-11-14T20:18:01.456Z</time>
      </trkpt>
      <trkpt lat="47.690374" lon="7.739013">
        <ele>387.884892</ele>
        <time>2021-11-14T20:18:02.746Z</time>
      </trkpt>
      <trkpt lat="47.690436" lon="7.738893">
        <ele>387.446826</ele>
        <time>2021-11-14T20:18:03.831Z</time>
      </trkpt>
      <trkpt lat="47.690534" lon="7.738217">
        <ele>385.444339</ele>
        <time>2021-11-14T20:18:08.757Z</time>
      </trkpt>
      <trkpt lat="47.690466" lon="7.738254">
        <ele>385.132795</ele>
        <time>2021-11-14T20:18:09.545Z</time>
      </trkpt>
      <trkpt lat="47.690414" lon="7.738257">
        <ele>385.012541</ele>
        <time>2021-11-14T20:18:10.135Z</time>
      </trkpt>
      <trkpt lat="47.690373" lon="7.738251">
        <ele>384.930320</ele>
        <time>2021-11-14T20:18:10.602Z</time>
      </trkpt>
      <trkpt lat="47.690188" lon="7.738141">
        <ele>384.532638</ele>
        <time>2021-11-14T20:18:12.746Z</time>
      </trkpt>
      <trkpt lat="47.689715" lon="7.737879">
        <ele>383.525179</ele>
        <time>2021-11-14T20:18:18.244Z</time>
      </trkpt>
      <trkpt lat="47.689192" lon="7.737735">
        <ele>382.463643</ele>
        <time>2021-11-14T20:18:24.192Z</time>
      </trkpt>
      <trkpt lat="47.688900" lon="7.737742">
        <ele>381.880818</ele>
        <time>2021-11-14T20:18:27.455Z</time>
      </trkpt>
      <trkpt lat="47.688795" lon="7.737743">
        <ele>381.671263</ele>
        <time>2021-11-14T20:18:28.607Z</time>
      </trkpt>
      <trkpt lat="47.688176" lon="7.737850">
        <ele>380.380740</ele>
        <time>2021-11-14T20:18:35.554Z</time>
      </trkpt>
      <trkpt lat="47.688003" lon="7.737904">
        <ele>380.012712</ele>
        <time>2021-11-14T20:18:37.451Z</time>
      </trkpt>
      <trkpt lat="47.686856" lon="7.738288">
        <ele>377.588771</ele>
        <time>2021-11-14T20:18:50.110Z</time>
      </trkpt>
      <trkpt lat="47.685871" lon="7.738439">
        <ele>375.769282</ele>
        <time>2021-11-14T20:19:01.101Z</time>
      </trkpt>
      <trkpt lat="47.685295" lon="7.738591">
        <ele>374.694346</ele>
        <time>2021-11-14T20:19:07.743Z</time>
      </trkpt>
      <trkpt lat="47.684782" lon="7.738700">
        <ele>373.918080</ele>
        <time>2021-11-14T20:19:13.599Z</time>
      </trkpt>
      <trkpt lat="47.684345" lon="7.738781">
        <ele>373.306335</ele>
        <time>2021-11-14T20:19:18.621Z</time>
      </trkpt>
      <trkpt lat="47.683955" lon="7.738770">
        <ele>372.764487</ele>
        <time>2021-11-14T20:19:23.159Z</time>
      </trkpt>
      <trkpt lat="47.683619" lon="7.738743">
        <ele>372.297066</ele>
        <time>2021-11-14T20:19:27.171Z</time>
      </trkpt>
      <trkpt lat="47.683198" lon="7.738684">
        <ele>371.789911</ele>
        <time>2021-11-14T20:19:32.298Z</time>
      </trkpt>
      <trkpt lat="47.681369" lon="7.738489">
        <ele>369.982238</ele>
        <time>2021-11-14T20:19:55.036Z</time>
      </trkpt>
      <trkpt lat="47.680533" lon="7.738227">
        <ele>368.926440</ele>
        <time>2021-11-14T20:20:05.263Z</time>
      </trkpt>
      <trkpt lat="47.680227" lon="7.738094">
        <ele>368.532456</ele>
        <time>2021-11-14T20:20:09.003Z</time>
      </trkpt>
      <trkpt lat="47.679681" lon="7.737780">
        <ele>367.875915</ele>
        <time>2021-11-14T20:20:15.837Z</time>
      </trkpt>
      <trkpt lat="47.679312" lon="7.737558">
        <ele>367.533101</ele>
        <time>2021-11-14T20:20:20.380Z</time>
      </trkpt>
      <trkpt lat="47.679182" lon="7.737480">
        <ele>367.412372</ele>
        <time>2021-11-14T20:20:21.920Z</time>
      </trkpt>
      <trkpt lat="47.678261" lon="7.737149">
        <ele>366.596432</ele>
        <time>2021-11-14T20:20:34.024Z</time>
      </trkpt>
      <trkpt lat="47.677732" lon="7.737060">
        <ele>366.745521</ele>
        <time>2021-11-14T20:20:42.166Z</time>
      </trkpt>
      <trkpt lat="47.676927" lon="7.737026">
        <ele>367.280099</ele>
        <time>2021-11-14T20:20:57.490Z</time>
      </trkpt>
      <trkpt lat="47.674982" lon="7.736550">
        <ele>367.846281</ele>
        <time>2021-11-14T20:21:33.373Z</time>
      </trkpt>
      <trkpt lat="47.674295" lon="7.736409">
        <ele>367.305473</ele>
        <time>2021-11-14T20:21:41.237Z</time>
      </trkpt>
      <trkpt lat="47.673855" lon="7.736387">
        <ele>366.342232</ele>
        <time>2021-11-14T20:21:45.975Z</time>
      </trkpt>
      <trkpt lat="47.673492" lon="7.736461">
        <ele>365.540561</ele>
        <time>2021-11-14T20:21:49.814Z</time>
      </trkpt>
      <trkpt lat="47.673344" lon="7.736511">
        <ele>365.208472</ele>
        <time>2021-11-14T20:21:51.387Z</time>
      </trkpt>
      <trkpt lat="47.673154" lon="7.736575">
        <ele>364.782203</ele>
        <time>2021-11-14T20:21:53.414Z</time>
      </trkpt>
      <trkpt lat="47.672890" lon="7.736693">
        <ele>364.178992</ele>
        <time>2021-11-14T20:21:56.269Z</time>
      </trkpt>
      <trkpt lat="47.671561" lon="7.737762">
        <ele>361.289283</ele>
        <time>2021-11-14T20:22:13.007Z</time>
      </trkpt>
      <trkpt lat="47.671278" lon="7.738030">
        <ele>360.654019</ele>
        <time>2021-11-14T20:22:16.616Z</time>
      </trkpt>
      <trkpt lat="47.671021" lon="7.738380">
        <ele>360.716866</ele>
        <time>2021-11-14T20:22:20.751Z</time>
      </trkpt>
      <trkpt lat="47.670753" lon="7.738859">
        <ele>360.938172</ele>
        <time>2021-11-14T20:22:26.343Z</time>
      </trkpt>
      <trkpt lat="47.670331" lon="7.739901">
        <ele>361.370268</ele>
        <time>2021-11-14T20:22:42.816Z</time>
      </trkpt>
      <trkpt lat="47.670203" lon="7.740193">
        <ele>361.494083</ele>
        <time>2021-11-14T20:22:48.991Z</time>
      </trkpt>
      <trkpt lat="47.669750" lon="7.740792">
        <ele>363.118543</ele>
        <time>2021-11-14T20:23:02.455Z</time>
      </trkpt>
      <trkpt lat="47.669494" lon="7.740943">
        <ele>363.884083</ele>
        <time>2021-11-14T20:23:09.417Z</time>
      </trkpt>
      <trkpt lat="47.669351" lon="7.740999">
        <ele>364.295092</ele>
        <time>2021-11-14T20:23:13.625Z</time>
      </trkpt>
      <trkpt lat="47.669055" lon="7.741049">
        <ele>365.123034</ele>
        <time>2021-11-14T20:23:22.263Z</time>
      </trkpt>
      <trkpt lat="47.668124" lon="7.740949">
        <ele>367.692819</ele>
        <time>2021-11-14T20:23:49.121Z</time>
      </trkpt>
      <trkpt lat="47.667361" lon="7.741151">
        <ele>369.803355</ele>
        <time>2021-11-14T20:24:06.326Z</time>
      </trkpt>
      <trkpt lat="47.666724" lon="7.741022">
        <ele>371.544631</ele>
        <time>2021-11-14T20:24:23.603Z</time>
      </trkpt>
      <trkpt lat="47.665679" lon="7.741103">
        <ele>374.213636</ele>
        <time>2021-11-14T20:24:52.150Z</time>
      </trkpt>
      <trkpt lat="47.665373" lon="7.741092">
        <ele>374.994349</ele>
        <time>2021-11-14T20:25:00.031Z</time>
      </trkpt>
      <trkpt lat="47.664884" lon="7.741112">
        <ele>375.876494</ele>
        <time>2021-11-14T20:25:10.547Z</time>
      </trkpt>
      <trkpt lat="47.664445" lon="7.741223">
        <ele>375.346469</ele>
        <time>2021-11-14T20:25:18.721Z</time>
      </trkpt>
      <trkpt lat="47.663991" lon="7.741248">
        <ele>374.805740</ele>
        <time>2021-11-14T20:25:25.203Z</time>
      </trkpt>
      <trkpt lat="47.663281" lon="7.741134">
        <ele>373.955762</ele>
        <time>2021-11-14T20:25:32.821Z</time>
      </trkpt>
      <trkpt lat="47.662726" lon="7.741265">
        <ele>371.269147</ele>
        <time>2021-11-14T20:25:37.971Z</time>
      </trkpt>
      <trkpt lat="47.661687" lon="7.741310">
        <ele>365.614881</ele>
        <time>2021-11-14T20:25:47.598Z</time>
      </trkpt>
      <trkpt lat="47.661674" lon="7.741304">
        <ele>365.540827</ele>
        <time>2021-11-14T20:25:47.713Z</time>
      </trkpt>
      <trkpt lat="47.661611" lon="7.741276">
        <ele>365.183101</ele>
        <time>2021-11-14T20:25:48.296Z</time>
      </trkpt>
      <trkpt lat="47.661483" lon="7.741188">
        <ele>364.415797</ele>
        <time>2021-11-14T20:25:49.667Z</time>
      </trkpt>
      <trkpt lat="47.661424" lon="7.741131">
        <ele>364.036381</ele>
        <time>2021-11-14T20:25:50.378Z</time>
      </trkpt>
      <trkpt lat="47.661298" lon="7.741035">
        <ele>363.342685</ele>
        <time>2021-11-14T20:25:51.667Z</time>
      </trkpt>
      <trkpt lat="47.660437" lon="7.740780">
        <ele>359.042197</ele>
        <time>2021-11-14T20:25:59.853Z</time>
      </trkpt>
      <trkpt lat="47.660092" lon="7.740956">
        <ele>357.255327</ele>
        <time>2021-11-14T20:26:03.210Z</time>
      </trkpt>
      <trkpt lat="47.659914" lon="7.741102">
        <ele>356.259235</ele>
        <time>2021-11-14T20:26:05.303Z</time>
      </trkpt>
      <trkpt lat="47.659389" lon="7.741651">
        <ele>354.275469</ele>
        <time>2021-11-14T20:26:11.909Z</time>
      </trkpt>
      <trkpt lat="47.658430" lon="7.742636">
        <ele>351.658476</ele>
        <time>2021-11-14T20:26:23.625Z</time>
      </trkpt>
      <trkpt lat="47.657946" lon="7.742967">
        <ele>352.709934</ele>
        <time>2021-11-14T20:26:35.475Z</time>
      </trkpt>
      <trkpt lat="47.657396" lon="7.743356">
        <ele>355.392932</ele>
        <time>2021-11-14T20:26:56.609Z</time>
      </trkpt>
      <trkpt lat="47.656895" lon="7.743736">
        <ele>357.870589</ele>
        <time>2021-11-14T20:27:19.245Z</time>
      </trkpt>
      <trkpt lat="47.656798" lon="7.743812">
        <ele>358.353614</ele>
        <time>2021-11-14T20:27:23.013Z</time>
      </trkpt>
      <trkpt lat="47.656699" lon="7.743927">
        <ele>358.907205</ele>
        <time>2021-11-14T20:27:28.237Z</time>
      </trkpt>
      <trkpt lat="47.656638" lon="7.744059">
        <ele>359.335623</ele>
        <time>2021-11-14T20:27:33.375Z</time>
      </trkpt>
      <trkpt lat="47.656592" lon="7.744040">
        <ele>359.505155</ele>
        <time>2021-11-14T20:27:34.943Z</time>
      </trkpt>
      <trkpt lat="47.656129" lon="7.743833">
        <ele>361.222014</ele>
        <time>2021-11-14T20:27:54.618Z</time>
      </trkpt>
      <trkpt lat="47.654324" lon="7.743075">
        <ele>365.471766</ele>
        <time>2021-11-14T20:28:38.107Z</time>
      </trkpt>
      <trkpt lat="47.653639" lon="7.742914">
        <ele>365.412219</ele>
        <time>2021-11-14T20:28:46.091Z</time>
      </trkpt>
      <trkpt lat="47.653011" lon="7.743041">
        <ele>365.106091</ele>
        <time>2021-11-14T20:28:53.513Z</time>
      </trkpt>
      <trkpt lat="47.652352" lon="7.743329">
        <ele>364.144521</ele>
        <time>2021-11-14T20:29:01.782Z</time>
      </trkpt>
      <trkpt lat="47.651664" lon="7.743365">
        <ele>363.180900</ele>
        <time>2021-11-14T20:29:10.172Z</time>
      </trkpt>
      <trkpt lat="47.650941" lon="7.743251">
        <ele>360.649469</ele>
        <time>2021-11-14T20:29:18.079Z</time>
      </trkpt>
      <trkpt lat="47.650238" lon="7.743181">
        <ele>357.510314</ele>
        <time>2021-11-14T20:29:24.912Z</time>
      </trkpt>
      <trkpt lat="47.649349" lon="7.742957">
        <ele>352.572040</ele>
        <time>2021-11-14T20:29:33.039Z</time>
      </trkpt>
      <trkpt lat="47.648726" lon="7.742773">
        <ele>347.811836</ele>
        <time>2021-11-14T20:29:38.640Z</time>
      </trkpt>
      <trkpt lat="47.648686" lon="7.742761">
        <ele>347.506020</ele>
        <time>2021-11-14T20:29:38.997Z</time>
      </trkpt>
      <trkpt lat="47.648430" lon="7.742708">
        <ele>345.569017</ele>
        <time>2021-11-14T20:29:41.267Z</time>
      </trkpt>
      <trkpt lat="47.647923" lon="7.742761">
        <ele>341.760207</ele>
        <time>2021-11-14T20:29:45.779Z</time>
      </trkpt>
      <trkpt lat="47.647668" lon="7.742782">
        <ele>340.512909</ele>
        <time>2021-11-14T20:29:48.072Z</time>
      </trkpt>
      <trkpt lat="47.647263" lon="7.742628">
        <ele>338.755777</ele>
        <time>2021-11-14T20:29:51.938Z</time>
      </trkpt>
      <trkpt lat="47.647031" lon="7.742584">
        <ele>337.772781</ele>
        <time>2021-11-14T20:29:54.227Z</time>
      </trkpt>
      <trkpt lat="47.646932" lon="7.742608">
        <ele>337.351182</ele>
        <time>2021-11-14T20:29:55.172Z</time>
      </trkpt>
      <trkpt lat="47.646840" lon="7.742630">
        <ele>336.959531</ele>
        <time>2021-11-14T20:29:56.140Z</time>
      </trkpt>
      <trkpt lat="47.646642" lon="7.742762">
        <ele>336.047279</ele>
        <time>2021-11-14T20:29:58.364Z</time>
      </trkpt>
      <trkpt lat="47.646406" lon="7.742933">
        <ele>334.943529</ele>
        <time>2021-11-14T20:30:01.147Z</time>
      </trkpt>
      <trkpt lat="47.646017" lon="7.743245">
        <ele>333.579450</ele>
        <time>2021-11-14T20:30:05.972Z</time>
      </trkpt>
      <trkpt lat="47.645911" lon="7.743330">
        <ele>333.420929</ele>
        <time>2021-11-14T20:30:07.291Z</time>
      </trkpt>
      <trkpt lat="47.645734" lon="7.743440">
        <ele>333.168453</ele>
        <time>2021-11-14T20:30:09.630Z</time>
      </trkpt>
      <trkpt lat="47.645188" lon="7.743513">
        <ele>332.447147</ele>
        <time>2021-11-14T20:30:16.143Z</time>
      </trkpt>
      <trkpt lat="47.645131" lon="7.743484">
        <ele>332.367866</ele>
        <time>2021-11-14T20:30:16.875Z</time>
      </trkpt>
      <trkpt lat="47.645054" lon="7.743433">
        <ele>332.256924</ele>
        <time>2021-11-14T20:30:17.898Z</time>
      </trkpt>
      <trkpt lat="47.644925" lon="7.743203">
        <ele>331.991637</ele>
        <time>2021-11-14T20:30:20.362Z</time>
      </trkpt>
      <trkpt lat="47.644734" lon="7.742487">
        <ele>331.369673</ele>
        <time>2021-11-14T20:30:26.766Z</time>
      </trkpt>
      <trkpt lat="47.644669" lon="7.742280">
        <ele>331.262345</ele>
        <time>2021-11-14T20:30:28.671Z</time>
      </trkpt>
      <trkpt lat="47.644599" lon="7.742155">
        <ele>331.185957</ele>
        <time>2021-11-14T20:30:30.025Z</time>
      </trkpt>
      <trkpt lat="47.644397" lon="7.741849">
        <ele>330.984626</ele>
        <time>2021-11-14T20:30:33.656Z</time>
      </trkpt>
      <trkpt lat="47.644276" lon="7.741683">
        <ele>330.869691</ele>
        <time>2021-11-14T20:30:35.751Z</time>
      </trkpt>
      <trkpt lat="47.644182" lon="7.741417">
        <ele>330.728530</ele>
        <time>2021-11-14T20:30:38.309Z</time>
      </trkpt>
      <trkpt lat="47.644157" lon="7.741340">
        <ele>330.688360</ele>
        <time>2021-11-14T20:30:39.051Z</time>
      </trkpt>
      <trkpt lat="47.644056" lon="7.741009">
        <ele>330.517593</ele>
        <time>2021-11-14T20:30:42.284Z</time>
      </trkpt>
      <trkpt lat="47.644034" lon="7.740945">
        <ele>330.483827</ele>
        <time>2021-11-14T20:30:42.918Z</time>
      </trkpt>
      <trkpt lat="47.643938" lon="7.740664">
        <ele>330.335759</ele>
        <time>2021-11-14T20:30:45.763Z</time>
      </trkpt>
      <trkpt lat="47.643881" lon="7.740570">
        <ele>330.276325</ele>
        <time>2021-11-14T20:30:46.889Z</time>
      </trkpt>
      <trkpt lat="47.643783" lon="7.740468">
        <ele>330.192833</ele>
        <time>2021-11-14T20:30:48.448Z</time>
      </trkpt>
      <trkpt lat="47.643656" lon="7.740319">
        <ele>330.127906</ele>
        <time>2021-11-14T20:30:50.639Z</time>
      </trkpt>
      <trkpt lat="47.643591" lon="7.740215">
        <ele>330.092127</ele>
        <time>2021-11-14T20:30:51.919Z</time>
      </trkpt>
      <trkpt lat="47.643475" lon="7.739785">
        <ele>329.975301</ele>
        <time>2021-11-14T20:30:56.033Z</time>
      </trkpt>
      <trkpt lat="47.643304" lon="7.739932">
        <ele>329.901323</ele>
        <time>2021-11-14T20:30:58.665Z</time>
      </trkpt>
      <trkpt lat="47.643301" lon="7.739935">
        <ele>329.899969</ele>
        <time>2021-11-14T20:30:58.713Z</time>
      </trkpt>
      <trkpt lat="47.643168" lon="7.740007">
        <ele>329.846971</ele>
        <time>2021-11-14T20:31:00.647Z</time>
      </trkpt>
      <trkpt lat="47.643121" lon="7.740032">
        <ele>329.828280</ele>
        <time>2021-11-14T20:31:01.336Z</time>
      </trkpt>
      <trkpt lat="47.642972" lon="7.740117">
        <ele>329.768522</ele>
        <time>2021-11-14T20:31:03.508Z</time>
      </trkpt>
      <trkpt lat="47.642922" lon="7.740181">
        <ele>329.743805</ele>
        <time>2021-11-14T20:31:04.425Z</time>
      </trkpt>
      <trkpt lat="47.642911" lon="7.740194">
        <ele>329.738541</ele>
        <time>2021-11-14T20:31:04.605Z</time>
      </trkpt>
      <trkpt lat="47.642862" lon="7.740256">
        <ele>329.714436</ele>
        <time>2021-11-14T20:31:05.473Z</time>
      </trkpt>
      <trkpt lat="47.642822" lon="7.740329">
        <ele>329.690703</ele>
        <time>2021-11-14T20:31:06.285Z</time>
      </trkpt>
      <trkpt lat="47.642798" lon="7.740374">
        <ele>329.676227</ele>
        <time>2021-11-14T20:31:06.843Z</time>
      </trkpt>
      <trkpt lat="47.642647" lon="7.740709">
        <ele>329.574566</ele>
        <time>2021-11-14T20:31:10.603Z</time>
      </trkpt>
      <trkpt lat="47.642519" lon="7.740966">
        <ele>329.511717</ele>
        <time>2021-11-14T20:31:13.710Z</time>
      </trkpt>
      <trkpt lat="47.642394" lon="7.741202">
        <ele>329.518988</ele>
        <time>2021-11-14T20:31:16.539Z</time>
      </trkpt>
      <trkpt lat="47.642274" lon="7.741453">
        <ele>329.526442</ele>
        <time>2021-11-14T20:31:19.622Z</time>
      </trkpt>
      <trkpt lat="47.642209" lon="7.741595">
        <ele>329.530600</ele>
        <time>2021-11-14T20:31:21.220Z</time>
      </trkpt>
      <trkpt lat="47.642066" lon="7.741908">
        <ele>329.539759</ele>
        <time>2021-11-14T20:31:24.999Z</time>
      </trkpt>
      <trkpt lat="47.641997" lon="7.741966">
        <ele>329.542610</ele>
        <time>2021-11-14T20:31:26.161Z</time>
      </trkpt>
      <trkpt lat="47.641954" lon="7.741976">
        <ele>329.544174</ele>
        <time>2021-11-14T20:31:26.735Z</time>
      </trkpt>
      <trkpt lat="47.641958" lon="7.742061">
        <ele>329.546238</ele>
        <time>2021-11-14T20:31:27.609Z</time>
      </trkpt>
      <trkpt lat="47.641960" lon="7.742153">
        <ele>329.548467</ele>
        <time>2021-11-14T20:31:28.584Z</time>
      </trkpt>
      <trkpt lat="47.641952" lon="7.742244">
        <ele>329.550690</ele>
        <time>2021-11-14T20:31:29.567Z</time>
      </trkpt>
      <trkpt lat="47.641935" lon="7.742324">
        <ele>329.552722</ele>
        <time>2021-11-14T20:31:30.444Z</time>
      </trkpt>
      <trkpt lat="47.641903" lon="7.742471">
        <ele>329.556463</ele>
        <time>2021-11-14T20:31:31.965Z</time>
      </trkpt>
      <trkpt lat="47.641887" lon="7.742564">
        <ele>329.558788</ele>
        <time>2021-11-14T20:31:32.867Z</time>
      </trkpt>
      <trkpt lat="47.641875" lon="7.742622">
        <ele>329.560258</ele>
        <time>2021-11-14T20:31:33.542Z</time>
      </trkpt>
      <trkpt lat="47.641858" lon="7.742708">
        <ele>329.562428</ele>
        <time>2021-11-14T20:31:34.568Z</time>
      </trkpt>
      <trkpt lat="47.641802" lon="7.742982">
        <ele>329.569363</ele>
        <time>2021-11-14T20:31:37.627Z</time>
      </trkpt>
      <trkpt lat="47.641773" lon="7.743087">
        <ele>329.572112</ele>
        <time>2021-11-14T20:31:38.760Z</time>
      </trkpt>
      <trkpt lat="47.641651" lon="7.743319">
        <ele>329.627698</ele>
        <time>2021-11-14T20:31:42.109Z</time>
      </trkpt>
      <trkpt lat="47.641543" lon="7.743498">
        <ele>329.697294</ele>
        <time>2021-11-14T20:31:44.542Z</time>
      </trkpt>
      <trkpt lat="47.641440" lon="7.743669">
        <ele>329.763730</ele>
        <time>2021-11-14T20:31:47.166Z</time>
      </trkpt>
      <trkpt lat="47.641133" lon="7.744182">
        <ele>329.962467</ele>
        <time>2021-11-14T20:31:55.026Z</time>
      </trkpt>
      <trkpt lat="47.641118" lon="7.744203">
        <ele>329.971331</ele>
        <time>2021-11-14T20:31:55.416Z</time>
      </trkpt>
      <trkpt lat="47.641021" lon="7.744322">
        <ele>330.025432</ele>
        <time>2021-11-14T20:31:57.572Z</time>
      </trkpt>
      <trkpt lat="47.641089" lon="7.744504">
        <ele>330.085710</ele>
        <time>2021-11-14T20:32:00.088Z</time>
      </trkpt>
      <trkpt lat="47.641098" lon="7.744530">
        <ele>330.094177</ele>
        <time>2021-11-14T20:32:00.370Z</time>
      </trkpt>
      <trkpt lat="47.641149" lon="7.744754">
        <ele>330.162662</ele>
        <time>2021-11-14T20:32:03.031Z</time>
      </trkpt>
      <trkpt lat="47.641056" lon="7.744855">
        <ele>330.212201</ele>
        <time>2021-11-14T20:32:05.025Z</time>
      </trkpt>
      <trkpt lat="47.640998" lon="7.744824">
        <ele>330.238702</ele>
        <time>2021-11-14T20:32:06.014Z</time>
      </trkpt>
      <trkpt lat="47.640958" lon="7.744746">
        <ele>330.267095</ele>
        <time>2021-11-14T20:32:07.036Z</time>
      </trkpt>
      <trkpt lat="47.640859" lon="7.744671">
        <ele>330.314877</ele>
        <time>2021-11-14T20:32:08.832Z</time>
      </trkpt>
      <trkpt lat="47.640802" lon="7.744697">
        <ele>330.340512</ele>
        <time>2021-11-14T20:32:09.781Z</time>
      </trkpt>
      <trkpt lat="47.640698" lon="7.744798">
        <ele>330.503865</ele>
        <time>2021-11-14T20:32:11.841Z</time>
      </trkpt>
      <trkpt lat="47.640175" lon="7.745392">
        <ele>331.464875</ele>
        <time>2021-11-14T20:32:22.138Z</time>
      </trkpt>
      <trkpt lat="47.639811" lon="7.744830">
        <ele>332.231341</ele>
        <time>2021-11-14T20:32:31.131Z</time>
      </trkpt>
      <trkpt lat="47.639661" lon="7.744599">
        <ele>332.546773</ele>
        <time>2021-11-14T20:32:35.953Z</time>
      </trkpt>
      <trkpt lat="47.639286" lon="7.744230">
        <ele>334.457282</ele>
        <time>2021-11-14T20:32:47.379Z</time>
      </trkpt>
      <trkpt lat="47.639124" lon="7.743936">
        <ele>336.860919</ele>
        <time>2021-11-14T20:32:57.706Z</time>
      </trkpt>
      <trkpt lat="47.639034" lon="7.743640">
        <ele>338.916159</ele>
        <time>2021-11-14T20:33:08.453Z</time>
      </trkpt>
      <trkpt lat="47.638834" lon="7.743716">
        <ele>340.855315</ele>
        <time>2021-11-14T20:33:20.720Z</time>
      </trkpt>
      <trkpt lat="47.638586" lon="7.743801">
        <ele>343.246036</ele>
        <time>2021-11-14T20:33:36.880Z</time>
      </trkpt>
      <trkpt lat="47.638337" lon="7.743810">
        <ele>345.585532</ele>
        <time>2021-11-14T20:33:51.270Z</time>
      </trkpt>
      <trkpt lat="47.638011" lon="7.743662">
        <ele>348.787642</ele>
        <time>2021-11-14T20:34:12.616Z</time>
      </trkpt>
      <trkpt lat="47.637785" lon="7.743491">
        <ele>351.435439</ele>
        <time>2021-11-14T20:34:29.546Z</time>
      </trkpt>
      <trkpt lat="47.637644" lon="7.743238">
        <ele>353.935983</ele>
        <time>2021-11-14T20:34:45.495Z</time>
      </trkpt>
      <trkpt lat="47.637552" lon="7.742900">
        <ele>356.712316</ele>
        <time>2021-11-14T20:35:01.261Z</time>
      </trkpt>
      <trkpt lat="47.637523" lon="7.742385">
        <ele>360.648280</ele>
        <time>2021-11-14T20:35:24.118Z</time>
      </trkpt>
      <trkpt lat="47.637556" lon="7.741902">
        <ele>364.345717</ele>
        <time>2021-11-14T20:35:44.803Z</time>
      </trkpt>
      <trkpt lat="47.637528" lon="7.741566">
        <ele>366.924222</ele>
        <time>2021-11-14T20:35:59.054Z</time>
      </trkpt>
      <trkpt lat="47.637507" lon="7.741319">
        <ele>368.820314</ele>
        <time>2021-11-14T20:36:08.767Z</time>
      </trkpt>
      <trkpt lat="47.637359" lon="7.740737">
        <ele>371.858393</ele>
        <time>2021-11-14T20:36:26.119Z</time>
      </trkpt>
      <trkpt lat="47.637115" lon="7.740401">
        <ele>373.718207</ele>
        <time>2021-11-14T20:36:36.872Z</time>
      </trkpt>
      <trkpt lat="47.636771" lon="7.740116">
        <ele>375.919497</ele>
        <time>2021-11-14T20:36:49.993Z</time>
      </trkpt>
      <trkpt lat="47.636317" lon="7.740109">
        <ele>378.456313</ele>
        <time>2021-11-14T20:37:05.499Z</time>
      </trkpt>
      <trkpt lat="47.636139" lon="7.739987">
        <ele>379.551816</ele>
        <time>2021-11-14T20:37:11.973Z</time>
      </trkpt>
      <trkpt lat="47.635963" lon="7.739717">
        <ele>380.866373</ele>
        <time>2021-11-14T20:37:20.574Z</time>
      </trkpt>
      <trkpt lat="47.635790" lon="7.739028">
        <ele>383.250763</ele>
        <time>2021-11-14T20:37:37.899Z</time>
      </trkpt>
      <trkpt lat="47.635441" lon="7.738683">
        <ele>385.268826</ele>
        <time>2021-11-14T20:37:53.004Z</time>
      </trkpt>
      <trkpt lat="47.634316" lon="7.737920">
        <ele>390.602630</ele>
        <time>2021-11-14T20:38:34.166Z</time>
      </trkpt>
      <trkpt lat="47.632595" lon="7.737266">
        <ele>396.496731</ele>
        <time>2021-11-14T20:39:22.416Z</time>
      </trkpt>
      <trkpt lat="47.632395" lon="7.737249">
        <ele>397.040624</ele>
        <time>2021-11-14T20:39:27.579Z</time>
      </trkpt>
      <trkpt lat="47.632230" lon="7.737357">
        <ele>397.530244</ele>
        <time>2021-11-14T20:39:32.083Z</time>
      </trkpt>
      <trkpt lat="47.631687" lon="7.738100">
        <ele>399.535588</ele>
        <time>2021-11-14T20:39:50.172Z</time>
      </trkpt>
      <trkpt lat="47.631655" lon="7.738144">
        <ele>399.654032</ele>
        <time>2021-11-14T20:39:51.371Z</time>
      </trkpt>
      <trkpt lat="47.631444" lon="7.738356">
        <ele>400.371869</ele>
        <time>2021-11-14T20:39:57.962Z</time>
      </trkpt>
      <trkpt lat="47.631083" lon="7.738808">
        <ele>401.810079</ele>
        <time>2021-11-14T20:40:10.024Z</time>
      </trkpt>
      <trkpt lat="47.630948" lon="7.739058">
        <ele>402.467441</ele>
        <time>2021-11-14T20:40:15.910Z</time>
      </trkpt>
      <trkpt lat="47.630891" lon="7.739335">
        <ele>403.061738</ele>
        <time>2021-11-14T20:40:20.797Z</time>
      </trkpt>
      <trkpt lat="47.630944" lon="7.739673">
        <ele>403.773825</ele>
        <time>2021-11-14T20:40:27.615Z</time>
      </trkpt>
      <trkpt lat="47.630907" lon="7.739873">
        <ele>404.199398</ele>
        <time>2021-11-14T20:40:31.312Z</time>
      </trkpt>
      <trkpt lat="47.630897" lon="7.740046">
        <ele>404.555689</ele>
        <time>2021-11-14T20:40:35.159Z</time>
      </trkpt>
      <trkpt lat="47.630863" lon="7.740423">
        <ele>405.336172</ele>
        <time>2021-11-14T20:40:41.747Z</time>
      </trkpt>
      <trkpt lat="47.630897" lon="7.740602">
        <ele>405.761866</ele>
        <time>2021-11-14T20:40:45.607Z</time>
      </trkpt>
      <trkpt lat="47.631280" lon="7.741275">
        <ele>408.298205</ele>
        <time>2021-11-14T20:41:02.561Z</time>
      </trkpt>
      <trkpt lat="47.631424" lon="7.741490">
        <ele>409.171007</ele>
        <time>2021-11-14T20:41:09.372Z</time>
      </trkpt>
      <trkpt lat="47.631477" lon="7.741795">
        <ele>410.077932</ele>
        <time>2021-11-14T20:41:16.296Z</time>
      </trkpt>
      <trkpt lat="47.631282" lon="7.742608">
        <ele>412.562688</ele>
        <time>2021-11-14T20:41:35.832Z</time>
      </trkpt>
      <trkpt lat="47.631260" lon="7.742819">
        <ele>413.177460</ele>
        <time>2021-11-14T20:41:40.806Z</time>
      </trkpt>
      <trkpt lat="47.631202" lon="7.744011">
        <ele>417.246950</ele>
        <time>2021-11-14T20:42:09.107Z</time>
      </trkpt>
      <trkpt lat="47.631185" lon="7.744218">
        <ele>417.960854</ele>
        <time>2021-11-14T20:42:13.895Z</time>
      </trkpt>
      <trkpt lat="47.631075" lon="7.745596">
        <ele>422.668603</ele>
        <time>2021-11-14T20:42:47.946Z</time>
      </trkpt>
      <trkpt lat="47.631034" lon="7.745824">
        <ele>423.353274</ele>
        <time>2021-11-14T20:42:53.032Z</time>
      </trkpt>
      <trkpt lat="47.630948" lon="7.746031">
        <ele>424.058831</ele>
        <time>2021-11-14T20:42:58.886Z</time>
      </trkpt>
      <trkpt lat="47.630697" lon="7.746375">
        <ele>425.529889</ele>
        <time>2021-11-14T20:43:10.164Z</time>
      </trkpt>
      <trkpt lat="47.629711" lon="7.747557">
        <ele>430.918606</ele>
        <time>2021-11-14T20:43:48.783Z</time>
      </trkpt>
      <trkpt lat="47.629452" lon="7.747871">
        <ele>432.236920</ele>
        <time>2021-11-14T20:43:59.020Z</time>
      </trkpt>
      <trkpt lat="47.629212" lon="7.748211">
        <ele>433.544835</ele>
        <time>2021-11-14T20:44:09.085Z</time>
      </trkpt>
      <trkpt lat="47.628729" lon="7.749001">
        <ele>436.378301</ele>
        <time>2021-11-14T20:44:31.166Z</time>
      </trkpt>
      <trkpt lat="47.628604" lon="7.749202">
        <ele>437.104838</ele>
        <time>2021-11-14T20:44:36.443Z</time>
      </trkpt>
      <trkpt lat="47.628584" lon="7.749233">
        <ele>437.218839</ele>
        <time>2021-11-14T20:44:38.118Z</time>
      </trkpt>
      <trkpt lat="47.627609" lon="7.750299">
        <ele>441.256158</ele>
        <time>2021-11-14T20:45:14.438Z</time>
      </trkpt>
      <trkpt lat="47.625761" lon="7.752304">
        <ele>446.652413</ele>
        <time>2021-11-14T20:46:09.691Z</time>
      </trkpt>
      <trkpt lat="47.624838" lon="7.753339">
        <ele>446.983544</ele>
        <time>2021-11-14T20:46:27.781Z</time>
      </trkpt>
      <trkpt lat="47.624277" lon="7.754101">
        <ele>447.060048</ele>
        <time>2021-11-14T20:46:37.658Z</time>
      </trkpt>
      <trkpt lat="47.622712" lon="7.756863">
        <ele>445.711227</ele>
        <time>2021-11-14T20:47:10.694Z</time>
      </trkpt>
      <trkpt lat="47.622511" lon="7.757074">
        <ele>445.474508</ele>
        <time>2021-11-14T20:47:13.774Z</time>
      </trkpt>
      <trkpt lat="47.622401" lon="7.757191">
        <ele>445.344387</ele>
        <time>2021-11-14T20:47:15.306Z</time>
      </trkpt>
      <trkpt lat="47.621775" lon="7.757496">
        <ele>444.710934</ele>
        <time>2021-11-14T20:47:22.901Z</time>
      </trkpt>
      <trkpt lat="47.621392" lon="7.757689">
        <ele>444.551840</ele>
        <time>2021-11-14T20:47:27.595Z</time>
      </trkpt>
      <trkpt lat="47.621012" lon="7.757974">
        <ele>444.479646</ele>
        <time>2021-11-14T20:47:32.910Z</time>
      </trkpt>
      <trkpt lat="47.620828" lon="7.758215">
        <ele>444.438031</ele>
        <time>2021-11-14T20:47:36.243Z</time>
      </trkpt>
      <trkpt lat="47.620566" lon="7.758657">
        <ele>444.370764</ele>
        <time>2021-11-14T20:47:41.949Z</time>
      </trkpt>
      <trkpt lat="47.620058" lon="7.759513">
        <ele>445.180375</ele>
        <time>2021-11-14T20:47:56.187Z</time>
      </trkpt>
      <trkpt lat="47.619245" lon="7.761370">
        <ele>449.170606</ele>
        <time>2021-11-14T20:48:38.673Z</time>
      </trkpt>
      <trkpt lat="47.618940" lon="7.761783">
        <ele>449.715346</ele>
        <time>2021-11-14T20:48:49.271Z</time>
      </trkpt>
      <trkpt lat="47.618742" lon="7.761992">
        <ele>450.035906</ele>
        <time>2021-11-14T20:48:55.069Z</time>
      </trkpt>
      <trkpt lat="47.618586" lon="7.762088">
        <ele>450.258697</ele>
        <time>2021-11-14T20:48:58.728Z</time>
      </trkpt>
      <trkpt lat="47.618125" lon="7.762615">
        <ele>451.026433</ele>
        <time>2021-11-14T20:49:09.334Z</time>
      </trkpt>
      <trkpt lat="47.617894" lon="7.763136">
        <ele>451.444485</ele>
        <time>2021-11-14T20:49:15.275Z</time>
      </trkpt>
      <trkpt lat="47.617553" lon="7.762928">
        <ele>450.938895</ele>
        <time>2021-11-14T20:49:19.883Z</time>
      </trkpt>
      <trkpt lat="47.617386" lon="7.762826">
        <ele>450.691241</ele>
        <time>2021-11-14T20:49:21.852Z</time>
      </trkpt>
      <trkpt lat="47.616849" lon="7.762442">
        <ele>449.873779</ele>
        <time>2021-11-14T20:49:28.178Z</time>
      </trkpt>
      <trkpt lat="47.615919" lon="7.761819">
        <ele>449.123726</ele>
        <time>2021-11-14T20:49:40.512Z</time>
      </trkpt>
      <trkpt lat="47.615769" lon="7.761789">
        <ele>449.151300</ele>
        <time>2021-11-14T20:49:42.523Z</time>
      </trkpt>
      <trkpt lat="47.615620" lon="7.761773">
        <ele>449.178515</ele>
        <time>2021-11-14T20:49:44.526Z</time>
      </trkpt>
      <trkpt lat="47.615529" lon="7.761749">
        <ele>449.195353</ele>
        <time>2021-11-14T20:49:46.610Z</time>
      </trkpt>
      <trkpt lat="47.615007" lon="7.761358">
        <ele>449.301885</ele>
        <time>2021-11-14T20:49:55.589Z</time>
      </trkpt>
      <trkpt lat="47.614820" lon="7.761190">
        <ele>449.341712</ele>
        <time>2021-11-14T20:50:00.135Z</time>
      </trkpt>
      <trkpt lat="47.614766" lon="7.761162">
        <ele>449.352133</ele>
        <time>2021-11-14T20:50:01.033Z</time>
      </trkpt>
      <trkpt lat="47.614706" lon="7.761147">
        <ele>449.363218</ele>
        <time>2021-11-14T20:50:02.125Z</time>
      </trkpt>
      <trkpt lat="47.614392" lon="7.761173">
        <ele>449.688861</ele>
        <time>2021-11-14T20:50:09.045Z</time>
      </trkpt>
      <trkpt lat="47.614228" lon="7.761168">
        <ele>449.895961</ele>
        <time>2021-11-14T20:50:12.846Z</time>
      </trkpt>
      <trkpt lat="47.614092" lon="7.761125">
        <ele>450.071523</ele>
        <time>2021-11-14T20:50:16.343Z</time>
      </trkpt>
      <trkpt lat="47.613842" lon="7.761046">
        <ele>450.394240</ele>
        <time>2021-11-14T20:50:21.715Z</time>
      </trkpt>
      <trkpt lat="47.613657" lon="7.760988">
        <ele>450.632969</ele>
        <time>2021-11-14T20:50:25.839Z</time>
      </trkpt>
      <trkpt lat="47.613167" lon="7.760835">
        <ele>451.265170</ele>
        <time>2021-11-14T20:50:35.538Z</time>
      </trkpt>
      <trkpt lat="47.613078" lon="7.760746">
        <ele>451.400684</ele>
        <time>2021-11-14T20:50:37.148Z</time>
      </trkpt>
      <trkpt lat="47.613059" lon="7.760674">
        <ele>451.466492</ele>
        <time>2021-11-14T20:50:38.337Z</time>
      </trkpt>
      <trkpt lat="47.612960" lon="7.760706">
        <ele>451.594417</ele>
        <time>2021-11-14T20:50:39.988Z</time>
      </trkpt>
      <trkpt lat="47.612812" lon="7.760726">
        <ele>451.701958</ele>
        <time>2021-11-14T20:50:42.256Z</time>
      </trkpt>
      <trkpt lat="47.612630" lon="7.760759">
        <ele>451.797059</ele>
        <time>2021-11-14T20:50:45.571Z</time>
      </trkpt>
      <trkpt lat="47.612523" lon="7.760811">
        <ele>451.855460</ele>
        <time>2021-11-14T20:50:47.380Z</time>
      </trkpt>
      <trkpt lat="47.612441" lon="7.760890">
        <ele>451.906174</ele>
        <time>2021-11-14T20:50:48.904Z</time>
      </trkpt>
      <trkpt lat="47.612127" lon="7.761383">
        <ele>452.143323</ele>
        <time>2021-11-14T20:50:56.888Z</time>
      </trkpt>
      <trkpt lat="47.612075" lon="7.761435">
        <ele>452.175851</ele>
        <time>2021-11-14T20:50:57.872Z</time>
      </trkpt>
      <trkpt lat="47.612022" lon="7.761449">
        <ele>452.203773</ele>
        <time>2021-11-14T20:50:58.745Z</time>
      </trkpt>
      <trkpt lat="47.611933" lon="7.761457">
        <ele>452.250019</ele>
        <time>2021-11-14T20:51:00.118Z</time>
      </trkpt>
      <trkpt lat="47.610854" lon="7.761285">
        <ele>453.220049</ele>
        <time>2021-11-14T20:51:18.026Z</time>
      </trkpt>
      <trkpt lat="47.610760" lon="7.761304">
        <ele>453.354922</ele>
        <time>2021-11-14T20:51:19.686Z</time>
      </trkpt>
      <trkpt lat="47.610601" lon="7.761374">
        <ele>453.590714</ele>
        <time>2021-11-14T20:51:22.958Z</time>
      </trkpt>
      <trkpt lat="47.610565" lon="7.761273">
        <ele>453.700214</ele>
        <time>2021-11-14T20:51:24.500Z</time>
      </trkpt>
      <trkpt lat="47.610488" lon="7.761190">
        <ele>453.835536</ele>
        <time>2021-11-14T20:51:26.297Z</time>
      </trkpt>
      <trkpt lat="47.610076" lon="7.761100">
        <ele>454.427584</ele>
        <time>2021-11-14T20:51:35.192Z</time>
      </trkpt>
      <trkpt lat="47.608938" lon="7.760829">
        <ele>456.385542</ele>
        <time>2021-11-14T20:52:03.532Z</time>
      </trkpt>
      <trkpt lat="47.607825" lon="7.760537">
        <ele>458.544216</ele>
        <time>2021-11-14T20:52:29.023Z</time>
      </trkpt>
      <trkpt lat="47.607246" lon="7.760369">
        <ele>458.723147</ele>
        <time>2021-11-14T20:52:39.026Z</time>
      </trkpt>
      <trkpt lat="47.606171" lon="7.760045">
        <ele>459.012480</ele>
        <time>2021-11-14T20:52:54.390Z</time>
      </trkpt>
      <trkpt lat="47.605536" lon="7.759853">
        <ele>459.348512</ele>
        <time>2021-11-14T20:53:04.460Z</time>
      </trkpt>
      <trkpt lat="47.605325" lon="7.759787">
        <ele>459.473568</ele>
        <time>2021-11-14T20:53:08.271Z</time>
      </trkpt>
      <trkpt lat="47.604633" lon="7.759635">
        <ele>459.879253</ele>
        <time>2021-11-14T20:53:21.437Z</time>
      </trkpt>
      <trkpt lat="47.604421" lon="7.759606">
        <ele>460.002719</ele>
        <time>2021-11-14T20:53:25.661Z</time>
      </trkpt>
      <trkpt lat="47.604088" lon="7.759601">
        <ele>459.772839</ele>
        <time>2021-11-14T20:53:31.601Z</time>
      </trkpt>
      <trkpt lat="47.603613" lon="7.759659">
        <ele>458.957450</ele>
        <time>2021-11-14T20:53:38.456Z</time>
      </trkpt>
      <trkpt lat="47.603173" lon="7.759766">
        <ele>458.194637</ele>
        <time>2021-11-14T20:53:43.706Z</time>
      </trkpt>
      <trkpt lat="47.602902" lon="7.759841">
        <ele>457.723001</ele>
        <time>2021-11-14T20:53:46.685Z</time>
      </trkpt>
      <trkpt lat="47.602078" lon="7.760047">
        <ele>454.461460</ele>
        <time>2021-11-14T20:53:54.663Z</time>
      </trkpt>
      <trkpt lat="47.601600" lon="7.760073">
        <ele>451.555825</ele>
        <time>2021-11-14T20:53:59.061Z</time>
      </trkpt>
      <trkpt lat="47.601336" lon="7.760030">
        <ele>449.942474</ele>
        <time>2021-11-14T20:54:01.457Z</time>
      </trkpt>
      <trkpt lat="47.601032" lon="7.760002">
        <ele>448.092223</ele>
        <time>2021-11-14T20:54:04.194Z</time>
      </trkpt>
      <trkpt lat="47.600757" lon="7.759977">
        <ele>446.418558</ele>
        <time>2021-11-14T20:54:06.634Z</time>
      </trkpt>
      <trkpt lat="47.599976" lon="7.759788">
        <ele>440.763983</ele>
        <time>2021-11-14T20:54:13.728Z</time>
      </trkpt>
      <trkpt lat="47.599727" lon="7.759652">
        <ele>438.846720</ele>
        <time>2021-11-14T20:54:16.073Z</time>
      </trkpt>
      <trkpt lat="47.599495" lon="7.759407">
        <ele>436.788853</ele>
        <time>2021-11-14T20:54:18.617Z</time>
      </trkpt>
      <trkpt lat="47.599369" lon="7.759291">
        <ele>435.717290</ele>
        <time>2021-11-14T20:54:19.927Z</time>
      </trkpt>
      <trkpt lat="47.599038" lon="7.759240">
        <ele>433.312809</ele>
        <time>2021-11-14T20:54:22.948Z</time>
      </trkpt>
      <trkpt lat="47.598636" lon="7.759436">
        <ele>430.272325</ele>
        <time>2021-11-14T20:54:26.779Z</time>
      </trkpt>
      <trkpt lat="47.598492" lon="7.759485">
        <ele>429.211261</ele>
        <time>2021-11-14T20:54:28.112Z</time>
      </trkpt>
      <trkpt lat="47.598314" lon="7.759510">
        <ele>427.927170</ele>
        <time>2021-11-14T20:54:29.692Z</time>
      </trkpt>
      <trkpt lat="47.597328" lon="7.759556">
        <ele>420.842355</ele>
        <time>2021-11-14T20:54:38.573Z</time>
      </trkpt>
      <trkpt lat="47.596893" lon="7.759520">
        <ele>417.089022</ele>
        <time>2021-11-14T20:54:42.428Z</time>
      </trkpt>
      <trkpt lat="47.596644" lon="7.759494">
        <ele>414.841046</ele>
        <time>2021-11-14T20:54:44.580Z</time>
      </trkpt>
      <trkpt lat="47.596241" lon="7.759593">
        <ele>411.162278</ele>
        <time>2021-11-14T20:54:48.162Z</time>
      </trkpt>
      <trkpt lat="47.596134" lon="7.759703">
        <ele>409.989753</ele>
        <time>2021-11-14T20:54:49.306Z</time>
      </trkpt>
      <trkpt lat="47.596041" lon="7.759870">
        <ele>408.674438</ele>
        <time>2021-11-14T20:54:50.540Z</time>
      </trkpt>
      <trkpt lat="47.595854" lon="7.760335">
        <ele>405.386447</ele>
        <time>2021-11-14T20:54:53.682Z</time>
      </trkpt>
      <trkpt lat="47.595755" lon="7.760659">
        <ele>403.234190</ele>
        <time>2021-11-14T20:54:55.789Z</time>
      </trkpt>
      <trkpt lat="47.595685" lon="7.760825">
        <ele>402.057877</ele>
        <time>2021-11-14T20:54:56.900Z</time>
      </trkpt>
      <trkpt lat="47.595483" lon="7.761108">
        <ele>399.581953</ele>
        <time>2021-11-14T20:54:59.331Z</time>
      </trkpt>
      <trkpt lat="47.595252" lon="7.761235">
        <ele>397.386939</ele>
        <time>2021-11-14T20:55:01.466Z</time>
      </trkpt>
      <trkpt lat="47.595086" lon="7.761325">
        <ele>395.812193</ele>
        <time>2021-11-14T20:55:02.968Z</time>
      </trkpt>
      <trkpt lat="47.594411" lon="7.761312">
        <ele>389.797715</ele>
        <time>2021-11-14T20:55:08.870Z</time>
      </trkpt>
      <trkpt lat="47.593803" lon="7.761400">
        <ele>385.741661</ele>
        <time>2021-11-14T20:55:14.388Z</time>
      </trkpt>
      <trkpt lat="47.593513" lon="7.761296">
        <ele>384.109132</ele>
        <time>2021-11-14T20:55:17.142Z</time>
      </trkpt>
      <trkpt lat="47.593211" lon="7.761047">
        <ele>382.218421</ele>
        <time>2021-11-14T20:55:20.367Z</time>
      </trkpt>
      <trkpt lat="47.592736" lon="7.760559">
        <ele>379.056507</ele>
        <time>2021-11-14T20:55:25.878Z</time>
      </trkpt>
      <trkpt lat="47.592317" lon="7.760056">
        <ele>376.560134</ele>
        <time>2021-11-14T20:55:31.225Z</time>
      </trkpt>
      <trkpt lat="47.592205" lon="7.759833">
        <ele>375.766677</ele>
        <time>2021-11-14T20:55:33.029Z</time>
      </trkpt>
      <trkpt lat="47.591959" lon="7.759015">
        <ele>373.210774</ele>
        <time>2021-11-14T20:55:38.921Z</time>
      </trkpt>
      <trkpt lat="47.591911" lon="7.758184">
        <ele>370.830658</ele>
        <time>2021-11-14T20:55:44.453Z</time>
      </trkpt>
      <trkpt lat="47.591923" lon="7.757894">
        <ele>369.776893</ele>
        <time>2021-11-14T20:55:46.269Z</time>
      </trkpt>
      <trkpt lat="47.591970" lon="7.757544">
        <ele>368.296103</ele>
        <time>2021-11-14T20:55:48.545Z</time>
      </trkpt>
      <trkpt lat="47.592034" lon="7.757251">
        <ele>367.018161</ele>
        <time>2021-11-14T20:55:50.421Z</time>
      </trkpt>
      <trkpt lat="47.592097" lon="7.757042">
        <ele>366.068262</ele>
        <time>2021-11-14T20:55:51.843Z</time>
      </trkpt>
      <trkpt lat="47.592316" lon="7.756315">
        <ele>362.764432</ele>
        <time>2021-11-14T20:55:56.703Z</time>
      </trkpt>
      <trkpt lat="47.592371" lon="7.756099">
        <ele>361.806420</ele>
        <time>2021-11-14T20:55:58.117Z</time>
      </trkpt>
      <trkpt lat="47.592426" lon="7.755881">
        <ele>360.840640</ele>
        <time>2021-11-14T20:55:59.499Z</time>
      </trkpt>
      <trkpt lat="47.592484" lon="7.755586">
        <ele>359.565631</ele>
        <time>2021-11-14T20:56:01.366Z</time>
      </trkpt>
      <trkpt lat="47.592501" lon="7.755402">
        <ele>358.969526</ele>
        <time>2021-11-14T20:56:02.486Z</time>
      </trkpt>
      <trkpt lat="47.592485" lon="7.755255">
        <ele>358.521503</ele>
        <time>2021-11-14T20:56:03.394Z</time>
      </trkpt>
      <trkpt lat="47.592241" lon="7.754241">
        <ele>355.282133</ele>
        <time>2021-11-14T20:56:10.097Z</time>
      </trkpt>
      <trkpt lat="47.592004" lon="7.753676">
        <ele>353.280114</ele>
        <time>2021-11-14T20:56:14.427Z</time>
      </trkpt>
      <trkpt lat="47.592077" lon="7.753586">
        <ele>352.856550</ele>
        <time>2021-11-14T20:56:15.794Z</time>
      </trkpt>
      <trkpt lat="47.592009" lon="7.753508">
        <ele>352.472986</ele>
        <time>2021-11-14T20:56:17.057Z</time>
      </trkpt>
      <trkpt lat="47.591936" lon="7.753317">
        <ele>351.812419</ele>
        <time>2021-11-14T20:56:19.241Z</time>
      </trkpt>
      <trkpt lat="47.591083" lon="7.752004">
        <ele>352.353367</ele>
        <time>2021-11-14T20:56:45.490Z</time>
      </trkpt>
      <trkpt lat="47.590098" lon="7.749882">
        <ele>355.130254</ele>
        <time>2021-11-14T20:57:40.224Z</time>
      </trkpt>
      <trkpt lat="47.589568" lon="7.749013">
        <ele>356.558395</ele>
        <time>2021-11-14T20:58:00.591Z</time>
      </trkpt>
      <trkpt lat="47.588985" lon="7.748372">
        <ele>355.879200</ele>
        <time>2021-11-14T20:58:15.267Z</time>
      </trkpt>
      <trkpt lat="47.588878" lon="7.748286">
        <ele>355.765306</ele>
        <time>2021-11-14T20:58:17.263Z</time>
      </trkpt>
      <trkpt lat="47.588266" lon="7.747793">
        <ele>355.113537</ele>
        <time>2021-11-14T20:58:29.047Z</time>
      </trkpt>
      <trkpt lat="47.587687" lon="7.747530">
        <ele>352.577238</ele>
        <time>2021-11-14T20:58:37.729Z</time>
      </trkpt>
      <trkpt lat="47.587379" lon="7.747475">
        <ele>350.830075</ele>
        <time>2021-11-14T20:58:41.931Z</time>
      </trkpt>
      <trkpt lat="47.587005" lon="7.747510">
        <ele>348.719549</ele>
        <time>2021-11-14T20:58:46.961Z</time>
      </trkpt>
      <trkpt lat="47.586892" lon="7.747521">
        <ele>348.081773</ele>
        <time>2021-11-14T20:58:48.475Z</time>
      </trkpt>
      <trkpt lat="47.586221" lon="7.747631">
        <ele>344.052241</ele>
        <time>2021-11-14T20:58:56.901Z</time>
      </trkpt>
      <trkpt lat="47.585708" lon="7.747611">
        <ele>339.921101</ele>
        <time>2021-11-14T20:59:03.324Z</time>
      </trkpt>
      <trkpt lat="47.585319" lon="7.747432">
        <ele>336.642244</ele>
        <time>2021-11-14T20:59:08.384Z</time>
      </trkpt>
      <trkpt lat="47.585149" lon="7.747296">
        <ele>335.087204</ele>
        <time>2021-11-14T20:59:10.718Z</time>
      </trkpt>
      <trkpt lat="47.584829" lon="7.747027">
        <ele>332.125894</ele>
        <time>2021-11-14T20:59:15.364Z</time>
      </trkpt>
      <trkpt lat="47.584455" lon="7.746772">
        <ele>329.523136</ele>
        <time>2021-11-14T20:59:20.717Z</time>
      </trkpt>
      <trkpt lat="47.583911" lon="7.746613">
        <ele>327.150227</ele>
        <time>2021-11-14T20:59:28.051Z</time>
      </trkpt>
      <trkpt lat="47.580782" lon="7.746760">
        <ele>316.704793</ele>
        <time>2021-11-14T21:00:14.693Z</time>
      </trkpt>
      <trkpt lat="47.580271" lon="7.746703">
        <ele>315.119938</ele>
        <time>2021-11-14T21:00:22.294Z</time>
      </trkpt>
      <trkpt lat="47.580184" lon="7.746663">
        <ele>314.838227</ele>
        <time>2021-11-14T21:00:23.575Z</time>
      </trkpt>
      <trkpt lat="47.579602" lon="7.746393">
        <ele>312.952177</ele>
        <time>2021-11-14T21:00:32.544Z</time>
      </trkpt>
      <trkpt lat="47.579056" lon="7.745935">
        <ele>311.005902</ele>
        <time>2021-11-14T21:00:41.571Z</time>
      </trkpt>
      <trkpt lat="47.578533" lon="7.745399">
        <ele>309.027408</ele>
        <time>2021-11-14T21:00:50.861Z</time>
      </trkpt>
      <trkpt lat="47.578043" lon="7.744969">
        <ele>307.255521</ele>
        <time>2021-11-14T21:00:59.247Z</time>
      </trkpt>
      <trkpt lat="47.577768" lon="7.744768">
        <ele>306.309297</ele>
        <time>2021-11-14T21:01:03.786Z</time>
      </trkpt>
      <trkpt lat="47.576996" lon="7.744361">
        <ele>303.963424</ele>
        <time>2021-11-14T21:01:15.922Z</time>
      </trkpt>
      <trkpt lat="47.576383" lon="7.744201">
        <ele>302.181393</ele>
        <time>2021-11-14T21:01:25.188Z</time>
      </trkpt>
      <trkpt lat="47.575273" lon="7.744077">
        <ele>299.106648</ele>
        <time>2021-11-14T21:01:41.739Z</time>
      </trkpt>
      <trkpt lat="47.575128" lon="7.744026">
        <ele>298.701208</ele>
        <time>2021-11-14T21:01:43.929Z</time>
      </trkpt>
      <trkpt lat="47.574873" lon="7.743935">
        <ele>297.987634</ele>
        <time>2021-11-14T21:01:47.828Z</time>
      </trkpt>
      <trkpt lat="47.574549" lon="7.743645">
        <ele>296.957925</ele>
        <time>2021-11-14T21:01:53.508Z</time>
      </trkpt>
      <trkpt lat="47.574425" lon="7.743464">
        <ele>296.484460</ele>
        <time>2021-11-14T21:01:56.143Z</time>
      </trkpt>
      <trkpt lat="47.574122" lon="7.742787">
        <ele>295.718695</ele>
        <time>2021-11-14T21:02:04.711Z</time>
      </trkpt>
      <trkpt lat="47.573998" lon="7.742684">
        <ele>295.537698</ele>
        <time>2021-11-14T21:02:06.953Z</time>
      </trkpt>
      <trkpt lat="47.573895" lon="7.742636">
        <ele>295.400214</ele>
        <time>2021-11-14T21:02:08.173Z</time>
      </trkpt>
      <trkpt lat="47.573635" lon="7.742528">
        <ele>295.056390</ele>
        <time>2021-11-14T21:02:11.422Z</time>
      </trkpt>
      <trkpt lat="47.573477" lon="7.743683">
        <ele>294.062030</ele>
        <time>2021-11-14T21:02:21.981Z</time>
      </trkpt>
      <trkpt lat="47.573397" lon="7.744238">
        <ele>293.963193</ele>
        <time>2021-11-14T21:02:27.267Z</time>
      </trkpt>
      <trkpt lat="47.573383" lon="7.744318">
        <ele>293.948799</ele>
        <time>2021-11-14T21:02:28.067Z</time>
      </trkpt>
      <trkpt lat="47.573349" lon="7.744526">
        <ele>293.911527</ele>
        <time>2021-11-14T21:02:29.881Z</time>
      </trkpt>
      <trkpt lat="47.573329" lon="7.744647">
        <ele>293.889831</ele>
        <time>2021-11-14T21:02:31.566Z</time>
      </trkpt>
      <trkpt lat="47.573193" lon="7.745027">
        <ele>293.814917</ele>
        <time>2021-11-14T21:02:35.308Z</time>
      </trkpt>
      <trkpt lat="47.573070" lon="7.745225">
        <ele>293.768042</ele>
        <time>2021-11-14T21:02:38.561Z</time>
      </trkpt>
      <trkpt lat="47.572897" lon="7.745419">
        <ele>293.712043</ele>
        <time>2021-11-14T21:02:41.510Z</time>
      </trkpt>
      <trkpt lat="47.572693" lon="7.745654">
        <ele>293.645349</ele>
        <time>2021-11-14T21:02:45.097Z</time>
      </trkpt>
      <trkpt lat="47.572478" lon="7.745914">
        <ele>293.491031</ele>
        <time>2021-11-14T21:02:49.236Z</time>
      </trkpt>
      <trkpt lat="47.572312" lon="7.746125">
        <ele>293.271324</ele>
        <time>2021-11-14T21:02:52.226Z</time>
      </trkpt>
      <trkpt lat="47.572107" lon="7.746364">
        <ele>293.009282</ele>
        <time>2021-11-14T21:02:55.361Z</time>
      </trkpt>
      <trkpt lat="47.571996" lon="7.746510">
        <ele>292.860181</ele>
        <time>2021-11-14T21:02:57.327Z</time>
      </trkpt>
      <trkpt lat="47.571810" lon="7.746732">
        <ele>292.620251</ele>
        <time>2021-11-14T21:03:00.041Z</time>
      </trkpt>
      <trkpt lat="47.571732" lon="7.746831">
        <ele>292.517079</ele>
        <time>2021-11-14T21:03:01.287Z</time>
      </trkpt>
      <trkpt lat="47.571615" lon="7.746974">
        <ele>292.364718</ele>
        <time>2021-11-14T21:03:03.028Z</time>
      </trkpt>
      <trkpt lat="47.571591" lon="7.747005">
        <ele>292.332734</ele>
        <time>2021-11-14T21:03:03.375Z</time>
      </trkpt>
      <trkpt lat="47.571247" lon="7.747396">
        <ele>291.897193</ele>
        <time>2021-11-14T21:03:08.477Z</time>
      </trkpt>
      <trkpt lat="47.570998" lon="7.747803">
        <ele>291.406782</ele>
        <time>2021-11-14T21:03:12.857Z</time>
      </trkpt>
      <trkpt lat="47.570938" lon="7.747976">
        <ele>291.217401</ele>
        <time>2021-11-14T21:03:14.514Z</time>
      </trkpt>
      <trkpt lat="47.570885" lon="7.748211">
        <ele>290.976162</ele>
        <time>2021-11-14T21:03:16.527Z</time>
      </trkpt>
      <trkpt lat="47.570858" lon="7.749747">
        <ele>289.480221</ele>
        <time>2021-11-14T21:03:28.364Z</time>
      </trkpt>
      <trkpt lat="47.570866" lon="7.750436">
        <ele>288.901862</ele>
        <time>2021-11-14T21:03:33.640Z</time>
      </trkpt>
      <trkpt lat="47.570870" lon="7.750695">
        <ele>288.709430</ele>
        <time>2021-11-14T21:03:35.663Z</time>
      </trkpt>
      <trkpt lat="47.570876" lon="7.751057">
        <ele>288.440460</ele>
        <time>2021-11-14T21:03:38.575Z</time>
      </trkpt>
      <trkpt lat="47.570885" lon="7.751787">
        <ele>287.898137</ele>
        <time>2021-11-14T21:03:44.461Z</time>
      </trkpt>
      <trkpt lat="47.570869" lon="7.752048">
        <ele>287.703471</ele>
        <time>2021-11-14T21:03:46.637Z</time>
      </trkpt>
      <trkpt lat="47.570854" lon="7.752277">
        <ele>287.532574</ele>
        <time>2021-11-14T21:03:48.519Z</time>
      </trkpt>
      <trkpt lat="47.570840" lon="7.752506">
        <ele>287.361779</ele>
        <time>2021-11-14T21:03:50.505Z</time>
      </trkpt>
      <trkpt lat="47.570759" lon="7.753008">
        <ele>287.118858</ele>
        <time>2021-11-14T21:03:55.012Z</time>
      </trkpt>
      <trkpt lat="47.570466" lon="7.754138">
        <ele>286.743583</ele>
        <time>2021-11-14T21:04:06.646Z</time>
      </trkpt>
      <trkpt lat="47.570185" lon="7.755068">
        <ele>286.427694</ele>
        <time>2021-11-14T21:04:16.098Z</time>
      </trkpt>
      <trkpt lat="47.569898" lon="7.756021">
        <ele>285.780603</ele>
        <time>2021-11-14T21:04:24.769Z</time>
      </trkpt>
      <trkpt lat="47.569743" lon="7.756603">
        <ele>285.369377</ele>
        <time>2021-11-14T21:04:29.890Z</time>
      </trkpt>
      <trkpt lat="47.569564" lon="7.757554">
        <ele>284.720487</ele>
        <time>2021-11-14T21:04:37.907Z</time>
      </trkpt>
      <trkpt lat="47.569423" lon="7.758505">
        <ele>284.093275</ele>
        <time>2021-11-14T21:04:45.656Z</time>
      </trkpt>
      <trkpt lat="47.569394" lon="7.758678">
        <ele>283.978778</ele>
        <time>2021-11-14T21:04:47.140Z</time>
      </trkpt>
      <trkpt lat="47.569371" lon="7.758806">
        <ele>283.893697</ele>
        <time>2021-11-14T21:04:48.219Z</time>
      </trkpt>
      <trkpt lat="47.569318" lon="7.759087">
        <ele>283.706289</ele>
        <time>2021-11-14T21:04:50.553Z</time>
      </trkpt>
      <trkpt lat="47.569287" lon="7.759231">
        <ele>283.609202</ele>
        <time>2021-11-14T21:04:51.892Z</time>
      </trkpt>
      <trkpt lat="47.569052" lon="7.760178">
        <ele>282.961099</ele>
        <time>2021-11-14T21:05:00.577Z</time>
      </trkpt>
      <trkpt lat="47.568658" lon="7.761470">
        <ele>282.364713</ele>
        <time>2021-11-14T21:05:13.123Z</time>
      </trkpt>
      <trkpt lat="47.568588" lon="7.761697">
        <ele>282.261773</ele>
        <time>2021-11-14T21:05:15.251Z</time>
      </trkpt>
      <trkpt lat="47.568566" lon="7.761768">
        <ele>282.229548</ele>
        <time>2021-11-14T21:05:15.911Z</time>
      </trkpt>
      <trkpt lat="47.568495" lon="7.761994">
        <ele>282.126726</ele>
        <time>2021-11-14T21:05:18.063Z</time>
      </trkpt>
      <trkpt lat="47.568423" lon="7.762232">
        <ele>282.019148</ele>
        <time>2021-11-14T21:05:20.262Z</time>
      </trkpt>
      <trkpt lat="47.568377" lon="7.762379">
        <ele>281.952314</ele>
        <time>2021-11-14T21:05:21.673Z</time>
      </trkpt>
      <trkpt lat="47.567932" lon="7.763827">
        <ele>281.565116</ele>
        <time>2021-11-14T21:05:36.170Z</time>
      </trkpt>
      <trkpt lat="47.567739" lon="7.764462">
        <ele>281.422839</ele>
        <time>2021-11-14T21:05:43.002Z</time>
      </trkpt>
      <trkpt lat="47.567574" lon="7.765017">
        <ele>281.298940</ele>
        <time>2021-11-14T21:05:48.850Z</time>
      </trkpt>
      <trkpt lat="47.567427" lon="7.765503">
        <ele>281.161183</ele>
        <time>2021-11-14T21:05:53.898Z</time>
      </trkpt>
      <trkpt lat="47.566939" lon="7.766996">
        <ele>280.718378</ele>
        <time>2021-11-14T21:06:08.848Z</time>
      </trkpt>
      <trkpt lat="47.566747" lon="7.767407">
        <ele>280.584947</ele>
        <time>2021-11-14T21:06:13.337Z</time>
      </trkpt>
      <trkpt lat="47.566290" lon="7.768111">
        <ele>280.411479</ele>
        <time>2021-11-14T21:06:22.140Z</time>
      </trkpt>
      <trkpt lat="47.565945" lon="7.768659">
        <ele>280.281593</ele>
        <time>2021-11-14T21:06:29.022Z</time>
      </trkpt>
      <trkpt lat="47.565887" lon="7.768778">
        <ele>280.256152</ele>
        <time>2021-11-14T21:06:30.652Z</time>
      </trkpt>
      <trkpt lat="47.565730" lon="7.769200">
        <ele>280.172640</ele>
        <time>2021-11-14T21:06:35.250Z</time>
      </trkpt>
      <trkpt lat="47.565639" lon="7.769724">
        <ele>280.136714</ele>
        <time>2021-11-14T21:06:40.711Z</time>
      </trkpt>
      <trkpt lat="47.565623" lon="7.769892">
        <ele>280.160096</ele>
        <time>2021-11-14T21:06:42.601Z</time>
      </trkpt>
      <trkpt lat="47.565618" lon="7.770120">
        <ele>280.191533</ele>
        <time>2021-11-14T21:06:44.671Z</time>
      </trkpt>
      <trkpt lat="47.565625" lon="7.770603">
        <ele>280.258111</ele>
        <time>2021-11-14T21:06:49.743Z</time>
      </trkpt>
      <trkpt lat="47.565623" lon="7.771401">
        <ele>280.368085</ele>
        <time>2021-11-14T21:06:58.594Z</time>
      </trkpt>
      <trkpt lat="47.565557" lon="7.771818">
        <ele>280.427112</ele>
        <time>2021-11-14T21:07:03.202Z</time>
      </trkpt>
      <trkpt lat="47.565452" lon="7.772236">
        <ele>280.499773</ele>
        <time>2021-11-14T21:07:08.052Z</time>
      </trkpt>
      <trkpt lat="47.565274" lon="7.772804">
        <ele>280.681446</ele>
        <time>2021-11-14T21:07:14.530Z</time>
      </trkpt>
      <trkpt lat="47.565215" lon="7.772993">
        <ele>280.741856</ele>
        <time>2021-11-14T21:07:16.834Z</time>
      </trkpt>
      <trkpt lat="47.565082" lon="7.773413">
        <ele>280.876443</ele>
        <time>2021-11-14T21:07:21.903Z</time>
      </trkpt>
      <trkpt lat="47.565017" lon="7.773684">
        <ele>280.959877</ele>
        <time>2021-11-14T21:07:25.186Z</time>
      </trkpt>
      <trkpt lat="47.564949" lon="7.774019">
        <ele>281.061359</ele>
        <time>2021-11-14T21:07:29.145Z</time>
      </trkpt>
      <trkpt lat="47.564938" lon="7.774103">
        <ele>281.086181</ele>
        <time>2021-11-14T21:07:30.156Z</time>
      </trkpt>
      <trkpt lat="47.564907" lon="7.774234">
        <ele>281.126452</ele>
        <time>2021-11-14T21:07:31.676Z</time>
      </trkpt>
      <trkpt lat="47.564861" lon="7.774427">
        <ele>281.185830</ele>
        <time>2021-11-14T21:07:34.066Z</time>
      </trkpt>
      <trkpt lat="47.564815" lon="7.774448">
        <ele>281.206523</ele>
        <time>2021-11-14T21:07:34.982Z</time>
      </trkpt>
      <trkpt lat="47.564709" lon="7.774675">
        <ele>281.299046</ele>
        <time>2021-11-14T21:07:38.235Z</time>
      </trkpt>
      <trkpt lat="47.564712" lon="7.774747">
        <ele>281.327436</ele>
        <time>2021-11-14T21:07:39.114Z</time>
      </trkpt>
      <trkpt lat="47.564658" lon="7.774885">
        <ele>281.390218</ele>
        <time>2021-11-14T21:07:41.085Z</time>
      </trkpt>
      <trkpt lat="47.564621" lon="7.774969">
        <ele>281.429697</ele>
        <time>2021-11-14T21:07:42.332Z</time>
      </trkpt>
      <trkpt lat="47.564601" lon="7.775042">
        <ele>281.460704</ele>
        <time>2021-11-14T21:07:43.315Z</time>
      </trkpt>
      <trkpt lat="47.564226" lon="7.776836">
        <ele>282.199844</ele>
        <time>2021-11-14T21:08:05.146Z</time>
      </trkpt>
      <trkpt lat="47.564027" lon="7.778327">
        <ele>282.280826</ele>
        <time>2021-11-14T21:08:21.386Z</time>
      </trkpt>
      <trkpt lat="47.563988" lon="7.778618">
        <ele>282.276140</ele>
        <time>2021-11-14T21:08:24.443Z</time>
      </trkpt>
      <trkpt lat="47.563956" lon="7.778868">
        <ele>282.272121</ele>
        <time>2021-11-14T21:08:27.165Z</time>
      </trkpt>
      <trkpt lat="47.563901" lon="7.779085">
        <ele>282.268460</ele>
        <time>2021-11-14T21:08:29.270Z</time>
      </trkpt>
      <trkpt lat="47.563891" lon="7.779124">
        <ele>282.267801</ele>
        <time>2021-11-14T21:08:29.679Z</time>
      </trkpt>
      <trkpt lat="47.563838" lon="7.779303">
        <ele>282.264713</ele>
        <time>2021-11-14T21:08:31.571Z</time>
      </trkpt>
      <trkpt lat="47.563771" lon="7.779469">
        <ele>282.261658</ele>
        <time>2021-11-14T21:08:33.238Z</time>
      </trkpt>
      <trkpt lat="47.563704" lon="7.779626">
        <ele>282.258724</ele>
        <time>2021-11-14T21:08:34.862Z</time>
      </trkpt>
      <trkpt lat="47.563652" lon="7.779747">
        <ele>282.185544</ele>
        <time>2021-11-14T21:08:36.146Z</time>
      </trkpt>
      <trkpt lat="47.563533" lon="7.779944">
        <ele>282.048033</ele>
        <time>2021-11-14T21:08:38.336Z</time>
      </trkpt>
      <trkpt lat="47.563492" lon="7.780014">
        <ele>281.999826</ele>
        <time>2021-11-14T21:08:39.116Z</time>
      </trkpt>
      <trkpt lat="47.563386" lon="7.780199">
        <ele>281.873604</ele>
        <time>2021-11-14T21:08:41.195Z</time>
      </trkpt>
      <trkpt lat="47.563299" lon="7.780330">
        <ele>281.778011</ele>
        <time>2021-11-14T21:08:42.655Z</time>
      </trkpt>
      <trkpt lat="47.563211" lon="7.780461">
        <ele>281.681876</ele>
        <time>2021-11-14T21:08:44.193Z</time>
      </trkpt>
      <trkpt lat="47.562775" lon="7.781130">
        <ele>281.198157</ele>
        <time>2021-11-14T21:08:52.082Z</time>
      </trkpt>
      <trkpt lat="47.562657" lon="7.781311">
        <ele>281.067264</ele>
        <time>2021-11-14T21:08:54.248Z</time>
      </trkpt>
      <trkpt lat="47.562099" lon="7.782166">
        <ele>280.516954</ele>
        <time>2021-11-14T21:09:04.426Z</time>
      </trkpt>
      <trkpt lat="47.561943" lon="7.782422">
        <ele>280.366478</ele>
        <time>2021-11-14T21:09:07.365Z</time>
      </trkpt>
      <trkpt lat="47.561822" lon="7.782640">
        <ele>280.243339</ele>
        <time>2021-11-14T21:09:09.738Z</time>
      </trkpt>
      <trkpt lat="47.561610" lon="7.782977">
        <ele>280.042348</ele>
        <time>2021-11-14T21:09:13.701Z</time>
      </trkpt>
      <trkpt lat="47.561406" lon="7.783302">
        <ele>279.848713</ele>
        <time>2021-11-14T21:09:17.675Z</time>
      </trkpt>
      <trkpt lat="47.561312" lon="7.783440">
        <ele>279.763172</ele>
        <time>2021-11-14T21:09:19.451Z</time>
      </trkpt>
      <trkpt lat="47.561041" lon="7.783716">
        <ele>279.629368</ele>
        <time>2021-11-14T21:09:23.958Z</time>
      </trkpt>
      <trkpt lat="47.560877" lon="7.783815">
        <ele>279.571606</ele>
        <time>2021-11-14T21:09:26.526Z</time>
      </trkpt>
      <trkpt lat="47.560427" lon="7.783951">
        <ele>279.421802</ele>
        <time>2021-11-14T21:09:33.060Z</time>
      </trkpt>
      <trkpt lat="47.559876" lon="7.784127">
        <ele>279.237946</ele>
        <time>2021-11-14T21:09:40.887Z</time>
      </trkpt>
      <trkpt lat="47.559415" lon="7.784281">
        <ele>279.014523</ele>
        <time>2021-11-14T21:09:47.163Z</time>
      </trkpt>
      <trkpt lat="47.559319" lon="7.784326">
        <ele>278.923492</ele>
        <time>2021-11-14T21:09:48.492Z</time>
      </trkpt>
      <trkpt lat="47.559229" lon="7.784376">
        <ele>278.836594</ele>
        <time>2021-11-14T21:09:49.764Z</time>
      </trkpt>
      <trkpt lat="47.559117" lon="7.784473">
        <ele>278.719311</ele>
        <time>2021-11-14T21:09:51.466Z</time>
      </trkpt>
      <trkpt lat="47.559008" lon="7.784639">
        <ele>278.578002</ele>
        <time>2021-11-14T21:09:53.543Z</time>
      </trkpt>
      <trkpt lat="47.558986" lon="7.784674">
        <ele>278.548820</ele>
        <time>2021-11-14T21:09:53.972Z</time>
      </trkpt>
      <trkpt lat="47.558920" lon="7.784817">
        <ele>278.443122</ele>
        <time>2021-11-14T21:09:55.512Z</time>
      </trkpt>
      <trkpt lat="47.558822" lon="7.785030">
        <ele>278.285840</ele>
        <time>2021-11-14T21:09:57.788Z</time>
      </trkpt>
      <trkpt lat="47.558782" lon="7.785128">
        <ele>278.215963</ele>
        <time>2021-11-14T21:09:58.793Z</time>
      </trkpt>
      <trkpt lat="47.558747" lon="7.785215">
        <ele>278.154168</ele>
        <time>2021-11-14T21:09:59.668Z</time>
      </trkpt>
      <trkpt lat="47.558660" lon="7.785434">
        <ele>277.999122</ele>
        <time>2021-11-14T21:10:01.859Z</time>
      </trkpt>
      <trkpt lat="47.558577" lon="7.785598">
        <ele>277.874052</ele>
        <time>2021-11-14T21:10:03.611Z</time>
      </trkpt>
      <trkpt lat="47.558367" lon="7.785913">
        <ele>277.603902</ele>
        <time>2021-11-14T21:10:07.230Z</time>
      </trkpt>
      <trkpt lat="47.558166" lon="7.786166">
        <ele>276.965459</ele>
        <time>2021-11-14T21:10:10.164Z</time>
      </trkpt>
      <trkpt lat="47.558071" lon="7.786282">
        <ele>276.515133</ele>
        <time>2021-11-14T21:10:11.486Z</time>
      </trkpt>
      <trkpt lat="47.558006" lon="7.786349">
        <ele>276.225473</ele>
        <time>2021-11-14T21:10:12.326Z</time>
      </trkpt>
      <trkpt lat="47.557921" lon="7.786413">
        <ele>275.876679</ele>
        <time>2021-11-14T21:10:13.320Z</time>
      </trkpt>
      <trkpt lat="47.557901" lon="7.786427">
        <ele>275.795761</ele>
        <time>2021-11-14T21:10:13.537Z</time>
      </trkpt>
      <trkpt lat="47.557823" lon="7.786486">
        <ele>275.475388</ele>
        <time>2021-11-14T21:10:14.433Z</time>
      </trkpt>
      <trkpt lat="47.557711" lon="7.786536">
        <ele>275.047469</ele>
        <time>2021-11-14T21:10:15.607Z</time>
      </trkpt>
      <trkpt lat="47.557562" lon="7.786575">
        <ele>274.493946</ele>
        <time>2021-11-14T21:10:17.079Z</time>
      </trkpt>
      <trkpt lat="47.557490" lon="7.786586">
        <ele>274.229154</ele>
        <time>2021-11-14T21:10:17.786Z</time>
      </trkpt>
      <trkpt lat="47.557180" lon="7.786638">
        <ele>273.087842</ele>
        <time>2021-11-14T21:10:20.755Z</time>
      </trkpt>
      <trkpt lat="47.557118" lon="7.786638">
        <ele>272.861028</ele>
        <time>2021-11-14T21:10:21.338Z</time>
      </trkpt>
      <trkpt lat="47.557035" lon="7.786628">
        <ele>272.556389</ele>
        <time>2021-11-14T21:10:22.117Z</time>
      </trkpt>
      <trkpt lat="47.556958" lon="7.786609">
        <ele>272.270822</ele>
        <time>2021-11-14T21:10:22.856Z</time>
      </trkpt>
      <trkpt lat="47.556914" lon="7.786662">
        <ele>272.063383</ele>
        <time>2021-11-14T21:10:23.392Z</time>
      </trkpt>
      <trkpt lat="47.556883" lon="7.786718">
        <ele>271.884567</ele>
        <time>2021-11-14T21:10:23.846Z</time>
      </trkpt>
      <trkpt lat="47.556812" lon="7.787001">
        <ele>271.139172</ele>
        <time>2021-11-14T21:10:25.782Z</time>
      </trkpt>
      <trkpt lat="47.556783" lon="7.787207">
        <ele>270.718004</ele>
        <time>2021-11-14T21:10:27.141Z</time>
      </trkpt>
      <trkpt lat="47.556658" lon="7.787468">
        <ele>270.189379</ele>
        <time>2021-11-14T21:10:29.220Z</time>
      </trkpt>
      <trkpt lat="47.556539" lon="7.787710">
        <ele>269.694806</ele>
        <time>2021-11-14T21:10:31.190Z</time>
      </trkpt>
      <trkpt lat="47.556357" lon="7.788058">
        <ele>268.967606</ele>
        <time>2021-11-14T21:10:34.157Z</time>
      </trkpt>
      <trkpt lat="47.556249" lon="7.788270">
        <ele>268.528871</ele>
        <time>2021-11-14T21:10:35.977Z</time>
      </trkpt>
      <trkpt lat="47.556137" lon="7.788488">
        <ele>268.076324</ele>
        <time>2021-11-14T21:10:37.884Z</time>
      </trkpt>
      <trkpt lat="47.556111" lon="7.788537">
        <ele>267.973368</ele>
        <time>2021-11-14T21:10:38.309Z</time>
      </trkpt>
      <trkpt lat="47.556069" lon="7.788614">
        <ele>267.809836</ele>
        <time>2021-11-14T21:10:39.053Z</time>
      </trkpt>
      <trkpt lat="47.555936" lon="7.788828">
        <ele>267.329310</ele>
        <time>2021-11-14T21:10:41.297Z</time>
      </trkpt>
      <trkpt lat="47.555085" lon="7.789685">
        <ele>267.993237</ele>
        <time>2021-11-14T21:11:23.482Z</time>
      </trkpt>
      <trkpt lat="47.555062" lon="7.789726">
        <ele>268.069667</ele>
        <time>2021-11-14T21:11:25.177Z</time>
      </trkpt>
      <trkpt lat="47.555052" lon="7.789771">
        <ele>268.137585</ele>
        <time>2021-11-14T21:11:26.605Z</time>
      </trkpt>
      <trkpt lat="47.555031" lon="7.789894">
        <ele>268.319469</ele>
        <time>2021-11-14T21:11:30.837Z</time>
      </trkpt>
      <trkpt lat="47.554999" lon="7.790090">
        <ele>268.608553</ele>
        <time>2021-11-14T21:11:38.097Z</time>
      </trkpt>
      <trkpt lat="47.554865" lon="7.790678">
        <ele>269.498252</ele>
        <time>2021-11-14T21:11:59.206Z</time>
      </trkpt>
      <trkpt lat="47.554858" lon="7.790696">
        <ele>269.528034</ele>
        <time>2021-11-14T21:12:00.193Z</time>
      </trkpt>
      <trkpt lat="47.554788" lon="7.790844">
        <ele>269.787118</ele>
        <time>2021-11-14T21:12:05.661Z</time>
      </trkpt>
      <trkpt lat="47.554756" lon="7.790897">
        <ele>269.889066</ele>
        <time>2021-11-14T21:12:08.330Z</time>
      </trkpt>
      <trkpt lat="47.554878" lon="7.791338">
        <ele>270.572343</ele>
        <time>2021-11-14T21:12:23.691Z</time>
      </trkpt>
      <trkpt lat="47.554911" lon="7.791459">
        <ele>270.759448</ele>
        <time>2021-11-14T21:12:28.269Z</time>
      </trkpt>
      <trkpt lat="47.555027" lon="7.791948">
        <ele>271.502566</ele>
        <time>2021-11-14T21:12:44.488Z</time>
      </trkpt>
      <trkpt lat="47.555085" lon="7.792163">
        <ele>271.834521</ele>
        <time>2021-11-14T21:12:51.673Z</time>
      </trkpt>
      <trkpt lat="47.555127" lon="7.792307">
        <ele>272.059426</ele>
        <time>2021-11-14T21:12:55.989Z</time>
      </trkpt>
      <trkpt lat="47.555237" lon="7.792734">
        <ele>272.714689</ele>
        <time>2021-11-14T21:13:10.159Z</time>
      </trkpt>
      <trkpt lat="47.555277" lon="7.793131">
        <ele>273.290166</ele>
        <time>2021-11-14T21:13:22.370Z</time>
      </trkpt>
      <trkpt lat="47.555274" lon="7.793423">
        <ele>273.708847</ele>
        <time>2021-11-14T21:13:30.829Z</time>
      </trkpt>
      <trkpt lat="47.555281" lon="7.793955">
        <ele>274.483847</ele>
        <time>2021-11-14T21:13:46.497Z</time>
      </trkpt>
      <trkpt lat="47.555282" lon="7.794033">
        <ele>274.599998</ele>
        <time>2021-11-14T21:13:48.779Z</time>
      </trkpt>
      <trkpt lat="47.555288" lon="7.794318">
        <ele>275.024524</ele>
        <time>2021-11-14T21:13:57.475Z</time>
      </trkpt>
      <trkpt lat="47.555288" lon="7.794496">
        <ele>275.289538</ele>
        <time>2021-11-14T21:14:02.344Z</time>
      </trkpt>
      <trkpt lat="47.555141" lon="7.794516">
        <ele>275.615198</ele>
        <time>2021-11-14T21:14:08.926Z</time>
      </trkpt>
      <trkpt lat="47.555010" lon="7.794553">
        <ele>275.909399</ele>
        <time>2021-11-14T21:14:14.778Z</time>
      </trkpt>
      <trkpt lat="47.554864" lon="7.794599">
        <ele>276.238689</ele>
        <time>2021-11-14T21:14:21.125Z</time>
      </trkpt>
      <trkpt lat="47.554864" lon="7.794599">
        <ele>276.238689</ele>
        <time>2021-11-14T21:14:21.203Z</time>
      </trkpt>
      <trkpt lat="47.554495" lon="7.794723">
        <ele>277.073409</ele>
        <time>2021-11-14T21:14:38.606Z</time>
      </trkpt>
      <trkpt lat="47.554352" lon="7.794791">
        <ele>277.404727</ele>
        <time>2021-11-14T21:14:45.856Z</time>
      </trkpt>
      <trkpt lat="47.554254" lon="7.794823">
        <ele>277.626111</ele>
        <time>2021-11-14T21:14:50.413Z</time>
      </trkpt>
      <trkpt lat="47.554004" lon="7.794824">
        <ele>278.216448</ele>
        <time>2021-11-14T21:15:02.746Z</time>
      </trkpt>
      <trkpt lat="47.553930" lon="7.794811">
        <ele>278.500195</ele>
        <time>2021-11-14T21:15:06.383Z</time>
      </trkpt>
      <trkpt lat="47.553883" lon="7.794947">
        <ele>278.892850</ele>
        <time>2021-11-14T21:15:09.886Z</time>
      </trkpt>
      <trkpt lat="47.553854" lon="7.795042">
        <ele>279.160797</ele>
        <time>2021-11-14T21:15:12.417Z</time>
      </trkpt>
      <trkpt lat="47.553847" lon="7.795063">
        <ele>279.220987</ele>
        <time>2021-11-14T21:15:12.974Z</time>
      </trkpt>
      <trkpt lat="47.553724" lon="7.795281">
        <ele>279.951199</ele>
        <time>2021-11-14T21:15:19.726Z</time>
      </trkpt>
      <trkpt lat="47.553702" lon="7.795313">
        <ele>280.068588</ele>
        <time>2021-11-14T21:15:20.790Z</time>
      </trkpt>
      <trkpt lat="47.553628" lon="7.795414">
        <ele>280.451688</ele>
        <time>2021-11-14T21:15:24.607Z</time>
      </trkpt>
      <trkpt lat="47.553580" lon="7.795460">
        <ele>280.669357</ele>
        <time>2021-11-14T21:15:26.666Z</time>
      </trkpt>
      <trkpt lat="47.553379" lon="7.795607">
        <ele>281.522871</ele>
        <time>2021-11-14T21:15:34.527Z</time>
      </trkpt>
      <trkpt lat="47.553256" lon="7.795697">
        <ele>282.045221</ele>
        <time>2021-11-14T21:15:39.636Z</time>
      </trkpt>
      <trkpt lat="47.553218" lon="7.795662">
        <ele>282.215593</ele>
        <time>2021-11-14T21:15:40.802Z</time>
      </trkpt>
      <trkpt lat="47.553188" lon="7.795642">
        <ele>282.340856</ele>
        <time>2021-11-14T21:15:41.719Z</time>
      </trkpt>
      <trkpt lat="47.553162" lon="7.795633">
        <ele>282.442524</ele>
        <time>2021-11-14T21:15:42.639Z</time>
      </trkpt>
      <trkpt lat="47.553139" lon="7.795630">
        <ele>282.530441</ele>
        <time>2021-11-14T21:15:43.310Z</time>
      </trkpt>
      <trkpt lat="47.552930" lon="7.795600">
        <ele>283.329988</ele>
        <time>2021-11-14T21:15:49.657Z</time>
      </trkpt>
      <trkpt lat="47.552886" lon="7.795970">
        <ele>284.295495</ele>
        <time>2021-11-14T21:15:56.945Z</time>
      </trkpt>
      <trkpt lat="47.552886" lon="7.795976">
        <ele>284.310914</ele>
        <time>2021-11-14T21:15:57.394Z</time>
      </trkpt>
      <trkpt lat="47.552817" lon="7.796239">
        <ele>285.047376</ele>
        <time>2021-11-14T21:16:03.418Z</time>
      </trkpt>
      <trkpt lat="47.552762" lon="7.796425">
        <ele>285.662791</ele>
        <time>2021-11-14T21:16:07.918Z</time>
      </trkpt>
      <trkpt lat="47.552493" lon="7.797048">
        <ele>287.904164</ele>
        <time>2021-11-14T21:16:25.028Z</time>
      </trkpt>
      <trkpt lat="47.552152" lon="7.797876">
        <ele>290.843779</ele>
        <time>2021-11-14T21:16:47.097Z</time>
      </trkpt>
      <trkpt lat="47.552084" lon="7.798083">
        <ele>291.541479</ele>
        <time>2021-11-14T21:16:52.637Z</time>
      </trkpt>
      <trkpt lat="47.551948" lon="7.798607">
        <ele>293.170751</ele>
        <time>2021-11-14T21:17:05.111Z</time>
      </trkpt>
      <trkpt lat="47.551805" lon="7.799326">
        <ele>294.595126</ele>
        <time>2021-11-14T21:17:19.460Z</time>
      </trkpt>
      <trkpt lat="47.551793" lon="7.799434">
        <ele>294.803116</ele>
        <time>2021-11-14T21:17:22.004Z</time>
      </trkpt>
      <trkpt lat="47.551754" lon="7.799766">
        <ele>295.443488</ele>
        <time>2021-11-14T21:17:28.059Z</time>
      </trkpt>
      <trkpt lat="47.551712" lon="7.800249">
        <ele>296.368903</ele>
        <time>2021-11-14T21:17:37.039Z</time>
      </trkpt>
      <trkpt lat="47.551704" lon="7.800451">
        <ele>296.753417</ele>
        <time>2021-11-14T21:17:40.421Z</time>
      </trkpt>
      <trkpt lat="47.551672" lon="7.801147">
        <ele>298.079067</ele>
        <time>2021-11-14T21:17:50.228Z</time>
      </trkpt>
      <trkpt lat="47.551669" lon="7.801438">
        <ele>298.260118</ele>
        <time>2021-11-14T21:17:53.777Z</time>
      </trkpt>
      <trkpt lat="47.551666" lon="7.801632">
        <ele>298.364321</ele>
        <time>2021-11-14T21:17:56.556Z</time>
      </trkpt>
      <trkpt lat="47.551669" lon="7.801853">
        <ele>298.483018</ele>
        <time>2021-11-14T21:17:59.067Z</time>
      </trkpt>
      <trkpt lat="47.551671" lon="7.802077">
        <ele>298.603314</ele>
        <time>2021-11-14T21:18:01.639Z</time>
      </trkpt>
      <trkpt lat="47.551679" lon="7.802228">
        <ele>298.684648</ele>
        <time>2021-11-14T21:18:03.113Z</time>
      </trkpt>
      <trkpt lat="47.551688" lon="7.802394">
        <ele>298.774075</ele>
        <time>2021-11-14T21:18:04.992Z</time>
      </trkpt>
      <trkpt lat="47.551700" lon="7.802648">
        <ele>298.910802</ele>
        <time>2021-11-14T21:18:07.709Z</time>
      </trkpt>
      <trkpt lat="47.551732" lon="7.803125">
        <ele>299.168206</ele>
        <time>2021-11-14T21:18:13.077Z</time>
      </trkpt>
      <trkpt lat="47.551744" lon="7.803277">
        <ele>299.250385</ele>
        <time>2021-11-14T21:18:14.758Z</time>
      </trkpt>
      <trkpt lat="47.551751" lon="7.803369">
        <ele>299.300100</ele>
        <time>2021-11-14T21:18:15.874Z</time>
      </trkpt>
      <trkpt lat="47.551692" lon="7.803510">
        <ele>299.389186</ele>
        <time>2021-11-14T21:18:18.596Z</time>
      </trkpt>
      <trkpt lat="47.551741" lon="7.804294">
        <ele>299.807258</ele>
        <time>2021-11-14T21:18:31.651Z</time>
      </trkpt>
      <trkpt lat="47.551744" lon="7.804473">
        <ele>299.901708</ele>
        <time>2021-11-14T21:18:34.223Z</time>
      </trkpt>
      <trkpt lat="47.551731" lon="7.804667">
        <ele>300.004545</ele>
        <time>2021-11-14T21:18:38.241Z</time>
      </trkpt>
      <trkpt lat="47.551709" lon="7.805000">
        <ele>300.181040</ele>
        <time>2021-11-14T21:18:42.781Z</time>
      </trkpt>
      <trkpt lat="47.551681" lon="7.805477">
        <ele>300.433605</ele>
        <time>2021-11-14T21:18:50.528Z</time>
      </trkpt>
      <trkpt lat="47.551671" lon="7.806117">
        <ele>300.771291</ele>
        <time>2021-11-14T21:19:00.617Z</time>
      </trkpt>
      <trkpt lat="47.551651" lon="7.806246">
        <ele>300.841110</ele>
        <time>2021-11-14T21:19:03.520Z</time>
      </trkpt>
      <trkpt lat="47.551895" lon="7.806278">
        <ele>300.927653</ele>
        <time>2021-11-14T21:19:07.045Z</time>
      </trkpt>
      <trkpt lat="47.552015" lon="7.806307">
        <ele>300.901370</ele>
        <time>2021-11-14T21:19:09.915Z</time>
      </trkpt>
      <trkpt lat="47.552068" lon="7.806445">
        <ele>300.878205</ele>
        <time>2021-11-14T21:19:11.372Z</time>
      </trkpt>
      <trkpt lat="47.552398" lon="7.808880">
        <ele>300.419427</ele>
        <time>2021-11-14T21:19:33.515Z</time>
      </trkpt>
      <trkpt lat="47.552566" lon="7.810386">
        <ele>299.726956</ele>
        <time>2021-11-14T21:19:46.526Z</time>
      </trkpt>
      <trkpt lat="47.552711" lon="7.812955">
        <ele>298.599114</ele>
        <time>2021-11-14T21:20:09.135Z</time>
      </trkpt>
      <trkpt lat="47.552844" lon="7.816432">
        <ele>297.321648</ele>
        <time>2021-11-14T21:20:39.628Z</time>
      </trkpt>
      <trkpt lat="47.552948" lon="7.819358">
        <ele>297.739010</ele>
        <time>2021-11-14T21:21:10.858Z</time>
      </trkpt>
      <trkpt lat="47.552896" lon="7.820699">
        <ele>298.363968</ele>
        <time>2021-11-14T21:21:26.942Z</time>
      </trkpt>
      <trkpt lat="47.552567" lon="7.824508">
        <ele>300.261395</ele>
        <time>2021-11-14T21:22:13.427Z</time>
      </trkpt>
      <trkpt lat="47.552491" lon="7.827227">
        <ele>301.595477</ele>
        <time>2021-11-14T21:22:45.166Z</time>
      </trkpt>
      <trkpt lat="47.552515" lon="7.828094">
        <ele>302.514978</ele>
        <time>2021-11-14T21:22:56.876Z</time>
      </trkpt>
      <trkpt lat="47.552477" lon="7.828294">
        <ele>302.735149</ele>
        <time>2021-11-14T21:22:59.493Z</time>
      </trkpt>
      <trkpt lat="47.552421" lon="7.828481">
        <ele>302.951937</ele>
        <time>2021-11-14T21:23:02.425Z</time>
      </trkpt>
      <trkpt lat="47.552404" lon="7.828582">
        <ele>303.062241</ele>
        <time>2021-11-14T21:23:04.109Z</time>
      </trkpt>
      <trkpt lat="47.552416" lon="7.828822">
        <ele>303.317258</ele>
        <time>2021-11-14T21:23:07.343Z</time>
      </trkpt>
      <trkpt lat="47.552554" lon="7.829266">
        <ele>303.835243</ele>
        <time>2021-11-14T21:23:14.694Z</time>
      </trkpt>
      <trkpt lat="47.552645" lon="7.830686">
        <ele>306.153552</ele>
        <time>2021-11-14T21:23:38.000Z</time>
      </trkpt>
      <trkpt lat="47.552690" lon="7.832598">
        <ele>309.791331</ele>
        <time>2021-11-14T21:24:13.477Z</time>
      </trkpt>
      <trkpt lat="47.552616" lon="7.832891">
        <ele>310.378135</ele>
        <time>2021-11-14T21:24:18.841Z</time>
      </trkpt>
      <trkpt lat="47.552556" lon="7.832977">
        <ele>310.610142</ele>
        <time>2021-11-14T21:24:21.573Z</time>
      </trkpt>
      <trkpt lat="47.552511" lon="7.833072">
        <ele>310.827843</ele>
        <time>2021-11-14T21:24:23.598Z</time>
      </trkpt>
      <trkpt lat="47.552467" lon="7.833198">
        <ele>311.093945</ele>
        <time>2021-11-14T21:24:26.000Z</time>
      </trkpt>
      <trkpt lat="47.552452" lon="7.833284">
        <ele>311.260556</ele>
        <time>2021-11-14T21:24:27.611Z</time>
      </trkpt>
      <trkpt lat="47.552696" lon="7.833789">
        <ele>312.425505</ele>
        <time>2021-11-14T21:24:38.642Z</time>
      </trkpt>
      <trkpt lat="47.552700" lon="7.833938">
        <ele>312.705207</ele>
        <time>2021-11-14T21:24:41.587Z</time>
      </trkpt>
      <trkpt lat="47.552714" lon="7.835010">
        <ele>314.597461</ele>
        <time>2021-11-14T21:25:00.064Z</time>
      </trkpt>
      <trkpt lat="47.552719" lon="7.836790">
        <ele>316.644562</ele>
        <time>2021-11-14T21:25:25.347Z</time>
      </trkpt>
      <trkpt lat="47.552697" lon="7.838068">
        <ele>318.049619</ele>
        <time>2021-11-14T21:25:43.055Z</time>
      </trkpt>
      <trkpt lat="47.552736" lon="7.838578">
        <ele>318.579860</ele>
        <time>2021-11-14T21:25:50.182Z</time>
      </trkpt>
      <trkpt lat="47.552802" lon="7.839009">
        <ele>319.036433</ele>
        <time>2021-11-14T21:25:56.338Z</time>
      </trkpt>
      <trkpt lat="47.552825" lon="7.839096">
        <ele>319.132960</ele>
        <time>2021-11-14T21:25:57.658Z</time>
      </trkpt>
      <trkpt lat="47.552939" lon="7.839526">
        <ele>319.610227</ele>
        <time>2021-11-14T21:26:04.141Z</time>
      </trkpt>
      <trkpt lat="47.553231" lon="7.841529">
        <ele>321.707559</ele>
        <time>2021-11-14T21:26:34.267Z</time>
      </trkpt>
      <trkpt lat="47.553216" lon="7.841849">
        <ele>322.034601</ele>
        <time>2021-11-14T21:26:38.779Z</time>
      </trkpt>
      <trkpt lat="47.553123" lon="7.842222">
        <ele>322.440015</ele>
        <time>2021-11-14T21:26:44.008Z</time>
      </trkpt>
      <trkpt lat="47.553133" lon="7.842431">
        <ele>322.653636</ele>
        <time>2021-11-14T21:26:47.138Z</time>
      </trkpt>
      <trkpt lat="47.552833" lon="7.842495">
        <ele>323.034150</ele>
        <time>2021-11-14T21:26:54.445Z</time>
      </trkpt>
      <trkpt lat="47.552380" lon="7.842592">
        <ele>323.405845</ele>
        <time>2021-11-14T21:27:05.467Z</time>
      </trkpt>
      <trkpt lat="47.551922" lon="7.842704">
        <ele>323.782810</ele>
        <time>2021-11-14T21:27:15.983Z</time>
      </trkpt>
      <trkpt lat="47.551668" lon="7.842770">
        <ele>323.992227</ele>
        <time>2021-11-14T21:27:21.954Z</time>
      </trkpt>
      <trkpt lat="47.551454" lon="7.842815">
        <ele>324.167754</ele>
        <time>2021-11-14T21:27:26.630Z</time>
      </trkpt>
      <trkpt lat="47.551363" lon="7.844313">
        <ele>325.177274</ele>
        <time>2021-11-14T21:27:45.037Z</time>
      </trkpt>
      <trkpt lat="47.551344" lon="7.844621">
        <ele>325.400238</ele>
        <time>2021-11-14T21:27:49.156Z</time>
      </trkpt>
      <trkpt lat="47.551205" lon="7.846694">
        <ele>326.967193</ele>
        <time>2021-11-14T21:28:17.202Z</time>
      </trkpt>
      <trkpt lat="47.551184" lon="7.847206">
        <ele>327.378810</ele>
        <time>2021-11-14T21:28:24.595Z</time>
      </trkpt>
      <trkpt lat="47.551196" lon="7.847517">
        <ele>327.628783</ele>
        <time>2021-11-14T21:28:29.159Z</time>
      </trkpt>
      <trkpt lat="47.551669" lon="7.848083">
        <ele>328.351661</ele>
        <time>2021-11-14T21:28:41.379Z</time>
      </trkpt>
      <trkpt lat="47.551242" lon="7.848702">
        <ele>328.230162</ele>
        <time>2021-11-14T21:28:50.654Z</time>
      </trkpt>
      <trkpt lat="47.550975" lon="7.849066">
        <ele>328.060917</ele>
        <time>2021-11-14T21:28:55.163Z</time>
      </trkpt>
      <trkpt lat="47.551361" lon="7.849664">
        <ele>327.800411</ele>
        <time>2021-11-14T21:29:01.891Z</time>
      </trkpt>
      <trkpt lat="47.551502" lon="7.849858">
        <ele>327.710655</ele>
        <time>2021-11-14T21:29:04.265Z</time>
      </trkpt>
      <trkpt lat="47.551801" lon="7.850272">
        <ele>327.610657</ele>
        <time>2021-11-14T21:29:09.538Z</time>
      </trkpt>
      <trkpt lat="47.551890" lon="7.850321">
        <ele>327.604425</ele>
        <time>2021-11-14T21:29:10.659Z</time>
      </trkpt>
      <trkpt lat="47.551789" lon="7.850997">
        <ele>327.573752</ele>
        <time>2021-11-14T21:29:16.535Z</time>
      </trkpt>
      <trkpt lat="47.551788" lon="7.851413">
        <ele>327.555322</ele>
        <time>2021-11-14T21:29:20.370Z</time>
      </trkpt>
      <trkpt lat="47.551830" lon="7.851603">
        <ele>327.546465</ele>
        <time>2021-11-14T21:29:22.087Z</time>
      </trkpt>
      <trkpt lat="47.551660" lon="7.851725">
        <ele>327.534066</ele>
        <time>2021-11-14T21:29:25.100Z</time>
      </trkpt>
      <trkpt lat="47.551516" lon="7.851950">
        <ele>327.520329</ele>
        <time>2021-11-14T21:29:28.714Z</time>
      </trkpt>
      <trkpt lat="47.550221" lon="7.853833">
        <ele>330.059509</ele>
        <time>2021-11-14T21:30:09.085Z</time>
      </trkpt>
      <trkpt lat="47.549883" lon="7.854434">
        <ele>330.485120</ele>
        <time>2021-11-14T21:30:19.205Z</time>
      </trkpt>
      <trkpt lat="47.549566" lon="7.855225">
        <ele>330.738262</ele>
        <time>2021-11-14T21:30:33.064Z</time>
      </trkpt>
      <trkpt lat="47.549362" lon="7.855774">
        <ele>330.910715</ele>
        <time>2021-11-14T21:30:41.553Z</time>
      </trkpt>
      <trkpt lat="47.548887" lon="7.857308">
        <ele>331.185129</ele>
        <time>2021-11-14T21:31:03.661Z</time>
      </trkpt>
      <trkpt lat="47.548743" lon="7.857692">
        <ele>331.229093</ele>
        <time>2021-11-14T21:31:09.633Z</time>
      </trkpt>
      <trkpt lat="47.548701" lon="7.857893">
        <ele>331.250152</ele>
        <time>2021-11-14T21:31:12.604Z</time>
      </trkpt>
      <trkpt lat="47.548686" lon="7.857973">
        <ele>331.258462</ele>
        <time>2021-11-14T21:31:13.727Z</time>
      </trkpt>
      <trkpt lat="47.548611" lon="7.858381">
        <ele>331.300782</ele>
        <time>2021-11-14T21:31:19.941Z</time>
      </trkpt>
      <trkpt lat="47.548334" lon="7.859801">
        <ele>332.184283</ele>
        <time>2021-11-14T21:31:42.979Z</time>
      </trkpt>
      <trkpt lat="47.548049" lon="7.860929">
        <ele>333.145327</ele>
        <time>2021-11-14T21:32:03.997Z</time>
      </trkpt>
      <trkpt lat="47.547930" lon="7.861711">
        <ele>333.898845</ele>
        <time>2021-11-14T21:32:18.761Z</time>
      </trkpt>
      <trkpt lat="47.547568" lon="7.863151">
        <ele>335.567580</ele>
        <time>2021-11-14T21:32:47.889Z</time>
      </trkpt>
      <trkpt lat="47.547320" lon="7.863864">
        <ele>336.361008</ele>
        <time>2021-11-14T21:33:01.829Z</time>
      </trkpt>
      <trkpt lat="47.546974" lon="7.864423">
        <ele>336.335504</ele>
        <time>2021-11-14T21:33:12.652Z</time>
      </trkpt>
      <trkpt lat="47.546885" lon="7.864500">
        <ele>336.330369</ele>
        <time>2021-11-14T21:33:15.737Z</time>
      </trkpt>
      <trkpt lat="47.546894" lon="7.864837">
        <ele>336.319028</ele>
        <time>2021-11-14T21:33:19.621Z</time>
      </trkpt>
      <trkpt lat="47.546889" lon="7.865225">
        <ele>336.305978</ele>
        <time>2021-11-14T21:33:25.046Z</time>
      </trkpt>
      <trkpt lat="47.546819" lon="7.865489">
        <ele>336.296440</ele>
        <time>2021-11-14T21:33:28.990Z</time>
      </trkpt>
      <trkpt lat="47.546510" lon="7.865766">
        <ele>336.278448</ele>
        <time>2021-11-14T21:33:35.624Z</time>
      </trkpt>
      <trkpt lat="47.546327" lon="7.865959">
        <ele>336.185584</ele>
        <time>2021-11-14T21:33:39.140Z</time>
      </trkpt>
      <trkpt lat="47.546096" lon="7.866147">
        <ele>336.006880</ele>
        <time>2021-11-14T21:33:43.695Z</time>
      </trkpt>
      <trkpt lat="47.545240" lon="7.866887">
        <ele>335.334891</ele>
        <time>2021-11-14T21:34:00.369Z</time>
      </trkpt>
      <trkpt lat="47.545160" lon="7.866985">
        <ele>335.264506</ele>
        <time>2021-11-14T21:34:02.325Z</time>
      </trkpt>
      <trkpt lat="47.545003" lon="7.867278">
        <ele>335.093290</ele>
        <time>2021-11-14T21:34:07.993Z</time>
      </trkpt>
      <trkpt lat="47.544568" lon="7.867693">
        <ele>335.620230</ele>
        <time>2021-11-14T21:34:20.784Z</time>
      </trkpt>
      <trkpt lat="47.544469" lon="7.867776">
        <ele>335.760292</ele>
        <time>2021-11-14T21:34:23.646Z</time>
      </trkpt>
      <trkpt lat="47.544410" lon="7.867825">
        <ele>335.843573</ele>
        <time>2021-11-14T21:34:25.734Z</time>
      </trkpt>
      <trkpt lat="47.544246" lon="7.867967">
        <ele>336.077462</ele>
        <time>2021-11-14T21:34:30.418Z</time>
      </trkpt>
      <trkpt lat="47.544214" lon="7.867988">
        <ele>336.120555</ele>
        <time>2021-11-14T21:34:31.266Z</time>
      </trkpt>
      <trkpt lat="47.543801" lon="7.868269">
        <ele>336.680137</ele>
        <time>2021-11-14T21:34:42.869Z</time>
      </trkpt>
      <trkpt lat="47.543657" lon="7.868359">
        <ele>336.872573</ele>
        <time>2021-11-14T21:34:47.218Z</time>
      </trkpt>
      <trkpt lat="47.543201" lon="7.868657">
        <ele>337.268799</ele>
        <time>2021-11-14T21:34:57.418Z</time>
      </trkpt>
      <trkpt lat="47.543105" lon="7.868711">
        <ele>337.268799</ele>
        <time>2021-11-14T21:34:59.963Z</time>
      </trkpt>
      <trkpt lat="47.543049" lon="7.868759">
        <ele>337.268799</ele>
        <time>2021-11-14T21:35:01.256Z</time>
      </trkpt>
      <trkpt lat="47.542722" lon="7.869201">
        <ele>337.268799</ele>
        <time>2021-11-14T21:35:10.599Z</time>
      </trkpt>
      <trkpt lat="47.542696" lon="7.869257">
        <ele>337.268799</ele>
        <time>2021-11-14T21:35:11.349Z</time>
      </trkpt>
      <trkpt lat="47.542657" lon="7.869354">
        <ele>337.268799</ele>
        <time>2021-11-14T21:35:12.751Z</time>
      </trkpt>
      <trkpt lat="47.542372" lon="7.869746">
        <ele>337.268799</ele>
        <time>2021-11-14T21:35:19.557Z</time>
      </trkpt>
      <trkpt lat="47.542329" lon="7.869820">
        <ele>337.268799</ele>
        <time>2021-11-14T21:35:20.748Z</time>
      </trkpt>
      <trkpt lat="47.542348" lon="7.869983">
        <ele>337.268799</ele>
        <time>2021-11-14T21:35:22.272Z</time>
      </trkpt>
      <trkpt lat="47.542317" lon="7.870012">
        <ele>337.268799</ele>
        <time>2021-11-14T21:35:22.868Z</time>
      </trkpt>
      <trkpt lat="47.542260" lon="7.870062">
        <ele>337.268799</ele>
        <time>2021-11-14T21:35:23.746Z</time>
      </trkpt>
    </trkseg>
  </trk>
</gpx>